<?xml version="1.0" encoding="UTF-8" standalone="no" ?>
<gpx xmlns="http://www.topografix.com/GPX/1/1" xmlns:xsi="http://www.w3.org/2001/XMLSchema-instance" xsi:schemaLocation="http://www.topografix.com/GPX/1/1 http://www.topografix.com/GPX/1/1/gpx.xsd" version="1.1" creator="VisuGPX - https://www.visugpx.com">
  <metadata>
    <name>RSPFY-près de Poigny-La-Forêt</name>
    <desc><![CDATA[marche nordique démarrant au croisement entre la D936 et la D107 près de Poigny-La-Forêt.]]></desc>
  </metadata>
  <trk>
    <name><![CDATA[2019-01-10 09:12]]></name>
    <trkseg>
      <trkpt lat="48.67805" lon="1.7847">
        <ele>154</ele>
        <time>2019-01-10T08:15:12Z</time>
      </trkpt>
      <trkpt lat="48.67801" lon="1.78467">
        <ele>154</ele>
        <time>2019-01-10T08:15:23Z</time>
      </trkpt>
      <trkpt lat="48.67802" lon="1.78458">
        <ele>154</ele>
        <time>2019-01-10T08:15:43Z</time>
      </trkpt>
      <trkpt lat="48.67798" lon="1.78463">
        <ele>154</ele>
        <time>2019-01-10T08:16:03Z</time>
      </trkpt>
      <trkpt lat="48.67797" lon="1.78456">
        <ele>154</ele>
        <time>2019-01-10T08:16:43Z</time>
      </trkpt>
      <trkpt lat="48.67802" lon="1.78458">
        <ele>154</ele>
        <time>2019-01-10T08:20:13Z</time>
      </trkpt>
      <trkpt lat="48.67806" lon="1.7846">
        <ele>154</ele>
        <time>2019-01-10T08:21:25Z</time>
      </trkpt>
      <trkpt lat="48.67803" lon="1.78453">
        <ele>154</ele>
        <time>2019-01-10T08:22:25Z</time>
      </trkpt>
      <trkpt lat="48.67802" lon="1.78446">
        <ele>154</ele>
        <time>2019-01-10T08:22:33Z</time>
      </trkpt>
      <trkpt lat="48.67807" lon="1.78441">
        <ele>154</ele>
        <time>2019-01-10T08:22:39Z</time>
      </trkpt>
      <trkpt lat="48.67811" lon="1.78437">
        <ele>154</ele>
        <time>2019-01-10T08:22:43Z</time>
      </trkpt>
      <trkpt lat="48.67816" lon="1.78434">
        <ele>154</ele>
        <time>2019-01-10T08:22:47Z</time>
      </trkpt>
      <trkpt lat="48.67822" lon="1.78442">
        <ele>154</ele>
        <time>2019-01-10T08:22:53Z</time>
      </trkpt>
      <trkpt lat="48.67826" lon="1.7845">
        <ele>154</ele>
        <time>2019-01-10T08:22:57Z</time>
      </trkpt>
      <trkpt lat="48.67828" lon="1.78458">
        <ele>154</ele>
        <time>2019-01-10T08:23:01Z</time>
      </trkpt>
      <trkpt lat="48.67829" lon="1.78465">
        <ele>154</ele>
        <time>2019-01-10T08:23:05Z</time>
      </trkpt>
      <trkpt lat="48.67831" lon="1.78475">
        <ele>154</ele>
        <time>2019-01-10T08:23:13Z</time>
      </trkpt>
      <trkpt lat="48.67834" lon="1.78483">
        <ele>154</ele>
        <time>2019-01-10T08:23:17Z</time>
      </trkpt>
      <trkpt lat="48.67836" lon="1.7849">
        <ele>154</ele>
        <time>2019-01-10T08:23:21Z</time>
      </trkpt>
      <trkpt lat="48.67836" lon="1.78499">
        <ele>154</ele>
        <time>2019-01-10T08:23:27Z</time>
      </trkpt>
      <trkpt lat="48.6784" lon="1.78507">
        <ele>155</ele>
        <time>2019-01-10T08:23:31Z</time>
      </trkpt>
      <trkpt lat="48.6784" lon="1.78516">
        <ele>155</ele>
        <time>2019-01-10T08:23:37Z</time>
      </trkpt>
      <trkpt lat="48.67841" lon="1.78524">
        <ele>156</ele>
        <time>2019-01-10T08:23:45Z</time>
      </trkpt>
      <trkpt lat="48.6784" lon="1.78532">
        <ele>156</ele>
        <time>2019-01-10T08:23:51Z</time>
      </trkpt>
      <trkpt lat="48.6784" lon="1.78539">
        <ele>156</ele>
        <time>2019-01-10T08:23:57Z</time>
      </trkpt>
      <trkpt lat="48.67838" lon="1.78546">
        <ele>156</ele>
        <time>2019-01-10T08:24:01Z</time>
      </trkpt>
      <trkpt lat="48.67836" lon="1.78552">
        <ele>156</ele>
        <time>2019-01-10T08:24:05Z</time>
      </trkpt>
      <trkpt lat="48.67836" lon="1.78559">
        <ele>157</ele>
        <time>2019-01-10T08:24:09Z</time>
      </trkpt>
      <trkpt lat="48.67838" lon="1.78569">
        <ele>157</ele>
        <time>2019-01-10T08:24:13Z</time>
      </trkpt>
      <trkpt lat="48.67837" lon="1.78579">
        <ele>157</ele>
        <time>2019-01-10T08:24:17Z</time>
      </trkpt>
      <trkpt lat="48.67832" lon="1.78586">
        <ele>157</ele>
        <time>2019-01-10T08:24:21Z</time>
      </trkpt>
      <trkpt lat="48.67833" lon="1.78597">
        <ele>158</ele>
        <time>2019-01-10T08:24:25Z</time>
      </trkpt>
      <trkpt lat="48.67833" lon="1.78607">
        <ele>157</ele>
        <time>2019-01-10T08:24:29Z</time>
      </trkpt>
      <trkpt lat="48.67834" lon="1.78616">
        <ele>160</ele>
        <time>2019-01-10T08:24:33Z</time>
      </trkpt>
      <trkpt lat="48.67834" lon="1.78624">
        <ele>160</ele>
        <time>2019-01-10T08:24:37Z</time>
      </trkpt>
      <trkpt lat="48.67834" lon="1.78631">
        <ele>160</ele>
        <time>2019-01-10T08:24:41Z</time>
      </trkpt>
      <trkpt lat="48.67835" lon="1.78639">
        <ele>160</ele>
        <time>2019-01-10T08:24:45Z</time>
      </trkpt>
      <trkpt lat="48.67835" lon="1.78646">
        <ele>161</ele>
        <time>2019-01-10T08:24:49Z</time>
      </trkpt>
      <trkpt lat="48.67835" lon="1.78655">
        <ele>161</ele>
        <time>2019-01-10T08:24:53Z</time>
      </trkpt>
      <trkpt lat="48.67836" lon="1.78666">
        <ele>161</ele>
        <time>2019-01-10T08:24:57Z</time>
      </trkpt>
      <trkpt lat="48.67835" lon="1.78678">
        <ele>162</ele>
        <time>2019-01-10T08:25:01Z</time>
      </trkpt>
      <trkpt lat="48.67834" lon="1.78685">
        <ele>163</ele>
        <time>2019-01-10T08:25:03Z</time>
      </trkpt>
      <trkpt lat="48.67833" lon="1.78697">
        <ele>160</ele>
        <time>2019-01-10T08:25:07Z</time>
      </trkpt>
      <trkpt lat="48.67833" lon="1.78708">
        <ele>160</ele>
        <time>2019-01-10T08:25:11Z</time>
      </trkpt>
      <trkpt lat="48.67834" lon="1.78716">
        <ele>164</ele>
        <time>2019-01-10T08:25:17Z</time>
      </trkpt>
      <trkpt lat="48.67835" lon="1.78724">
        <ele>164</ele>
        <time>2019-01-10T08:25:21Z</time>
      </trkpt>
      <trkpt lat="48.67832" lon="1.78733">
        <ele>161</ele>
        <time>2019-01-10T08:25:27Z</time>
      </trkpt>
      <trkpt lat="48.6783" lon="1.78742">
        <ele>162</ele>
        <time>2019-01-10T08:25:31Z</time>
      </trkpt>
      <trkpt lat="48.67829" lon="1.78752">
        <ele>163</ele>
        <time>2019-01-10T08:25:39Z</time>
      </trkpt>
      <trkpt lat="48.67826" lon="1.78757">
        <ele>162</ele>
        <time>2019-01-10T08:25:43Z</time>
      </trkpt>
      <trkpt lat="48.67826" lon="1.78767">
        <ele>162</ele>
        <time>2019-01-10T08:25:47Z</time>
      </trkpt>
      <trkpt lat="48.67826" lon="1.78778">
        <ele>161</ele>
        <time>2019-01-10T08:25:51Z</time>
      </trkpt>
      <trkpt lat="48.67826" lon="1.78787">
        <ele>161</ele>
        <time>2019-01-10T08:25:55Z</time>
      </trkpt>
      <trkpt lat="48.67827" lon="1.78799">
        <ele>161</ele>
        <time>2019-01-10T08:25:59Z</time>
      </trkpt>
      <trkpt lat="48.67829" lon="1.7881">
        <ele>161</ele>
        <time>2019-01-10T08:26:03Z</time>
      </trkpt>
      <trkpt lat="48.67829" lon="1.78822">
        <ele>161</ele>
        <time>2019-01-10T08:26:07Z</time>
      </trkpt>
      <trkpt lat="48.67827" lon="1.78832">
        <ele>162</ele>
        <time>2019-01-10T08:26:11Z</time>
      </trkpt>
      <trkpt lat="48.67823" lon="1.78843">
        <ele>162</ele>
        <time>2019-01-10T08:26:15Z</time>
      </trkpt>
      <trkpt lat="48.67824" lon="1.78851">
        <ele>162</ele>
        <time>2019-01-10T08:26:19Z</time>
      </trkpt>
      <trkpt lat="48.67828" lon="1.78859">
        <ele>162</ele>
        <time>2019-01-10T08:26:23Z</time>
      </trkpt>
      <trkpt lat="48.67828" lon="1.78869">
        <ele>162</ele>
        <time>2019-01-10T08:26:27Z</time>
      </trkpt>
      <trkpt lat="48.67829" lon="1.7888">
        <ele>162</ele>
        <time>2019-01-10T08:26:31Z</time>
      </trkpt>
      <trkpt lat="48.67828" lon="1.78891">
        <ele>162</ele>
        <time>2019-01-10T08:26:35Z</time>
      </trkpt>
      <trkpt lat="48.67825" lon="1.789">
        <ele>162</ele>
        <time>2019-01-10T08:26:39Z</time>
      </trkpt>
      <trkpt lat="48.67826" lon="1.78908">
        <ele>162</ele>
        <time>2019-01-10T08:26:43Z</time>
      </trkpt>
      <trkpt lat="48.67829" lon="1.78919">
        <ele>163</ele>
        <time>2019-01-10T08:26:47Z</time>
      </trkpt>
      <trkpt lat="48.67831" lon="1.78927">
        <ele>163</ele>
        <time>2019-01-10T08:26:51Z</time>
      </trkpt>
      <trkpt lat="48.6783" lon="1.78936">
        <ele>163</ele>
        <time>2019-01-10T08:26:55Z</time>
      </trkpt>
      <trkpt lat="48.67831" lon="1.78948">
        <ele>163</ele>
        <time>2019-01-10T08:26:59Z</time>
      </trkpt>
      <trkpt lat="48.6783" lon="1.78961">
        <ele>163</ele>
        <time>2019-01-10T08:27:03Z</time>
      </trkpt>
      <trkpt lat="48.67831" lon="1.7897">
        <ele>163</ele>
        <time>2019-01-10T08:27:07Z</time>
      </trkpt>
      <trkpt lat="48.6783" lon="1.78981">
        <ele>163</ele>
        <time>2019-01-10T08:27:11Z</time>
      </trkpt>
      <trkpt lat="48.6783" lon="1.78988">
        <ele>164</ele>
        <time>2019-01-10T08:27:15Z</time>
      </trkpt>
      <trkpt lat="48.67831" lon="1.78996">
        <ele>164</ele>
        <time>2019-01-10T08:27:19Z</time>
      </trkpt>
      <trkpt lat="48.67831" lon="1.79006">
        <ele>164</ele>
        <time>2019-01-10T08:27:23Z</time>
      </trkpt>
      <trkpt lat="48.6783" lon="1.79016">
        <ele>164</ele>
        <time>2019-01-10T08:27:27Z</time>
      </trkpt>
      <trkpt lat="48.67832" lon="1.79026">
        <ele>164</ele>
        <time>2019-01-10T08:27:31Z</time>
      </trkpt>
      <trkpt lat="48.6783" lon="1.79035">
        <ele>164</ele>
        <time>2019-01-10T08:27:35Z</time>
      </trkpt>
      <trkpt lat="48.67829" lon="1.79043">
        <ele>164</ele>
        <time>2019-01-10T08:27:39Z</time>
      </trkpt>
      <trkpt lat="48.6783" lon="1.79052">
        <ele>164</ele>
        <time>2019-01-10T08:27:43Z</time>
      </trkpt>
      <trkpt lat="48.6783" lon="1.7906">
        <ele>164</ele>
        <time>2019-01-10T08:27:47Z</time>
      </trkpt>
      <trkpt lat="48.6783" lon="1.79068">
        <ele>164</ele>
        <time>2019-01-10T08:27:51Z</time>
      </trkpt>
      <trkpt lat="48.6783" lon="1.79076">
        <ele>164</ele>
        <time>2019-01-10T08:27:55Z</time>
      </trkpt>
      <trkpt lat="48.6783" lon="1.79084">
        <ele>164</ele>
        <time>2019-01-10T08:27:59Z</time>
      </trkpt>
      <trkpt lat="48.67831" lon="1.79093">
        <ele>163</ele>
        <time>2019-01-10T08:28:03Z</time>
      </trkpt>
      <trkpt lat="48.6783" lon="1.79101">
        <ele>163</ele>
        <time>2019-01-10T08:28:07Z</time>
      </trkpt>
      <trkpt lat="48.67828" lon="1.79111">
        <ele>163</ele>
        <time>2019-01-10T08:28:11Z</time>
      </trkpt>
      <trkpt lat="48.67825" lon="1.79118">
        <ele>163</ele>
        <time>2019-01-10T08:28:13Z</time>
      </trkpt>
      <trkpt lat="48.67823" lon="1.79124">
        <ele>163</ele>
        <time>2019-01-10T08:28:17Z</time>
      </trkpt>
      <trkpt lat="48.6782" lon="1.79133">
        <ele>163</ele>
        <time>2019-01-10T08:28:21Z</time>
      </trkpt>
      <trkpt lat="48.67817" lon="1.79142">
        <ele>163</ele>
        <time>2019-01-10T08:28:25Z</time>
      </trkpt>
      <trkpt lat="48.67814" lon="1.79149">
        <ele>162</ele>
        <time>2019-01-10T08:28:29Z</time>
      </trkpt>
      <trkpt lat="48.67812" lon="1.79156">
        <ele>162</ele>
        <time>2019-01-10T08:28:33Z</time>
      </trkpt>
      <trkpt lat="48.67807" lon="1.79165">
        <ele>162</ele>
        <time>2019-01-10T08:28:37Z</time>
      </trkpt>
      <trkpt lat="48.67803" lon="1.79173">
        <ele>162</ele>
        <time>2019-01-10T08:28:41Z</time>
      </trkpt>
      <trkpt lat="48.67799" lon="1.7918">
        <ele>162</ele>
        <time>2019-01-10T08:28:45Z</time>
      </trkpt>
      <trkpt lat="48.67796" lon="1.79189">
        <ele>161</ele>
        <time>2019-01-10T08:28:49Z</time>
      </trkpt>
      <trkpt lat="48.67792" lon="1.79199">
        <ele>161</ele>
        <time>2019-01-10T08:28:53Z</time>
      </trkpt>
      <trkpt lat="48.67787" lon="1.79208">
        <ele>161</ele>
        <time>2019-01-10T08:28:57Z</time>
      </trkpt>
      <trkpt lat="48.67785" lon="1.79216">
        <ele>161</ele>
        <time>2019-01-10T08:29:01Z</time>
      </trkpt>
      <trkpt lat="48.6778" lon="1.79226">
        <ele>161</ele>
        <time>2019-01-10T08:29:05Z</time>
      </trkpt>
      <trkpt lat="48.67776" lon="1.79237">
        <ele>161</ele>
        <time>2019-01-10T08:29:09Z</time>
      </trkpt>
      <trkpt lat="48.67772" lon="1.79246">
        <ele>161</ele>
        <time>2019-01-10T08:29:13Z</time>
      </trkpt>
      <trkpt lat="48.6777" lon="1.79253">
        <ele>161</ele>
        <time>2019-01-10T08:29:17Z</time>
      </trkpt>
      <trkpt lat="48.67766" lon="1.79258">
        <ele>161</ele>
        <time>2019-01-10T08:29:19Z</time>
      </trkpt>
      <trkpt lat="48.67762" lon="1.79266">
        <ele>161</ele>
        <time>2019-01-10T08:29:23Z</time>
      </trkpt>
      <trkpt lat="48.6776" lon="1.79274">
        <ele>161</ele>
        <time>2019-01-10T08:29:27Z</time>
      </trkpt>
      <trkpt lat="48.67755" lon="1.79283">
        <ele>161</ele>
        <time>2019-01-10T08:29:31Z</time>
      </trkpt>
      <trkpt lat="48.67753" lon="1.79288">
        <ele>162</ele>
        <time>2019-01-10T08:29:35Z</time>
      </trkpt>
      <trkpt lat="48.67748" lon="1.79298">
        <ele>160</ele>
        <time>2019-01-10T08:29:39Z</time>
      </trkpt>
      <trkpt lat="48.67744" lon="1.79302">
        <ele>160</ele>
        <time>2019-01-10T08:29:41Z</time>
      </trkpt>
      <trkpt lat="48.6774" lon="1.79311">
        <ele>160</ele>
        <time>2019-01-10T08:29:45Z</time>
      </trkpt>
      <trkpt lat="48.67738" lon="1.7932">
        <ele>161</ele>
        <time>2019-01-10T08:29:49Z</time>
      </trkpt>
      <trkpt lat="48.67734" lon="1.7933">
        <ele>161</ele>
        <time>2019-01-10T08:29:53Z</time>
      </trkpt>
      <trkpt lat="48.67729" lon="1.79339">
        <ele>161</ele>
        <time>2019-01-10T08:29:57Z</time>
      </trkpt>
      <trkpt lat="48.67727" lon="1.79346">
        <ele>161</ele>
        <time>2019-01-10T08:30:01Z</time>
      </trkpt>
      <trkpt lat="48.67721" lon="1.79355">
        <ele>160</ele>
        <time>2019-01-10T08:30:05Z</time>
      </trkpt>
      <trkpt lat="48.67719" lon="1.79362">
        <ele>160</ele>
        <time>2019-01-10T08:30:09Z</time>
      </trkpt>
      <trkpt lat="48.67717" lon="1.7937">
        <ele>160</ele>
        <time>2019-01-10T08:30:13Z</time>
      </trkpt>
      <trkpt lat="48.67715" lon="1.79378">
        <ele>160</ele>
        <time>2019-01-10T08:30:17Z</time>
      </trkpt>
      <trkpt lat="48.67712" lon="1.79386">
        <ele>160</ele>
        <time>2019-01-10T08:30:21Z</time>
      </trkpt>
      <trkpt lat="48.67708" lon="1.79394">
        <ele>160</ele>
        <time>2019-01-10T08:30:25Z</time>
      </trkpt>
      <trkpt lat="48.67705" lon="1.79404">
        <ele>160</ele>
        <time>2019-01-10T08:30:29Z</time>
      </trkpt>
      <trkpt lat="48.67702" lon="1.79414">
        <ele>160</ele>
        <time>2019-01-10T08:30:33Z</time>
      </trkpt>
      <trkpt lat="48.67699" lon="1.79423">
        <ele>160</ele>
        <time>2019-01-10T08:30:37Z</time>
      </trkpt>
      <trkpt lat="48.67698" lon="1.79432">
        <ele>160</ele>
        <time>2019-01-10T08:30:41Z</time>
      </trkpt>
      <trkpt lat="48.67697" lon="1.7944">
        <ele>160</ele>
        <time>2019-01-10T08:30:45Z</time>
      </trkpt>
      <trkpt lat="48.67695" lon="1.79449">
        <ele>160</ele>
        <time>2019-01-10T08:30:49Z</time>
      </trkpt>
      <trkpt lat="48.67694" lon="1.79461">
        <ele>160</ele>
        <time>2019-01-10T08:30:55Z</time>
      </trkpt>
      <trkpt lat="48.67694" lon="1.79469">
        <ele>160</ele>
        <time>2019-01-10T08:30:59Z</time>
      </trkpt>
      <trkpt lat="48.67694" lon="1.79476">
        <ele>160</ele>
        <time>2019-01-10T08:31:03Z</time>
      </trkpt>
      <trkpt lat="48.67692" lon="1.79486">
        <ele>160</ele>
        <time>2019-01-10T08:31:07Z</time>
      </trkpt>
      <trkpt lat="48.6769" lon="1.79496">
        <ele>160</ele>
        <time>2019-01-10T08:31:11Z</time>
      </trkpt>
      <trkpt lat="48.6769" lon="1.79504">
        <ele>161</ele>
        <time>2019-01-10T08:31:15Z</time>
      </trkpt>
      <trkpt lat="48.67691" lon="1.79513">
        <ele>161</ele>
        <time>2019-01-10T08:31:19Z</time>
      </trkpt>
      <trkpt lat="48.6769" lon="1.7952">
        <ele>161</ele>
        <time>2019-01-10T08:31:23Z</time>
      </trkpt>
      <trkpt lat="48.67692" lon="1.79529">
        <ele>161</ele>
        <time>2019-01-10T08:31:29Z</time>
      </trkpt>
      <trkpt lat="48.6769" lon="1.79536">
        <ele>161</ele>
        <time>2019-01-10T08:31:33Z</time>
      </trkpt>
      <trkpt lat="48.67689" lon="1.79547">
        <ele>161</ele>
        <time>2019-01-10T08:31:39Z</time>
      </trkpt>
      <trkpt lat="48.67688" lon="1.79555">
        <ele>161</ele>
        <time>2019-01-10T08:31:43Z</time>
      </trkpt>
      <trkpt lat="48.67686" lon="1.79564">
        <ele>161</ele>
        <time>2019-01-10T08:31:47Z</time>
      </trkpt>
      <trkpt lat="48.67683" lon="1.79573">
        <ele>161</ele>
        <time>2019-01-10T08:31:51Z</time>
      </trkpt>
      <trkpt lat="48.6768" lon="1.79581">
        <ele>162</ele>
        <time>2019-01-10T08:31:55Z</time>
      </trkpt>
      <trkpt lat="48.67678" lon="1.79589">
        <ele>162</ele>
        <time>2019-01-10T08:31:59Z</time>
      </trkpt>
      <trkpt lat="48.67678" lon="1.79598">
        <ele>162</ele>
        <time>2019-01-10T08:32:03Z</time>
      </trkpt>
      <trkpt lat="48.67677" lon="1.79608">
        <ele>162</ele>
        <time>2019-01-10T08:32:07Z</time>
      </trkpt>
      <trkpt lat="48.67677" lon="1.79621">
        <ele>162</ele>
        <time>2019-01-10T08:32:11Z</time>
      </trkpt>
      <trkpt lat="48.67678" lon="1.79631">
        <ele>162</ele>
        <time>2019-01-10T08:32:15Z</time>
      </trkpt>
      <trkpt lat="48.67677" lon="1.79643">
        <ele>163</ele>
        <time>2019-01-10T08:32:19Z</time>
      </trkpt>
      <trkpt lat="48.67676" lon="1.79652">
        <ele>163</ele>
        <time>2019-01-10T08:32:23Z</time>
      </trkpt>
      <trkpt lat="48.67675" lon="1.79661">
        <ele>163</ele>
        <time>2019-01-10T08:32:27Z</time>
      </trkpt>
      <trkpt lat="48.67675" lon="1.7967">
        <ele>164</ele>
        <time>2019-01-10T08:32:31Z</time>
      </trkpt>
      <trkpt lat="48.67673" lon="1.79681">
        <ele>164</ele>
        <time>2019-01-10T08:32:35Z</time>
      </trkpt>
      <trkpt lat="48.67672" lon="1.79691">
        <ele>164</ele>
        <time>2019-01-10T08:32:39Z</time>
      </trkpt>
      <trkpt lat="48.67672" lon="1.79699">
        <ele>164</ele>
        <time>2019-01-10T08:32:43Z</time>
      </trkpt>
      <trkpt lat="48.67672" lon="1.79708">
        <ele>164</ele>
        <time>2019-01-10T08:32:47Z</time>
      </trkpt>
      <trkpt lat="48.67672" lon="1.79715">
        <ele>164</ele>
        <time>2019-01-10T08:32:51Z</time>
      </trkpt>
      <trkpt lat="48.67671" lon="1.79724">
        <ele>165</ele>
        <time>2019-01-10T08:32:55Z</time>
      </trkpt>
      <trkpt lat="48.67669" lon="1.79734">
        <ele>165</ele>
        <time>2019-01-10T08:32:59Z</time>
      </trkpt>
      <trkpt lat="48.67668" lon="1.79741">
        <ele>166</ele>
        <time>2019-01-10T08:33:03Z</time>
      </trkpt>
      <trkpt lat="48.67667" lon="1.79749">
        <ele>167</ele>
        <time>2019-01-10T08:33:07Z</time>
      </trkpt>
      <trkpt lat="48.67667" lon="1.79757">
        <ele>167</ele>
        <time>2019-01-10T08:33:11Z</time>
      </trkpt>
      <trkpt lat="48.67665" lon="1.79767">
        <ele>169</ele>
        <time>2019-01-10T08:33:15Z</time>
      </trkpt>
      <trkpt lat="48.67666" lon="1.79776">
        <ele>169</ele>
        <time>2019-01-10T08:33:19Z</time>
      </trkpt>
      <trkpt lat="48.67665" lon="1.79784">
        <ele>169</ele>
        <time>2019-01-10T08:33:23Z</time>
      </trkpt>
      <trkpt lat="48.67664" lon="1.79793">
        <ele>170</ele>
        <time>2019-01-10T08:33:27Z</time>
      </trkpt>
      <trkpt lat="48.67663" lon="1.79802">
        <ele>170</ele>
        <time>2019-01-10T08:33:31Z</time>
      </trkpt>
      <trkpt lat="48.6766" lon="1.79809">
        <ele>170</ele>
        <time>2019-01-10T08:33:35Z</time>
      </trkpt>
      <trkpt lat="48.67659" lon="1.79818">
        <ele>170</ele>
        <time>2019-01-10T08:33:39Z</time>
      </trkpt>
      <trkpt lat="48.67659" lon="1.79826">
        <ele>170</ele>
        <time>2019-01-10T08:33:43Z</time>
      </trkpt>
      <trkpt lat="48.67662" lon="1.79832">
        <ele>170</ele>
        <time>2019-01-10T08:33:47Z</time>
      </trkpt>
      <trkpt lat="48.67661" lon="1.79842">
        <ele>172</ele>
        <time>2019-01-10T08:33:51Z</time>
      </trkpt>
      <trkpt lat="48.67661" lon="1.79851">
        <ele>173</ele>
        <time>2019-01-10T08:33:55Z</time>
      </trkpt>
      <trkpt lat="48.67661" lon="1.79859">
        <ele>173</ele>
        <time>2019-01-10T08:33:59Z</time>
      </trkpt>
      <trkpt lat="48.6766" lon="1.79867">
        <ele>174</ele>
        <time>2019-01-10T08:34:03Z</time>
      </trkpt>
      <trkpt lat="48.67661" lon="1.79875">
        <ele>174</ele>
        <time>2019-01-10T08:34:07Z</time>
      </trkpt>
      <trkpt lat="48.6766" lon="1.79883">
        <ele>175</ele>
        <time>2019-01-10T08:34:11Z</time>
      </trkpt>
      <trkpt lat="48.67658" lon="1.79894">
        <ele>176</ele>
        <time>2019-01-10T08:34:15Z</time>
      </trkpt>
      <trkpt lat="48.67658" lon="1.79903">
        <ele>176</ele>
        <time>2019-01-10T08:34:19Z</time>
      </trkpt>
      <trkpt lat="48.67658" lon="1.79911">
        <ele>177</ele>
        <time>2019-01-10T08:34:23Z</time>
      </trkpt>
      <trkpt lat="48.67657" lon="1.79919">
        <ele>178</ele>
        <time>2019-01-10T08:34:29Z</time>
      </trkpt>
      <trkpt lat="48.67657" lon="1.79928">
        <ele>178</ele>
        <time>2019-01-10T08:34:35Z</time>
      </trkpt>
      <trkpt lat="48.67658" lon="1.79936">
        <ele>178</ele>
        <time>2019-01-10T08:34:39Z</time>
      </trkpt>
      <trkpt lat="48.67659" lon="1.79946">
        <ele>178</ele>
        <time>2019-01-10T08:34:43Z</time>
      </trkpt>
      <trkpt lat="48.67657" lon="1.79954">
        <ele>178</ele>
        <time>2019-01-10T08:34:47Z</time>
      </trkpt>
      <trkpt lat="48.67655" lon="1.79965">
        <ele>178</ele>
        <time>2019-01-10T08:34:51Z</time>
      </trkpt>
      <trkpt lat="48.67651" lon="1.79975">
        <ele>178</ele>
        <time>2019-01-10T08:34:55Z</time>
      </trkpt>
      <trkpt lat="48.67647" lon="1.79988">
        <ele>179</ele>
        <time>2019-01-10T08:34:59Z</time>
      </trkpt>
      <trkpt lat="48.67646" lon="1.79996">
        <ele>179</ele>
        <time>2019-01-10T08:35:03Z</time>
      </trkpt>
      <trkpt lat="48.67644" lon="1.80002">
        <ele>179</ele>
        <time>2019-01-10T08:35:05Z</time>
      </trkpt>
      <trkpt lat="48.6764" lon="1.80007">
        <ele>178</ele>
        <time>2019-01-10T08:35:07Z</time>
      </trkpt>
      <trkpt lat="48.67643" lon="1.80014">
        <ele>178</ele>
        <time>2019-01-10T08:35:13Z</time>
      </trkpt>
      <trkpt lat="48.6765" lon="1.80021">
        <ele>179</ele>
        <time>2019-01-10T08:35:17Z</time>
      </trkpt>
      <trkpt lat="48.67654" lon="1.80028">
        <ele>178</ele>
        <time>2019-01-10T08:35:21Z</time>
      </trkpt>
      <trkpt lat="48.67658" lon="1.80035">
        <ele>178</ele>
        <time>2019-01-10T08:35:25Z</time>
      </trkpt>
      <trkpt lat="48.67663" lon="1.80039">
        <ele>178</ele>
        <time>2019-01-10T08:35:31Z</time>
      </trkpt>
      <trkpt lat="48.67666" lon="1.80044">
        <ele>178</ele>
        <time>2019-01-10T08:35:35Z</time>
      </trkpt>
      <trkpt lat="48.67672" lon="1.8005">
        <ele>179</ele>
        <time>2019-01-10T08:35:39Z</time>
      </trkpt>
      <trkpt lat="48.67679" lon="1.80056">
        <ele>179</ele>
        <time>2019-01-10T08:35:43Z</time>
      </trkpt>
      <trkpt lat="48.67684" lon="1.80061">
        <ele>179</ele>
        <time>2019-01-10T08:35:47Z</time>
      </trkpt>
      <trkpt lat="48.67688" lon="1.80069">
        <ele>179</ele>
        <time>2019-01-10T08:35:51Z</time>
      </trkpt>
      <trkpt lat="48.67691" lon="1.80075">
        <ele>179</ele>
        <time>2019-01-10T08:35:55Z</time>
      </trkpt>
      <trkpt lat="48.67696" lon="1.80081">
        <ele>179</ele>
        <time>2019-01-10T08:35:59Z</time>
      </trkpt>
      <trkpt lat="48.67699" lon="1.80089">
        <ele>179</ele>
        <time>2019-01-10T08:36:03Z</time>
      </trkpt>
      <trkpt lat="48.677" lon="1.80098">
        <ele>179</ele>
        <time>2019-01-10T08:36:07Z</time>
      </trkpt>
      <trkpt lat="48.677" lon="1.80106">
        <ele>179</ele>
        <time>2019-01-10T08:36:11Z</time>
      </trkpt>
      <trkpt lat="48.67702" lon="1.80115">
        <ele>179</ele>
        <time>2019-01-10T08:36:17Z</time>
      </trkpt>
      <trkpt lat="48.67706" lon="1.80126">
        <ele>179</ele>
        <time>2019-01-10T08:36:23Z</time>
      </trkpt>
      <trkpt lat="48.67711" lon="1.80132">
        <ele>180</ele>
        <time>2019-01-10T08:36:27Z</time>
      </trkpt>
      <trkpt lat="48.67715" lon="1.80137">
        <ele>180</ele>
        <time>2019-01-10T08:36:29Z</time>
      </trkpt>
      <trkpt lat="48.67718" lon="1.80144">
        <ele>180</ele>
        <time>2019-01-10T08:36:33Z</time>
      </trkpt>
      <trkpt lat="48.67723" lon="1.80151">
        <ele>180</ele>
        <time>2019-01-10T08:36:37Z</time>
      </trkpt>
      <trkpt lat="48.67726" lon="1.80157">
        <ele>180</ele>
        <time>2019-01-10T08:36:41Z</time>
      </trkpt>
      <trkpt lat="48.67732" lon="1.80161">
        <ele>180</ele>
        <time>2019-01-10T08:36:45Z</time>
      </trkpt>
      <trkpt lat="48.67735" lon="1.8017">
        <ele>180</ele>
        <time>2019-01-10T08:36:49Z</time>
      </trkpt>
      <trkpt lat="48.67738" lon="1.80177">
        <ele>180</ele>
        <time>2019-01-10T08:36:55Z</time>
      </trkpt>
      <trkpt lat="48.67742" lon="1.80183">
        <ele>180</ele>
        <time>2019-01-10T08:36:59Z</time>
      </trkpt>
      <trkpt lat="48.67745" lon="1.80194">
        <ele>180</ele>
        <time>2019-01-10T08:37:03Z</time>
      </trkpt>
      <trkpt lat="48.67749" lon="1.80199">
        <ele>181</ele>
        <time>2019-01-10T08:37:05Z</time>
      </trkpt>
      <trkpt lat="48.6775" lon="1.80206">
        <ele>181</ele>
        <time>2019-01-10T08:37:11Z</time>
      </trkpt>
      <trkpt lat="48.67755" lon="1.80213">
        <ele>182</ele>
        <time>2019-01-10T08:37:19Z</time>
      </trkpt>
      <trkpt lat="48.67757" lon="1.80222">
        <ele>182</ele>
        <time>2019-01-10T08:37:25Z</time>
      </trkpt>
      <trkpt lat="48.6776" lon="1.8023">
        <ele>182</ele>
        <time>2019-01-10T08:37:29Z</time>
      </trkpt>
      <trkpt lat="48.67763" lon="1.80236">
        <ele>182</ele>
        <time>2019-01-10T08:37:33Z</time>
      </trkpt>
      <trkpt lat="48.67766" lon="1.80242">
        <ele>182</ele>
        <time>2019-01-10T08:37:39Z</time>
      </trkpt>
      <trkpt lat="48.67768" lon="1.8025">
        <ele>182</ele>
        <time>2019-01-10T08:37:45Z</time>
      </trkpt>
      <trkpt lat="48.67771" lon="1.80257">
        <ele>182</ele>
        <time>2019-01-10T08:37:49Z</time>
      </trkpt>
      <trkpt lat="48.67774" lon="1.80266">
        <ele>181</ele>
        <time>2019-01-10T08:37:53Z</time>
      </trkpt>
      <trkpt lat="48.67779" lon="1.80273">
        <ele>181</ele>
        <time>2019-01-10T08:37:57Z</time>
      </trkpt>
      <trkpt lat="48.67784" lon="1.8028">
        <ele>181</ele>
        <time>2019-01-10T08:38:01Z</time>
      </trkpt>
      <trkpt lat="48.67788" lon="1.80285">
        <ele>181</ele>
        <time>2019-01-10T08:38:05Z</time>
      </trkpt>
      <trkpt lat="48.6779" lon="1.80292">
        <ele>181</ele>
        <time>2019-01-10T08:38:09Z</time>
      </trkpt>
      <trkpt lat="48.67796" lon="1.80301">
        <ele>181</ele>
        <time>2019-01-10T08:38:13Z</time>
      </trkpt>
      <trkpt lat="48.67802" lon="1.80306">
        <ele>181</ele>
        <time>2019-01-10T08:38:17Z</time>
      </trkpt>
      <trkpt lat="48.67804" lon="1.80313">
        <ele>181</ele>
        <time>2019-01-10T08:38:21Z</time>
      </trkpt>
      <trkpt lat="48.6781" lon="1.80321">
        <ele>181</ele>
        <time>2019-01-10T08:38:25Z</time>
      </trkpt>
      <trkpt lat="48.67814" lon="1.80329">
        <ele>181</ele>
        <time>2019-01-10T08:38:29Z</time>
      </trkpt>
      <trkpt lat="48.67817" lon="1.80336">
        <ele>181</ele>
        <time>2019-01-10T08:38:33Z</time>
      </trkpt>
      <trkpt lat="48.67822" lon="1.80339">
        <ele>181</ele>
        <time>2019-01-10T08:38:35Z</time>
      </trkpt>
      <trkpt lat="48.67828" lon="1.80347">
        <ele>181</ele>
        <time>2019-01-10T08:38:39Z</time>
      </trkpt>
      <trkpt lat="48.67831" lon="1.80353">
        <ele>181</ele>
        <time>2019-01-10T08:38:43Z</time>
      </trkpt>
      <trkpt lat="48.67832" lon="1.80361">
        <ele>181</ele>
        <time>2019-01-10T08:38:47Z</time>
      </trkpt>
      <trkpt lat="48.67836" lon="1.80367">
        <ele>182</ele>
        <time>2019-01-10T08:38:51Z</time>
      </trkpt>
      <trkpt lat="48.67838" lon="1.80374">
        <ele>182</ele>
        <time>2019-01-10T08:38:55Z</time>
      </trkpt>
      <trkpt lat="48.67842" lon="1.8038">
        <ele>182</ele>
        <time>2019-01-10T08:38:59Z</time>
      </trkpt>
      <trkpt lat="48.67847" lon="1.80388">
        <ele>182</ele>
        <time>2019-01-10T08:39:03Z</time>
      </trkpt>
      <trkpt lat="48.67853" lon="1.80398">
        <ele>182</ele>
        <time>2019-01-10T08:39:07Z</time>
      </trkpt>
      <trkpt lat="48.67857" lon="1.80402">
        <ele>182</ele>
        <time>2019-01-10T08:39:11Z</time>
      </trkpt>
      <trkpt lat="48.67862" lon="1.80408">
        <ele>182</ele>
        <time>2019-01-10T08:39:15Z</time>
      </trkpt>
      <trkpt lat="48.67865" lon="1.80413">
        <ele>182</ele>
        <time>2019-01-10T08:39:17Z</time>
      </trkpt>
      <trkpt lat="48.67869" lon="1.80419">
        <ele>183</ele>
        <time>2019-01-10T08:39:21Z</time>
      </trkpt>
      <trkpt lat="48.67873" lon="1.80429">
        <ele>183</ele>
        <time>2019-01-10T08:39:25Z</time>
      </trkpt>
      <trkpt lat="48.67876" lon="1.80435">
        <ele>183</ele>
        <time>2019-01-10T08:39:31Z</time>
      </trkpt>
      <trkpt lat="48.67878" lon="1.80441">
        <ele>183</ele>
        <time>2019-01-10T08:39:37Z</time>
      </trkpt>
      <trkpt lat="48.67881" lon="1.80447">
        <ele>183</ele>
        <time>2019-01-10T08:39:41Z</time>
      </trkpt>
      <trkpt lat="48.67887" lon="1.80455">
        <ele>183</ele>
        <time>2019-01-10T08:39:47Z</time>
      </trkpt>
      <trkpt lat="48.6789" lon="1.80462">
        <ele>183</ele>
        <time>2019-01-10T08:39:51Z</time>
      </trkpt>
      <trkpt lat="48.67895" lon="1.8047">
        <ele>183</ele>
        <time>2019-01-10T08:39:57Z</time>
      </trkpt>
      <trkpt lat="48.67899" lon="1.8048">
        <ele>183</ele>
        <time>2019-01-10T08:40:01Z</time>
      </trkpt>
      <trkpt lat="48.67904" lon="1.80488">
        <ele>183</ele>
        <time>2019-01-10T08:40:05Z</time>
      </trkpt>
      <trkpt lat="48.67909" lon="1.80498">
        <ele>183</ele>
        <time>2019-01-10T08:40:09Z</time>
      </trkpt>
      <trkpt lat="48.67914" lon="1.805">
        <ele>183</ele>
        <time>2019-01-10T08:40:13Z</time>
      </trkpt>
      <trkpt lat="48.67918" lon="1.80504">
        <ele>183</ele>
        <time>2019-01-10T08:40:19Z</time>
      </trkpt>
      <trkpt lat="48.67925" lon="1.80511">
        <ele>182</ele>
        <time>2019-01-10T08:40:21Z</time>
      </trkpt>
      <trkpt lat="48.67929" lon="1.80518">
        <ele>182</ele>
        <time>2019-01-10T08:40:25Z</time>
      </trkpt>
      <trkpt lat="48.67934" lon="1.80529">
        <ele>182</ele>
        <time>2019-01-10T08:40:29Z</time>
      </trkpt>
      <trkpt lat="48.67936" lon="1.80538">
        <ele>182</ele>
        <time>2019-01-10T08:40:33Z</time>
      </trkpt>
      <trkpt lat="48.67938" lon="1.80545">
        <ele>182</ele>
        <time>2019-01-10T08:40:37Z</time>
      </trkpt>
      <trkpt lat="48.67941" lon="1.8055">
        <ele>182</ele>
        <time>2019-01-10T08:40:43Z</time>
      </trkpt>
      <trkpt lat="48.67939" lon="1.80557">
        <ele>182</ele>
        <time>2019-01-10T08:40:57Z</time>
      </trkpt>
      <trkpt lat="48.67945" lon="1.8056">
        <ele>182</ele>
        <time>2019-01-10T08:41:49Z</time>
      </trkpt>
      <trkpt lat="48.67951" lon="1.80558">
        <ele>182</ele>
        <time>2019-01-10T08:41:55Z</time>
      </trkpt>
      <trkpt lat="48.67955" lon="1.80554">
        <ele>182</ele>
        <time>2019-01-10T08:41:59Z</time>
      </trkpt>
      <trkpt lat="48.67959" lon="1.80553">
        <ele>182</ele>
        <time>2019-01-10T08:42:03Z</time>
      </trkpt>
      <trkpt lat="48.67964" lon="1.80552">
        <ele>182</ele>
        <time>2019-01-10T08:42:07Z</time>
      </trkpt>
      <trkpt lat="48.67969" lon="1.80549">
        <ele>182</ele>
        <time>2019-01-10T08:42:13Z</time>
      </trkpt>
      <trkpt lat="48.67973" lon="1.80547">
        <ele>182</ele>
        <time>2019-01-10T08:42:17Z</time>
      </trkpt>
      <trkpt lat="48.67977" lon="1.80544">
        <ele>182</ele>
        <time>2019-01-10T08:42:21Z</time>
      </trkpt>
      <trkpt lat="48.67983" lon="1.80543">
        <ele>182</ele>
        <time>2019-01-10T08:42:25Z</time>
      </trkpt>
      <trkpt lat="48.67989" lon="1.80544">
        <ele>181</ele>
        <time>2019-01-10T08:42:29Z</time>
      </trkpt>
      <trkpt lat="48.67997" lon="1.80541">
        <ele>181</ele>
        <time>2019-01-10T08:42:33Z</time>
      </trkpt>
      <trkpt lat="48.68003" lon="1.80541">
        <ele>181</ele>
        <time>2019-01-10T08:42:37Z</time>
      </trkpt>
      <trkpt lat="48.68008" lon="1.8054">
        <ele>181</ele>
        <time>2019-01-10T08:42:41Z</time>
      </trkpt>
      <trkpt lat="48.68013" lon="1.80536">
        <ele>181</ele>
        <time>2019-01-10T08:42:45Z</time>
      </trkpt>
      <trkpt lat="48.68018" lon="1.80533">
        <ele>181</ele>
        <time>2019-01-10T08:42:49Z</time>
      </trkpt>
      <trkpt lat="48.68024" lon="1.8053">
        <ele>181</ele>
        <time>2019-01-10T08:42:55Z</time>
      </trkpt>
      <trkpt lat="48.68031" lon="1.80525">
        <ele>181</ele>
        <time>2019-01-10T08:42:59Z</time>
      </trkpt>
      <trkpt lat="48.68037" lon="1.80522">
        <ele>181</ele>
        <time>2019-01-10T08:43:03Z</time>
      </trkpt>
      <trkpt lat="48.68043" lon="1.80517">
        <ele>181</ele>
        <time>2019-01-10T08:43:07Z</time>
      </trkpt>
      <trkpt lat="48.68049" lon="1.80517">
        <ele>181</ele>
        <time>2019-01-10T08:43:11Z</time>
      </trkpt>
      <trkpt lat="48.68054" lon="1.80513">
        <ele>181</ele>
        <time>2019-01-10T08:43:15Z</time>
      </trkpt>
      <trkpt lat="48.6806" lon="1.80512">
        <ele>181</ele>
        <time>2019-01-10T08:43:19Z</time>
      </trkpt>
      <trkpt lat="48.68068" lon="1.8051">
        <ele>181</ele>
        <time>2019-01-10T08:43:23Z</time>
      </trkpt>
      <trkpt lat="48.68074" lon="1.80508">
        <ele>181</ele>
        <time>2019-01-10T08:43:27Z</time>
      </trkpt>
      <trkpt lat="48.6808" lon="1.80503">
        <ele>181</ele>
        <time>2019-01-10T08:43:31Z</time>
      </trkpt>
      <trkpt lat="48.68086" lon="1.80502">
        <ele>181</ele>
        <time>2019-01-10T08:43:35Z</time>
      </trkpt>
      <trkpt lat="48.68091" lon="1.805">
        <ele>181</ele>
        <time>2019-01-10T08:43:39Z</time>
      </trkpt>
      <trkpt lat="48.68098" lon="1.80495">
        <ele>181</ele>
        <time>2019-01-10T08:43:43Z</time>
      </trkpt>
      <trkpt lat="48.68102" lon="1.80494">
        <ele>180</ele>
        <time>2019-01-10T08:43:47Z</time>
      </trkpt>
      <trkpt lat="48.68108" lon="1.80494">
        <ele>180</ele>
        <time>2019-01-10T08:43:51Z</time>
      </trkpt>
      <trkpt lat="48.68114" lon="1.80489">
        <ele>180</ele>
        <time>2019-01-10T08:43:55Z</time>
      </trkpt>
      <trkpt lat="48.68121" lon="1.80486">
        <ele>180</ele>
        <time>2019-01-10T08:43:59Z</time>
      </trkpt>
      <trkpt lat="48.68127" lon="1.80484">
        <ele>180</ele>
        <time>2019-01-10T08:44:03Z</time>
      </trkpt>
      <trkpt lat="48.68133" lon="1.80481">
        <ele>180</ele>
        <time>2019-01-10T08:44:07Z</time>
      </trkpt>
      <trkpt lat="48.6814" lon="1.8048">
        <ele>180</ele>
        <time>2019-01-10T08:44:11Z</time>
      </trkpt>
      <trkpt lat="48.68144" lon="1.80476">
        <ele>180</ele>
        <time>2019-01-10T08:44:13Z</time>
      </trkpt>
      <trkpt lat="48.68151" lon="1.80473">
        <ele>180</ele>
        <time>2019-01-10T08:44:17Z</time>
      </trkpt>
      <trkpt lat="48.68155" lon="1.80474">
        <ele>180</ele>
        <time>2019-01-10T08:44:21Z</time>
      </trkpt>
      <trkpt lat="48.6816" lon="1.80472">
        <ele>180</ele>
        <time>2019-01-10T08:44:25Z</time>
      </trkpt>
      <trkpt lat="48.68165" lon="1.80469">
        <ele>180</ele>
        <time>2019-01-10T08:44:29Z</time>
      </trkpt>
      <trkpt lat="48.6817" lon="1.80465">
        <ele>180</ele>
        <time>2019-01-10T08:44:33Z</time>
      </trkpt>
      <trkpt lat="48.68175" lon="1.80463">
        <ele>180</ele>
        <time>2019-01-10T08:44:37Z</time>
      </trkpt>
      <trkpt lat="48.68182" lon="1.80461">
        <ele>180</ele>
        <time>2019-01-10T08:44:41Z</time>
      </trkpt>
      <trkpt lat="48.68187" lon="1.80455">
        <ele>180</ele>
        <time>2019-01-10T08:44:45Z</time>
      </trkpt>
      <trkpt lat="48.68193" lon="1.8045">
        <ele>181</ele>
        <time>2019-01-10T08:44:49Z</time>
      </trkpt>
      <trkpt lat="48.68198" lon="1.80449">
        <ele>181</ele>
        <time>2019-01-10T08:44:53Z</time>
      </trkpt>
      <trkpt lat="48.68203" lon="1.80446">
        <ele>181</ele>
        <time>2019-01-10T08:44:57Z</time>
      </trkpt>
      <trkpt lat="48.68209" lon="1.80444">
        <ele>181</ele>
        <time>2019-01-10T08:45:01Z</time>
      </trkpt>
      <trkpt lat="48.68214" lon="1.8044">
        <ele>181</ele>
        <time>2019-01-10T08:45:05Z</time>
      </trkpt>
      <trkpt lat="48.68221" lon="1.80436">
        <ele>181</ele>
        <time>2019-01-10T08:45:09Z</time>
      </trkpt>
      <trkpt lat="48.68228" lon="1.80434">
        <ele>182</ele>
        <time>2019-01-10T08:45:15Z</time>
      </trkpt>
      <trkpt lat="48.68233" lon="1.80429">
        <ele>182</ele>
        <time>2019-01-10T08:45:19Z</time>
      </trkpt>
      <trkpt lat="48.68238" lon="1.80426">
        <ele>182</ele>
        <time>2019-01-10T08:45:23Z</time>
      </trkpt>
      <trkpt lat="48.68246" lon="1.80425">
        <ele>183</ele>
        <time>2019-01-10T08:45:31Z</time>
      </trkpt>
      <trkpt lat="48.6825" lon="1.80424">
        <ele>184</ele>
        <time>2019-01-10T08:45:33Z</time>
      </trkpt>
      <trkpt lat="48.68256" lon="1.80422">
        <ele>184</ele>
        <time>2019-01-10T08:45:37Z</time>
      </trkpt>
      <trkpt lat="48.68261" lon="1.8042">
        <ele>184</ele>
        <time>2019-01-10T08:45:41Z</time>
      </trkpt>
      <trkpt lat="48.68266" lon="1.8042">
        <ele>184</ele>
        <time>2019-01-10T08:45:43Z</time>
      </trkpt>
      <trkpt lat="48.68271" lon="1.8042">
        <ele>184</ele>
        <time>2019-01-10T08:45:47Z</time>
      </trkpt>
      <trkpt lat="48.68277" lon="1.80418">
        <ele>184</ele>
        <time>2019-01-10T08:45:51Z</time>
      </trkpt>
      <trkpt lat="48.68281" lon="1.80417">
        <ele>184</ele>
        <time>2019-01-10T08:45:55Z</time>
      </trkpt>
      <trkpt lat="48.68286" lon="1.80411">
        <ele>185</ele>
        <time>2019-01-10T08:46:01Z</time>
      </trkpt>
      <trkpt lat="48.6829" lon="1.80405">
        <ele>185</ele>
        <time>2019-01-10T08:46:07Z</time>
      </trkpt>
      <trkpt lat="48.68296" lon="1.80403">
        <ele>185</ele>
        <time>2019-01-10T08:46:11Z</time>
      </trkpt>
      <trkpt lat="48.68301" lon="1.804">
        <ele>185</ele>
        <time>2019-01-10T08:46:15Z</time>
      </trkpt>
      <trkpt lat="48.68308" lon="1.80399">
        <ele>185</ele>
        <time>2019-01-10T08:46:19Z</time>
      </trkpt>
      <trkpt lat="48.68316" lon="1.80397">
        <ele>186</ele>
        <time>2019-01-10T08:46:23Z</time>
      </trkpt>
      <trkpt lat="48.68321" lon="1.80394">
        <ele>186</ele>
        <time>2019-01-10T08:46:27Z</time>
      </trkpt>
      <trkpt lat="48.68328" lon="1.80394">
        <ele>186</ele>
        <time>2019-01-10T08:46:31Z</time>
      </trkpt>
      <trkpt lat="48.68335" lon="1.80393">
        <ele>186</ele>
        <time>2019-01-10T08:46:35Z</time>
      </trkpt>
      <trkpt lat="48.68341" lon="1.80389">
        <ele>187</ele>
        <time>2019-01-10T08:46:39Z</time>
      </trkpt>
      <trkpt lat="48.68346" lon="1.80384">
        <ele>187</ele>
        <time>2019-01-10T08:46:43Z</time>
      </trkpt>
      <trkpt lat="48.68352" lon="1.80379">
        <ele>187</ele>
        <time>2019-01-10T08:46:47Z</time>
      </trkpt>
      <trkpt lat="48.68358" lon="1.80376">
        <ele>187</ele>
        <time>2019-01-10T08:46:51Z</time>
      </trkpt>
      <trkpt lat="48.68363" lon="1.80371">
        <ele>187</ele>
        <time>2019-01-10T08:46:55Z</time>
      </trkpt>
      <trkpt lat="48.68371" lon="1.80367">
        <ele>187</ele>
        <time>2019-01-10T08:47:01Z</time>
      </trkpt>
      <trkpt lat="48.68377" lon="1.80365">
        <ele>187</ele>
        <time>2019-01-10T08:47:05Z</time>
      </trkpt>
      <trkpt lat="48.68386" lon="1.80364">
        <ele>187</ele>
        <time>2019-01-10T08:47:09Z</time>
      </trkpt>
      <trkpt lat="48.68394" lon="1.80362">
        <ele>187</ele>
        <time>2019-01-10T08:47:13Z</time>
      </trkpt>
      <trkpt lat="48.68399" lon="1.8036">
        <ele>187</ele>
        <time>2019-01-10T08:47:15Z</time>
      </trkpt>
      <trkpt lat="48.68403" lon="1.80357">
        <ele>187</ele>
        <time>2019-01-10T08:47:17Z</time>
      </trkpt>
      <trkpt lat="48.68411" lon="1.80352">
        <ele>187</ele>
        <time>2019-01-10T08:47:27Z</time>
      </trkpt>
      <trkpt lat="48.68417" lon="1.80348">
        <ele>187</ele>
        <time>2019-01-10T08:47:33Z</time>
      </trkpt>
      <trkpt lat="48.68423" lon="1.80346">
        <ele>187</ele>
        <time>2019-01-10T08:47:37Z</time>
      </trkpt>
      <trkpt lat="48.68428" lon="1.80344">
        <ele>187</ele>
        <time>2019-01-10T08:47:39Z</time>
      </trkpt>
      <trkpt lat="48.68435" lon="1.80345">
        <ele>187</ele>
        <time>2019-01-10T08:47:43Z</time>
      </trkpt>
      <trkpt lat="48.6844" lon="1.80342">
        <ele>187</ele>
        <time>2019-01-10T08:47:47Z</time>
      </trkpt>
      <trkpt lat="48.68446" lon="1.8034">
        <ele>187</ele>
        <time>2019-01-10T08:47:53Z</time>
      </trkpt>
      <trkpt lat="48.68452" lon="1.80339">
        <ele>187</ele>
        <time>2019-01-10T08:47:55Z</time>
      </trkpt>
      <trkpt lat="48.68457" lon="1.80337">
        <ele>187</ele>
        <time>2019-01-10T08:47:57Z</time>
      </trkpt>
      <trkpt lat="48.68465" lon="1.80334">
        <ele>187</ele>
        <time>2019-01-10T08:48:01Z</time>
      </trkpt>
      <trkpt lat="48.6847" lon="1.80328">
        <ele>187</ele>
        <time>2019-01-10T08:48:05Z</time>
      </trkpt>
      <trkpt lat="48.68476" lon="1.80324">
        <ele>187</ele>
        <time>2019-01-10T08:48:11Z</time>
      </trkpt>
      <trkpt lat="48.68482" lon="1.80322">
        <ele>187</ele>
        <time>2019-01-10T08:48:15Z</time>
      </trkpt>
      <trkpt lat="48.68489" lon="1.80319">
        <ele>187</ele>
        <time>2019-01-10T08:48:21Z</time>
      </trkpt>
      <trkpt lat="48.68496" lon="1.80312">
        <ele>187</ele>
        <time>2019-01-10T08:48:27Z</time>
      </trkpt>
      <trkpt lat="48.685" lon="1.8031">
        <ele>186</ele>
        <time>2019-01-10T08:48:29Z</time>
      </trkpt>
      <trkpt lat="48.68506" lon="1.80306">
        <ele>186</ele>
        <time>2019-01-10T08:48:35Z</time>
      </trkpt>
      <trkpt lat="48.68512" lon="1.80304">
        <ele>186</ele>
        <time>2019-01-10T08:48:39Z</time>
      </trkpt>
      <trkpt lat="48.68519" lon="1.80301">
        <ele>186</ele>
        <time>2019-01-10T08:48:43Z</time>
      </trkpt>
      <trkpt lat="48.68525" lon="1.80299">
        <ele>186</ele>
        <time>2019-01-10T08:48:47Z</time>
      </trkpt>
      <trkpt lat="48.68533" lon="1.80296">
        <ele>186</ele>
        <time>2019-01-10T08:48:51Z</time>
      </trkpt>
      <trkpt lat="48.68538" lon="1.80294">
        <ele>186</ele>
        <time>2019-01-10T08:48:55Z</time>
      </trkpt>
      <trkpt lat="48.68546" lon="1.80289">
        <ele>186</ele>
        <time>2019-01-10T08:49:01Z</time>
      </trkpt>
      <trkpt lat="48.68553" lon="1.80286">
        <ele>186</ele>
        <time>2019-01-10T08:49:05Z</time>
      </trkpt>
      <trkpt lat="48.68559" lon="1.80285">
        <ele>186</ele>
        <time>2019-01-10T08:49:09Z</time>
      </trkpt>
      <trkpt lat="48.68564" lon="1.80282">
        <ele>186</ele>
        <time>2019-01-10T08:49:13Z</time>
      </trkpt>
      <trkpt lat="48.68569" lon="1.80281">
        <ele>186</ele>
        <time>2019-01-10T08:49:17Z</time>
      </trkpt>
      <trkpt lat="48.68575" lon="1.80278">
        <ele>186</ele>
        <time>2019-01-10T08:49:23Z</time>
      </trkpt>
      <trkpt lat="48.6858" lon="1.80275">
        <ele>186</ele>
        <time>2019-01-10T08:49:29Z</time>
      </trkpt>
      <trkpt lat="48.68587" lon="1.80272">
        <ele>186</ele>
        <time>2019-01-10T08:49:35Z</time>
      </trkpt>
      <trkpt lat="48.68591" lon="1.8027">
        <ele>186</ele>
        <time>2019-01-10T08:49:43Z</time>
      </trkpt>
      <trkpt lat="48.68592" lon="1.80263">
        <ele>186</ele>
        <time>2019-01-10T08:50:05Z</time>
      </trkpt>
      <trkpt lat="48.68597" lon="1.80261">
        <ele>186</ele>
        <time>2019-01-10T08:50:19Z</time>
      </trkpt>
      <trkpt lat="48.68601" lon="1.80252">
        <ele>186</ele>
        <time>2019-01-10T08:50:25Z</time>
      </trkpt>
      <trkpt lat="48.68606" lon="1.80245">
        <ele>186</ele>
        <time>2019-01-10T08:50:29Z</time>
      </trkpt>
      <trkpt lat="48.68609" lon="1.80237">
        <ele>186</ele>
        <time>2019-01-10T08:50:33Z</time>
      </trkpt>
      <trkpt lat="48.68612" lon="1.80227">
        <ele>187</ele>
        <time>2019-01-10T08:50:39Z</time>
      </trkpt>
      <trkpt lat="48.68613" lon="1.80219">
        <ele>187</ele>
        <time>2019-01-10T08:50:43Z</time>
      </trkpt>
      <trkpt lat="48.68614" lon="1.80212">
        <ele>187</ele>
        <time>2019-01-10T08:50:45Z</time>
      </trkpt>
      <trkpt lat="48.68618" lon="1.80207">
        <ele>187</ele>
        <time>2019-01-10T08:50:51Z</time>
      </trkpt>
      <trkpt lat="48.68618" lon="1.80197">
        <ele>187</ele>
        <time>2019-01-10T08:50:55Z</time>
      </trkpt>
      <trkpt lat="48.68618" lon="1.80187">
        <ele>187</ele>
        <time>2019-01-10T08:50:59Z</time>
      </trkpt>
      <trkpt lat="48.68621" lon="1.80177">
        <ele>187</ele>
        <time>2019-01-10T08:51:03Z</time>
      </trkpt>
      <trkpt lat="48.6862" lon="1.80165">
        <ele>188</ele>
        <time>2019-01-10T08:51:07Z</time>
      </trkpt>
      <trkpt lat="48.68621" lon="1.80156">
        <ele>188</ele>
        <time>2019-01-10T08:51:11Z</time>
      </trkpt>
      <trkpt lat="48.68625" lon="1.80147">
        <ele>188</ele>
        <time>2019-01-10T08:51:15Z</time>
      </trkpt>
      <trkpt lat="48.68626" lon="1.80138">
        <ele>188</ele>
        <time>2019-01-10T08:51:19Z</time>
      </trkpt>
      <trkpt lat="48.68627" lon="1.80129">
        <ele>188</ele>
        <time>2019-01-10T08:51:23Z</time>
      </trkpt>
      <trkpt lat="48.68629" lon="1.80119">
        <ele>188</ele>
        <time>2019-01-10T08:51:27Z</time>
      </trkpt>
      <trkpt lat="48.68627" lon="1.80107">
        <ele>188</ele>
        <time>2019-01-10T08:51:31Z</time>
      </trkpt>
      <trkpt lat="48.68627" lon="1.80096">
        <ele>188</ele>
        <time>2019-01-10T08:51:35Z</time>
      </trkpt>
      <trkpt lat="48.68626" lon="1.80085">
        <ele>188</ele>
        <time>2019-01-10T08:51:39Z</time>
      </trkpt>
      <trkpt lat="48.68627" lon="1.80074">
        <ele>188</ele>
        <time>2019-01-10T08:51:43Z</time>
      </trkpt>
      <trkpt lat="48.68628" lon="1.80061">
        <ele>188</ele>
        <time>2019-01-10T08:51:47Z</time>
      </trkpt>
      <trkpt lat="48.6863" lon="1.80053">
        <ele>188</ele>
        <time>2019-01-10T08:51:51Z</time>
      </trkpt>
      <trkpt lat="48.6863" lon="1.80042">
        <ele>188</ele>
        <time>2019-01-10T08:51:55Z</time>
      </trkpt>
      <trkpt lat="48.6863" lon="1.80034">
        <ele>188</ele>
        <time>2019-01-10T08:51:59Z</time>
      </trkpt>
      <trkpt lat="48.68628" lon="1.80025">
        <ele>188</ele>
        <time>2019-01-10T08:52:03Z</time>
      </trkpt>
      <trkpt lat="48.6863" lon="1.80015">
        <ele>188</ele>
        <time>2019-01-10T08:52:07Z</time>
      </trkpt>
      <trkpt lat="48.68629" lon="1.80006">
        <ele>188</ele>
        <time>2019-01-10T08:52:11Z</time>
      </trkpt>
      <trkpt lat="48.68631" lon="1.79995">
        <ele>187</ele>
        <time>2019-01-10T08:52:15Z</time>
      </trkpt>
      <trkpt lat="48.68633" lon="1.79985">
        <ele>187</ele>
        <time>2019-01-10T08:52:19Z</time>
      </trkpt>
      <trkpt lat="48.68633" lon="1.79976">
        <ele>187</ele>
        <time>2019-01-10T08:52:23Z</time>
      </trkpt>
      <trkpt lat="48.68636" lon="1.79968">
        <ele>187</ele>
        <time>2019-01-10T08:52:27Z</time>
      </trkpt>
      <trkpt lat="48.68636" lon="1.79958">
        <ele>187</ele>
        <time>2019-01-10T08:52:31Z</time>
      </trkpt>
      <trkpt lat="48.68636" lon="1.79947">
        <ele>187</ele>
        <time>2019-01-10T08:52:35Z</time>
      </trkpt>
      <trkpt lat="48.68637" lon="1.79935">
        <ele>187</ele>
        <time>2019-01-10T08:52:39Z</time>
      </trkpt>
      <trkpt lat="48.68637" lon="1.79923">
        <ele>186</ele>
        <time>2019-01-10T08:52:43Z</time>
      </trkpt>
      <trkpt lat="48.68636" lon="1.79914">
        <ele>186</ele>
        <time>2019-01-10T08:52:47Z</time>
      </trkpt>
      <trkpt lat="48.68636" lon="1.79904">
        <ele>186</ele>
        <time>2019-01-10T08:52:51Z</time>
      </trkpt>
      <trkpt lat="48.68637" lon="1.79896">
        <ele>186</ele>
        <time>2019-01-10T08:52:55Z</time>
      </trkpt>
      <trkpt lat="48.6864" lon="1.79888">
        <ele>186</ele>
        <time>2019-01-10T08:52:59Z</time>
      </trkpt>
      <trkpt lat="48.68642" lon="1.79877">
        <ele>186</ele>
        <time>2019-01-10T08:53:03Z</time>
      </trkpt>
      <trkpt lat="48.68644" lon="1.79869">
        <ele>186</ele>
        <time>2019-01-10T08:53:09Z</time>
      </trkpt>
      <trkpt lat="48.68644" lon="1.79862">
        <ele>186</ele>
        <time>2019-01-10T08:53:13Z</time>
      </trkpt>
      <trkpt lat="48.68646" lon="1.79852">
        <ele>186</ele>
        <time>2019-01-10T08:53:19Z</time>
      </trkpt>
      <trkpt lat="48.68649" lon="1.79846">
        <ele>186</ele>
        <time>2019-01-10T08:53:23Z</time>
      </trkpt>
      <trkpt lat="48.68651" lon="1.79834">
        <ele>186</ele>
        <time>2019-01-10T08:53:29Z</time>
      </trkpt>
      <trkpt lat="48.68652" lon="1.79822">
        <ele>187</ele>
        <time>2019-01-10T08:53:35Z</time>
      </trkpt>
      <trkpt lat="48.68652" lon="1.79811">
        <ele>187</ele>
        <time>2019-01-10T08:53:39Z</time>
      </trkpt>
      <trkpt lat="48.68652" lon="1.79803">
        <ele>187</ele>
        <time>2019-01-10T08:53:43Z</time>
      </trkpt>
      <trkpt lat="48.68653" lon="1.79792">
        <ele>187</ele>
        <time>2019-01-10T08:53:47Z</time>
      </trkpt>
      <trkpt lat="48.68654" lon="1.79781">
        <ele>188</ele>
        <time>2019-01-10T08:53:51Z</time>
      </trkpt>
      <trkpt lat="48.68654" lon="1.7977">
        <ele>188</ele>
        <time>2019-01-10T08:53:55Z</time>
      </trkpt>
      <trkpt lat="48.68654" lon="1.79759">
        <ele>188</ele>
        <time>2019-01-10T08:53:59Z</time>
      </trkpt>
      <trkpt lat="48.68655" lon="1.79749">
        <ele>189</ele>
        <time>2019-01-10T08:54:03Z</time>
      </trkpt>
      <trkpt lat="48.68656" lon="1.7974">
        <ele>189</ele>
        <time>2019-01-10T08:54:07Z</time>
      </trkpt>
      <trkpt lat="48.68658" lon="1.7973">
        <ele>189</ele>
        <time>2019-01-10T08:54:11Z</time>
      </trkpt>
      <trkpt lat="48.68658" lon="1.7972">
        <ele>189</ele>
        <time>2019-01-10T08:54:15Z</time>
      </trkpt>
      <trkpt lat="48.68657" lon="1.79709">
        <ele>189</ele>
        <time>2019-01-10T08:54:19Z</time>
      </trkpt>
      <trkpt lat="48.68658" lon="1.79699">
        <ele>189</ele>
        <time>2019-01-10T08:54:23Z</time>
      </trkpt>
      <trkpt lat="48.68659" lon="1.79692">
        <ele>189</ele>
        <time>2019-01-10T08:54:27Z</time>
      </trkpt>
      <trkpt lat="48.6866" lon="1.79683">
        <ele>189</ele>
        <time>2019-01-10T08:54:31Z</time>
      </trkpt>
      <trkpt lat="48.6866" lon="1.79676">
        <ele>190</ele>
        <time>2019-01-10T08:54:33Z</time>
      </trkpt>
      <trkpt lat="48.68661" lon="1.79667">
        <ele>190</ele>
        <time>2019-01-10T08:54:37Z</time>
      </trkpt>
      <trkpt lat="48.68662" lon="1.79659">
        <ele>190</ele>
        <time>2019-01-10T08:54:41Z</time>
      </trkpt>
      <trkpt lat="48.68663" lon="1.7965">
        <ele>189</ele>
        <time>2019-01-10T08:54:45Z</time>
      </trkpt>
      <trkpt lat="48.68664" lon="1.7964">
        <ele>189</ele>
        <time>2019-01-10T08:54:49Z</time>
      </trkpt>
      <trkpt lat="48.68665" lon="1.79628">
        <ele>189</ele>
        <time>2019-01-10T08:54:53Z</time>
      </trkpt>
      <trkpt lat="48.68667" lon="1.7962">
        <ele>189</ele>
        <time>2019-01-10T08:54:57Z</time>
      </trkpt>
      <trkpt lat="48.68667" lon="1.79608">
        <ele>189</ele>
        <time>2019-01-10T08:55:01Z</time>
      </trkpt>
      <trkpt lat="48.68669" lon="1.796">
        <ele>189</ele>
        <time>2019-01-10T08:55:05Z</time>
      </trkpt>
      <trkpt lat="48.68669" lon="1.79588">
        <ele>189</ele>
        <time>2019-01-10T08:55:09Z</time>
      </trkpt>
      <trkpt lat="48.68671" lon="1.79578">
        <ele>189</ele>
        <time>2019-01-10T08:55:13Z</time>
      </trkpt>
      <trkpt lat="48.6867" lon="1.79571">
        <ele>189</ele>
        <time>2019-01-10T08:55:15Z</time>
      </trkpt>
      <trkpt lat="48.68672" lon="1.7956">
        <ele>189</ele>
        <time>2019-01-10T08:55:19Z</time>
      </trkpt>
      <trkpt lat="48.68674" lon="1.79553">
        <ele>189</ele>
        <time>2019-01-10T08:55:23Z</time>
      </trkpt>
      <trkpt lat="48.68675" lon="1.79543">
        <ele>189</ele>
        <time>2019-01-10T08:55:27Z</time>
      </trkpt>
      <trkpt lat="48.68676" lon="1.79533">
        <ele>188</ele>
        <time>2019-01-10T08:55:31Z</time>
      </trkpt>
      <trkpt lat="48.68677" lon="1.79524">
        <ele>188</ele>
        <time>2019-01-10T08:55:35Z</time>
      </trkpt>
      <trkpt lat="48.68678" lon="1.79516">
        <ele>188</ele>
        <time>2019-01-10T08:55:39Z</time>
      </trkpt>
      <trkpt lat="48.6868" lon="1.79508">
        <ele>188</ele>
        <time>2019-01-10T08:55:43Z</time>
      </trkpt>
      <trkpt lat="48.68681" lon="1.79498">
        <ele>187</ele>
        <time>2019-01-10T08:55:47Z</time>
      </trkpt>
      <trkpt lat="48.68682" lon="1.79488">
        <ele>187</ele>
        <time>2019-01-10T08:55:51Z</time>
      </trkpt>
      <trkpt lat="48.68683" lon="1.79476">
        <ele>187</ele>
        <time>2019-01-10T08:55:55Z</time>
      </trkpt>
      <trkpt lat="48.68684" lon="1.79468">
        <ele>187</ele>
        <time>2019-01-10T08:55:59Z</time>
      </trkpt>
      <trkpt lat="48.68686" lon="1.79461">
        <ele>187</ele>
        <time>2019-01-10T08:56:05Z</time>
      </trkpt>
      <trkpt lat="48.68685" lon="1.79452">
        <ele>187</ele>
        <time>2019-01-10T08:56:11Z</time>
      </trkpt>
      <trkpt lat="48.68685" lon="1.79445">
        <ele>187</ele>
        <time>2019-01-10T08:56:15Z</time>
      </trkpt>
      <trkpt lat="48.68687" lon="1.79435">
        <ele>187</ele>
        <time>2019-01-10T08:56:21Z</time>
      </trkpt>
      <trkpt lat="48.68689" lon="1.79428">
        <ele>187</ele>
        <time>2019-01-10T08:56:27Z</time>
      </trkpt>
      <trkpt lat="48.68691" lon="1.79421">
        <ele>187</ele>
        <time>2019-01-10T08:56:39Z</time>
      </trkpt>
      <trkpt lat="48.68692" lon="1.79413">
        <ele>187</ele>
        <time>2019-01-10T08:56:49Z</time>
      </trkpt>
      <trkpt lat="48.6869" lon="1.79405">
        <ele>187</ele>
        <time>2019-01-10T08:57:01Z</time>
      </trkpt>
      <trkpt lat="48.68692" lon="1.79398">
        <ele>187</ele>
        <time>2019-01-10T08:59:47Z</time>
      </trkpt>
      <trkpt lat="48.68698" lon="1.79401">
        <ele>187</ele>
        <time>2019-01-10T08:59:53Z</time>
      </trkpt>
      <trkpt lat="48.68705" lon="1.79404">
        <ele>187</ele>
        <time>2019-01-10T08:59:59Z</time>
      </trkpt>
      <trkpt lat="48.68711" lon="1.79406">
        <ele>187</ele>
        <time>2019-01-10T09:00:03Z</time>
      </trkpt>
      <trkpt lat="48.68716" lon="1.79409">
        <ele>187</ele>
        <time>2019-01-10T09:00:09Z</time>
      </trkpt>
      <trkpt lat="48.6872" lon="1.79411">
        <ele>187</ele>
        <time>2019-01-10T09:00:15Z</time>
      </trkpt>
      <trkpt lat="48.68724" lon="1.79417">
        <ele>187</ele>
        <time>2019-01-10T09:00:21Z</time>
      </trkpt>
      <trkpt lat="48.68729" lon="1.7942">
        <ele>187</ele>
        <time>2019-01-10T09:00:27Z</time>
      </trkpt>
      <trkpt lat="48.68735" lon="1.79425">
        <ele>187</ele>
        <time>2019-01-10T09:00:33Z</time>
      </trkpt>
      <trkpt lat="48.68739" lon="1.79431">
        <ele>187</ele>
        <time>2019-01-10T09:00:37Z</time>
      </trkpt>
      <trkpt lat="48.68743" lon="1.79436">
        <ele>187</ele>
        <time>2019-01-10T09:00:41Z</time>
      </trkpt>
      <trkpt lat="48.68747" lon="1.79438">
        <ele>187</ele>
        <time>2019-01-10T09:00:45Z</time>
      </trkpt>
      <trkpt lat="48.68753" lon="1.79442">
        <ele>189</ele>
        <time>2019-01-10T09:00:53Z</time>
      </trkpt>
      <trkpt lat="48.6876" lon="1.79446">
        <ele>189</ele>
        <time>2019-01-10T09:00:57Z</time>
      </trkpt>
      <trkpt lat="48.68764" lon="1.79451">
        <ele>189</ele>
        <time>2019-01-10T09:01:03Z</time>
      </trkpt>
      <trkpt lat="48.6877" lon="1.79453">
        <ele>189</ele>
        <time>2019-01-10T09:01:07Z</time>
      </trkpt>
      <trkpt lat="48.68775" lon="1.79457">
        <ele>189</ele>
        <time>2019-01-10T09:01:11Z</time>
      </trkpt>
      <trkpt lat="48.6878" lon="1.79463">
        <ele>189</ele>
        <time>2019-01-10T09:01:15Z</time>
      </trkpt>
      <trkpt lat="48.68784" lon="1.79465">
        <ele>189</ele>
        <time>2019-01-10T09:01:19Z</time>
      </trkpt>
      <trkpt lat="48.6879" lon="1.7947">
        <ele>190</ele>
        <time>2019-01-10T09:01:23Z</time>
      </trkpt>
      <trkpt lat="48.68796" lon="1.79474">
        <ele>190</ele>
        <time>2019-01-10T09:01:27Z</time>
      </trkpt>
      <trkpt lat="48.688" lon="1.79479">
        <ele>190</ele>
        <time>2019-01-10T09:01:31Z</time>
      </trkpt>
      <trkpt lat="48.68804" lon="1.79482">
        <ele>190</ele>
        <time>2019-01-10T09:01:37Z</time>
      </trkpt>
      <trkpt lat="48.68809" lon="1.79485">
        <ele>190</ele>
        <time>2019-01-10T09:01:41Z</time>
      </trkpt>
      <trkpt lat="48.68814" lon="1.79488">
        <ele>190</ele>
        <time>2019-01-10T09:01:45Z</time>
      </trkpt>
      <trkpt lat="48.68817" lon="1.79493">
        <ele>190</ele>
        <time>2019-01-10T09:01:49Z</time>
      </trkpt>
      <trkpt lat="48.68822" lon="1.79495">
        <ele>190</ele>
        <time>2019-01-10T09:01:53Z</time>
      </trkpt>
      <trkpt lat="48.68826" lon="1.79498">
        <ele>191</ele>
        <time>2019-01-10T09:01:57Z</time>
      </trkpt>
      <trkpt lat="48.68832" lon="1.79505">
        <ele>191</ele>
        <time>2019-01-10T09:02:01Z</time>
      </trkpt>
      <trkpt lat="48.68838" lon="1.7951">
        <ele>191</ele>
        <time>2019-01-10T09:02:07Z</time>
      </trkpt>
      <trkpt lat="48.68841" lon="1.79516">
        <ele>191</ele>
        <time>2019-01-10T09:02:11Z</time>
      </trkpt>
      <trkpt lat="48.68846" lon="1.7952">
        <ele>191</ele>
        <time>2019-01-10T09:02:15Z</time>
      </trkpt>
      <trkpt lat="48.6885" lon="1.79523">
        <ele>191</ele>
        <time>2019-01-10T09:02:19Z</time>
      </trkpt>
      <trkpt lat="48.68855" lon="1.79528">
        <ele>191</ele>
        <time>2019-01-10T09:02:23Z</time>
      </trkpt>
      <trkpt lat="48.68862" lon="1.7953">
        <ele>191</ele>
        <time>2019-01-10T09:02:27Z</time>
      </trkpt>
      <trkpt lat="48.68868" lon="1.79535">
        <ele>191</ele>
        <time>2019-01-10T09:02:33Z</time>
      </trkpt>
      <trkpt lat="48.68873" lon="1.7954">
        <ele>191</ele>
        <time>2019-01-10T09:02:35Z</time>
      </trkpt>
      <trkpt lat="48.68878" lon="1.79543">
        <ele>191</ele>
        <time>2019-01-10T09:02:39Z</time>
      </trkpt>
      <trkpt lat="48.68884" lon="1.79546">
        <ele>191</ele>
        <time>2019-01-10T09:02:43Z</time>
      </trkpt>
      <trkpt lat="48.6889" lon="1.79549">
        <ele>191</ele>
        <time>2019-01-10T09:02:47Z</time>
      </trkpt>
      <trkpt lat="48.68898" lon="1.79551">
        <ele>191</ele>
        <time>2019-01-10T09:02:51Z</time>
      </trkpt>
      <trkpt lat="48.68902" lon="1.79554">
        <ele>191</ele>
        <time>2019-01-10T09:02:55Z</time>
      </trkpt>
      <trkpt lat="48.68906" lon="1.79557">
        <ele>191</ele>
        <time>2019-01-10T09:02:59Z</time>
      </trkpt>
      <trkpt lat="48.68912" lon="1.7956">
        <ele>191</ele>
        <time>2019-01-10T09:03:05Z</time>
      </trkpt>
      <trkpt lat="48.68917" lon="1.79563">
        <ele>192</ele>
        <time>2019-01-10T09:03:09Z</time>
      </trkpt>
      <trkpt lat="48.68922" lon="1.79568">
        <ele>192</ele>
        <time>2019-01-10T09:03:15Z</time>
      </trkpt>
      <trkpt lat="48.68925" lon="1.79574">
        <ele>191</ele>
        <time>2019-01-10T09:03:21Z</time>
      </trkpt>
      <trkpt lat="48.68931" lon="1.7958">
        <ele>191</ele>
        <time>2019-01-10T09:03:25Z</time>
      </trkpt>
      <trkpt lat="48.68936" lon="1.79587">
        <ele>191</ele>
        <time>2019-01-10T09:03:31Z</time>
      </trkpt>
      <trkpt lat="48.68939" lon="1.79595">
        <ele>191</ele>
        <time>2019-01-10T09:03:37Z</time>
      </trkpt>
      <trkpt lat="48.6894" lon="1.79606">
        <ele>191</ele>
        <time>2019-01-10T09:03:43Z</time>
      </trkpt>
      <trkpt lat="48.68942" lon="1.79614">
        <ele>191</ele>
        <time>2019-01-10T09:03:47Z</time>
      </trkpt>
      <trkpt lat="48.68942" lon="1.79621">
        <ele>191</ele>
        <time>2019-01-10T09:03:51Z</time>
      </trkpt>
      <trkpt lat="48.68942" lon="1.7963">
        <ele>191</ele>
        <time>2019-01-10T09:03:55Z</time>
      </trkpt>
      <trkpt lat="48.68942" lon="1.79638">
        <ele>191</ele>
        <time>2019-01-10T09:03:59Z</time>
      </trkpt>
      <trkpt lat="48.68941" lon="1.79646">
        <ele>191</ele>
        <time>2019-01-10T09:04:03Z</time>
      </trkpt>
      <trkpt lat="48.6894" lon="1.79654">
        <ele>191</ele>
        <time>2019-01-10T09:04:07Z</time>
      </trkpt>
      <trkpt lat="48.68938" lon="1.79661">
        <ele>191</ele>
        <time>2019-01-10T09:04:11Z</time>
      </trkpt>
      <trkpt lat="48.68938" lon="1.7967">
        <ele>191</ele>
        <time>2019-01-10T09:04:15Z</time>
      </trkpt>
      <trkpt lat="48.68936" lon="1.7968">
        <ele>191</ele>
        <time>2019-01-10T09:04:19Z</time>
      </trkpt>
      <trkpt lat="48.68936" lon="1.7969">
        <ele>191</ele>
        <time>2019-01-10T09:04:23Z</time>
      </trkpt>
      <trkpt lat="48.68936" lon="1.79698">
        <ele>191</ele>
        <time>2019-01-10T09:04:27Z</time>
      </trkpt>
      <trkpt lat="48.68937" lon="1.79707">
        <ele>191</ele>
        <time>2019-01-10T09:04:33Z</time>
      </trkpt>
      <trkpt lat="48.68934" lon="1.79717">
        <ele>191</ele>
        <time>2019-01-10T09:04:37Z</time>
      </trkpt>
      <trkpt lat="48.68935" lon="1.79726">
        <ele>191</ele>
        <time>2019-01-10T09:04:43Z</time>
      </trkpt>
      <trkpt lat="48.68934" lon="1.79734">
        <ele>191</ele>
        <time>2019-01-10T09:04:47Z</time>
      </trkpt>
      <trkpt lat="48.68932" lon="1.79745">
        <ele>191</ele>
        <time>2019-01-10T09:04:53Z</time>
      </trkpt>
      <trkpt lat="48.68931" lon="1.79752">
        <ele>191</ele>
        <time>2019-01-10T09:04:57Z</time>
      </trkpt>
      <trkpt lat="48.68931" lon="1.79759">
        <ele>191</ele>
        <time>2019-01-10T09:05:01Z</time>
      </trkpt>
      <trkpt lat="48.68931" lon="1.79766">
        <ele>191</ele>
        <time>2019-01-10T09:05:05Z</time>
      </trkpt>
      <trkpt lat="48.6893" lon="1.79776">
        <ele>191</ele>
        <time>2019-01-10T09:05:09Z</time>
      </trkpt>
      <trkpt lat="48.68928" lon="1.79784">
        <ele>191</ele>
        <time>2019-01-10T09:05:13Z</time>
      </trkpt>
      <trkpt lat="48.68928" lon="1.79793">
        <ele>192</ele>
        <time>2019-01-10T09:05:19Z</time>
      </trkpt>
      <trkpt lat="48.68926" lon="1.79803">
        <ele>192</ele>
        <time>2019-01-10T09:05:23Z</time>
      </trkpt>
      <trkpt lat="48.68924" lon="1.79814">
        <ele>192</ele>
        <time>2019-01-10T09:05:27Z</time>
      </trkpt>
      <trkpt lat="48.68925" lon="1.79821">
        <ele>192</ele>
        <time>2019-01-10T09:05:31Z</time>
      </trkpt>
      <trkpt lat="48.68925" lon="1.79831">
        <ele>192</ele>
        <time>2019-01-10T09:05:37Z</time>
      </trkpt>
      <trkpt lat="48.68924" lon="1.79839">
        <ele>192</ele>
        <time>2019-01-10T09:05:41Z</time>
      </trkpt>
      <trkpt lat="48.68923" lon="1.7985">
        <ele>192</ele>
        <time>2019-01-10T09:05:45Z</time>
      </trkpt>
      <trkpt lat="48.68922" lon="1.79858">
        <ele>192</ele>
        <time>2019-01-10T09:05:49Z</time>
      </trkpt>
      <trkpt lat="48.68921" lon="1.79866">
        <ele>192</ele>
        <time>2019-01-10T09:05:53Z</time>
      </trkpt>
      <trkpt lat="48.6892" lon="1.79873">
        <ele>192</ele>
        <time>2019-01-10T09:05:59Z</time>
      </trkpt>
      <trkpt lat="48.6892" lon="1.79882">
        <ele>191</ele>
        <time>2019-01-10T09:06:03Z</time>
      </trkpt>
      <trkpt lat="48.68921" lon="1.79893">
        <ele>191</ele>
        <time>2019-01-10T09:06:07Z</time>
      </trkpt>
      <trkpt lat="48.6892" lon="1.799">
        <ele>191</ele>
        <time>2019-01-10T09:06:11Z</time>
      </trkpt>
      <trkpt lat="48.68921" lon="1.79907">
        <ele>191</ele>
        <time>2019-01-10T09:06:15Z</time>
      </trkpt>
      <trkpt lat="48.68922" lon="1.79914">
        <ele>191</ele>
        <time>2019-01-10T09:06:19Z</time>
      </trkpt>
      <trkpt lat="48.68921" lon="1.79922">
        <ele>191</ele>
        <time>2019-01-10T09:06:27Z</time>
      </trkpt>
      <trkpt lat="48.6892" lon="1.79929">
        <ele>191</ele>
        <time>2019-01-10T09:06:33Z</time>
      </trkpt>
      <trkpt lat="48.68921" lon="1.79938">
        <ele>191</ele>
        <time>2019-01-10T09:06:39Z</time>
      </trkpt>
      <trkpt lat="48.6892" lon="1.79946">
        <ele>191</ele>
        <time>2019-01-10T09:06:43Z</time>
      </trkpt>
      <trkpt lat="48.68921" lon="1.79954">
        <ele>191</ele>
        <time>2019-01-10T09:06:49Z</time>
      </trkpt>
      <trkpt lat="48.68918" lon="1.79964">
        <ele>191</ele>
        <time>2019-01-10T09:06:55Z</time>
      </trkpt>
      <trkpt lat="48.68917" lon="1.79975">
        <ele>191</ele>
        <time>2019-01-10T09:06:59Z</time>
      </trkpt>
      <trkpt lat="48.68918" lon="1.79984">
        <ele>191</ele>
        <time>2019-01-10T09:07:05Z</time>
      </trkpt>
      <trkpt lat="48.68916" lon="1.79994">
        <ele>191</ele>
        <time>2019-01-10T09:07:13Z</time>
      </trkpt>
      <trkpt lat="48.68913" lon="1.80005">
        <ele>191</ele>
        <time>2019-01-10T09:07:19Z</time>
      </trkpt>
      <trkpt lat="48.68912" lon="1.80014">
        <ele>191</ele>
        <time>2019-01-10T09:07:23Z</time>
      </trkpt>
      <trkpt lat="48.68912" lon="1.80025">
        <ele>191</ele>
        <time>2019-01-10T09:07:27Z</time>
      </trkpt>
      <trkpt lat="48.68912" lon="1.80033">
        <ele>191</ele>
        <time>2019-01-10T09:07:31Z</time>
      </trkpt>
      <trkpt lat="48.68911" lon="1.80042">
        <ele>191</ele>
        <time>2019-01-10T09:07:35Z</time>
      </trkpt>
      <trkpt lat="48.68912" lon="1.80049">
        <ele>191</ele>
        <time>2019-01-10T09:07:39Z</time>
      </trkpt>
      <trkpt lat="48.68909" lon="1.8006">
        <ele>190</ele>
        <time>2019-01-10T09:07:45Z</time>
      </trkpt>
      <trkpt lat="48.68908" lon="1.80067">
        <ele>190</ele>
        <time>2019-01-10T09:07:49Z</time>
      </trkpt>
      <trkpt lat="48.68908" lon="1.80074">
        <ele>190</ele>
        <time>2019-01-10T09:07:53Z</time>
      </trkpt>
      <trkpt lat="48.68907" lon="1.80082">
        <ele>190</ele>
        <time>2019-01-10T09:07:57Z</time>
      </trkpt>
      <trkpt lat="48.68905" lon="1.80093">
        <ele>190</ele>
        <time>2019-01-10T09:08:01Z</time>
      </trkpt>
      <trkpt lat="48.68904" lon="1.80101">
        <ele>190</ele>
        <time>2019-01-10T09:08:07Z</time>
      </trkpt>
      <trkpt lat="48.68905" lon="1.80109">
        <ele>189</ele>
        <time>2019-01-10T09:08:13Z</time>
      </trkpt>
      <trkpt lat="48.68906" lon="1.80116">
        <ele>189</ele>
        <time>2019-01-10T09:08:19Z</time>
      </trkpt>
      <trkpt lat="48.68912" lon="1.80114">
        <ele>189</ele>
        <time>2019-01-10T09:08:25Z</time>
      </trkpt>
      <trkpt lat="48.68917" lon="1.80113">
        <ele>188</ele>
        <time>2019-01-10T09:08:31Z</time>
      </trkpt>
      <trkpt lat="48.68923" lon="1.80114">
        <ele>188</ele>
        <time>2019-01-10T09:08:35Z</time>
      </trkpt>
      <trkpt lat="48.68927" lon="1.80115">
        <ele>188</ele>
        <time>2019-01-10T09:08:39Z</time>
      </trkpt>
      <trkpt lat="48.68933" lon="1.80115">
        <ele>188</ele>
        <time>2019-01-10T09:08:43Z</time>
      </trkpt>
      <trkpt lat="48.68939" lon="1.80113">
        <ele>188</ele>
        <time>2019-01-10T09:08:49Z</time>
      </trkpt>
      <trkpt lat="48.68946" lon="1.8011">
        <ele>188</ele>
        <time>2019-01-10T09:08:53Z</time>
      </trkpt>
      <trkpt lat="48.68953" lon="1.80107">
        <ele>188</ele>
        <time>2019-01-10T09:08:57Z</time>
      </trkpt>
      <trkpt lat="48.68958" lon="1.80104">
        <ele>188</ele>
        <time>2019-01-10T09:09:01Z</time>
      </trkpt>
      <trkpt lat="48.68965" lon="1.80101">
        <ele>187</ele>
        <time>2019-01-10T09:09:05Z</time>
      </trkpt>
      <trkpt lat="48.6897" lon="1.80098">
        <ele>187</ele>
        <time>2019-01-10T09:09:09Z</time>
      </trkpt>
      <trkpt lat="48.68976" lon="1.80097">
        <ele>187</ele>
        <time>2019-01-10T09:09:15Z</time>
      </trkpt>
      <trkpt lat="48.68982" lon="1.80096">
        <ele>187</ele>
        <time>2019-01-10T09:09:19Z</time>
      </trkpt>
      <trkpt lat="48.68989" lon="1.80092">
        <ele>187</ele>
        <time>2019-01-10T09:09:23Z</time>
      </trkpt>
      <trkpt lat="48.68996" lon="1.80088">
        <ele>186</ele>
        <time>2019-01-10T09:09:27Z</time>
      </trkpt>
      <trkpt lat="48.69002" lon="1.80085">
        <ele>186</ele>
        <time>2019-01-10T09:09:31Z</time>
      </trkpt>
      <trkpt lat="48.69009" lon="1.80082">
        <ele>186</ele>
        <time>2019-01-10T09:09:35Z</time>
      </trkpt>
      <trkpt lat="48.69014" lon="1.80081">
        <ele>187</ele>
        <time>2019-01-10T09:09:39Z</time>
      </trkpt>
      <trkpt lat="48.6902" lon="1.8008">
        <ele>187</ele>
        <time>2019-01-10T09:09:43Z</time>
      </trkpt>
      <trkpt lat="48.69025" lon="1.80077">
        <ele>187</ele>
        <time>2019-01-10T09:09:47Z</time>
      </trkpt>
      <trkpt lat="48.69032" lon="1.80073">
        <ele>187</ele>
        <time>2019-01-10T09:09:53Z</time>
      </trkpt>
      <trkpt lat="48.69037" lon="1.8007">
        <ele>187</ele>
        <time>2019-01-10T09:09:57Z</time>
      </trkpt>
      <trkpt lat="48.69042" lon="1.80065">
        <ele>187</ele>
        <time>2019-01-10T09:10:01Z</time>
      </trkpt>
      <trkpt lat="48.69049" lon="1.80064">
        <ele>187</ele>
        <time>2019-01-10T09:10:07Z</time>
      </trkpt>
      <trkpt lat="48.69055" lon="1.80061">
        <ele>187</ele>
        <time>2019-01-10T09:10:11Z</time>
      </trkpt>
      <trkpt lat="48.6906" lon="1.80058">
        <ele>187</ele>
        <time>2019-01-10T09:10:15Z</time>
      </trkpt>
      <trkpt lat="48.69065" lon="1.80055">
        <ele>187</ele>
        <time>2019-01-10T09:10:19Z</time>
      </trkpt>
      <trkpt lat="48.69071" lon="1.80053">
        <ele>187</ele>
        <time>2019-01-10T09:10:23Z</time>
      </trkpt>
      <trkpt lat="48.69077" lon="1.80048">
        <ele>187</ele>
        <time>2019-01-10T09:10:27Z</time>
      </trkpt>
      <trkpt lat="48.69083" lon="1.80045">
        <ele>187</ele>
        <time>2019-01-10T09:10:31Z</time>
      </trkpt>
      <trkpt lat="48.6909" lon="1.80042">
        <ele>187</ele>
        <time>2019-01-10T09:10:35Z</time>
      </trkpt>
      <trkpt lat="48.69097" lon="1.8004">
        <ele>187</ele>
        <time>2019-01-10T09:10:39Z</time>
      </trkpt>
      <trkpt lat="48.69102" lon="1.80039">
        <ele>187</ele>
        <time>2019-01-10T09:10:43Z</time>
      </trkpt>
      <trkpt lat="48.69109" lon="1.80034">
        <ele>187</ele>
        <time>2019-01-10T09:10:47Z</time>
      </trkpt>
      <trkpt lat="48.69115" lon="1.80033">
        <ele>187</ele>
        <time>2019-01-10T09:10:51Z</time>
      </trkpt>
      <trkpt lat="48.6912" lon="1.8003">
        <ele>187</ele>
        <time>2019-01-10T09:10:55Z</time>
      </trkpt>
      <trkpt lat="48.69125" lon="1.80026">
        <ele>187</ele>
        <time>2019-01-10T09:10:59Z</time>
      </trkpt>
      <trkpt lat="48.6913" lon="1.80022">
        <ele>187</ele>
        <time>2019-01-10T09:11:03Z</time>
      </trkpt>
      <trkpt lat="48.69135" lon="1.80019">
        <ele>187</ele>
        <time>2019-01-10T09:11:07Z</time>
      </trkpt>
      <trkpt lat="48.6914" lon="1.80014">
        <ele>187</ele>
        <time>2019-01-10T09:11:11Z</time>
      </trkpt>
      <trkpt lat="48.69147" lon="1.80011">
        <ele>187</ele>
        <time>2019-01-10T09:11:15Z</time>
      </trkpt>
      <trkpt lat="48.69154" lon="1.80009">
        <ele>188</ele>
        <time>2019-01-10T09:11:19Z</time>
      </trkpt>
      <trkpt lat="48.69159" lon="1.80004">
        <ele>188</ele>
        <time>2019-01-10T09:11:23Z</time>
      </trkpt>
      <trkpt lat="48.69164" lon="1.8">
        <ele>188</ele>
        <time>2019-01-10T09:11:27Z</time>
      </trkpt>
      <trkpt lat="48.69171" lon="1.79998">
        <ele>188</ele>
        <time>2019-01-10T09:11:31Z</time>
      </trkpt>
      <trkpt lat="48.69179" lon="1.79995">
        <ele>187</ele>
        <time>2019-01-10T09:11:35Z</time>
      </trkpt>
      <trkpt lat="48.69186" lon="1.79993">
        <ele>187</ele>
        <time>2019-01-10T09:11:39Z</time>
      </trkpt>
      <trkpt lat="48.69192" lon="1.79988">
        <ele>186</ele>
        <time>2019-01-10T09:11:45Z</time>
      </trkpt>
      <trkpt lat="48.69199" lon="1.79987">
        <ele>186</ele>
        <time>2019-01-10T09:11:49Z</time>
      </trkpt>
      <trkpt lat="48.69204" lon="1.79984">
        <ele>186</ele>
        <time>2019-01-10T09:11:53Z</time>
      </trkpt>
      <trkpt lat="48.69211" lon="1.79982">
        <ele>185</ele>
        <time>2019-01-10T09:11:57Z</time>
      </trkpt>
      <trkpt lat="48.69217" lon="1.79983">
        <ele>185</ele>
        <time>2019-01-10T09:12:01Z</time>
      </trkpt>
      <trkpt lat="48.69224" lon="1.79979">
        <ele>185</ele>
        <time>2019-01-10T09:12:05Z</time>
      </trkpt>
      <trkpt lat="48.69228" lon="1.79976">
        <ele>185</ele>
        <time>2019-01-10T09:12:09Z</time>
      </trkpt>
      <trkpt lat="48.69234" lon="1.79971">
        <ele>185</ele>
        <time>2019-01-10T09:12:13Z</time>
      </trkpt>
      <trkpt lat="48.69241" lon="1.7997">
        <ele>184</ele>
        <time>2019-01-10T09:12:17Z</time>
      </trkpt>
      <trkpt lat="48.69248" lon="1.79968">
        <ele>184</ele>
        <time>2019-01-10T09:12:23Z</time>
      </trkpt>
      <trkpt lat="48.69253" lon="1.79965">
        <ele>181</ele>
        <time>2019-01-10T09:12:27Z</time>
      </trkpt>
      <trkpt lat="48.6926" lon="1.79962">
        <ele>181</ele>
        <time>2019-01-10T09:12:33Z</time>
      </trkpt>
      <trkpt lat="48.69267" lon="1.79957">
        <ele>181</ele>
        <time>2019-01-10T09:12:39Z</time>
      </trkpt>
      <trkpt lat="48.69273" lon="1.79955">
        <ele>181</ele>
        <time>2019-01-10T09:12:43Z</time>
      </trkpt>
      <trkpt lat="48.6928" lon="1.79953">
        <ele>181</ele>
        <time>2019-01-10T09:12:47Z</time>
      </trkpt>
      <trkpt lat="48.69285" lon="1.7995">
        <ele>181</ele>
        <time>2019-01-10T09:12:51Z</time>
      </trkpt>
      <trkpt lat="48.69291" lon="1.79944">
        <ele>181</ele>
        <time>2019-01-10T09:12:55Z</time>
      </trkpt>
      <trkpt lat="48.69298" lon="1.79941">
        <ele>181</ele>
        <time>2019-01-10T09:12:59Z</time>
      </trkpt>
      <trkpt lat="48.69306" lon="1.79938">
        <ele>181</ele>
        <time>2019-01-10T09:13:03Z</time>
      </trkpt>
      <trkpt lat="48.69311" lon="1.79936">
        <ele>181</ele>
        <time>2019-01-10T09:13:07Z</time>
      </trkpt>
      <trkpt lat="48.69316" lon="1.79934">
        <ele>181</ele>
        <time>2019-01-10T09:13:11Z</time>
      </trkpt>
      <trkpt lat="48.69325" lon="1.79932">
        <ele>181</ele>
        <time>2019-01-10T09:13:15Z</time>
      </trkpt>
      <trkpt lat="48.69332" lon="1.7993">
        <ele>181</ele>
        <time>2019-01-10T09:13:19Z</time>
      </trkpt>
      <trkpt lat="48.69338" lon="1.79928">
        <ele>181</ele>
        <time>2019-01-10T09:13:23Z</time>
      </trkpt>
      <trkpt lat="48.69343" lon="1.79925">
        <ele>181</ele>
        <time>2019-01-10T09:13:27Z</time>
      </trkpt>
      <trkpt lat="48.69349" lon="1.79919">
        <ele>181</ele>
        <time>2019-01-10T09:13:31Z</time>
      </trkpt>
      <trkpt lat="48.69355" lon="1.79915">
        <ele>183</ele>
        <time>2019-01-10T09:13:37Z</time>
      </trkpt>
      <trkpt lat="48.69361" lon="1.79912">
        <ele>184</ele>
        <time>2019-01-10T09:13:41Z</time>
      </trkpt>
      <trkpt lat="48.69364" lon="1.79907">
        <ele>184</ele>
        <time>2019-01-10T09:15:43Z</time>
      </trkpt>
      <trkpt lat="48.6936" lon="1.799">
        <ele>184</ele>
        <time>2019-01-10T09:16:55Z</time>
      </trkpt>
      <trkpt lat="48.69358" lon="1.79893">
        <ele>184</ele>
        <time>2019-01-10T09:17:01Z</time>
      </trkpt>
      <trkpt lat="48.69355" lon="1.79887">
        <ele>184</ele>
        <time>2019-01-10T09:17:07Z</time>
      </trkpt>
      <trkpt lat="48.69352" lon="1.79882">
        <ele>184</ele>
        <time>2019-01-10T09:17:11Z</time>
      </trkpt>
      <trkpt lat="48.69347" lon="1.79877">
        <ele>184</ele>
        <time>2019-01-10T09:17:15Z</time>
      </trkpt>
      <trkpt lat="48.69344" lon="1.79869">
        <ele>184</ele>
        <time>2019-01-10T09:17:21Z</time>
      </trkpt>
      <trkpt lat="48.6934" lon="1.79864">
        <ele>184</ele>
        <time>2019-01-10T09:17:25Z</time>
      </trkpt>
      <trkpt lat="48.69335" lon="1.7986">
        <ele>185</ele>
        <time>2019-01-10T09:17:29Z</time>
      </trkpt>
      <trkpt lat="48.69333" lon="1.79853">
        <ele>184</ele>
        <time>2019-01-10T09:17:33Z</time>
      </trkpt>
      <trkpt lat="48.69328" lon="1.79846">
        <ele>185</ele>
        <time>2019-01-10T09:17:41Z</time>
      </trkpt>
      <trkpt lat="48.69322" lon="1.7984">
        <ele>185</ele>
        <time>2019-01-10T09:17:45Z</time>
      </trkpt>
      <trkpt lat="48.6932" lon="1.79833">
        <ele>186</ele>
        <time>2019-01-10T09:17:49Z</time>
      </trkpt>
      <trkpt lat="48.69316" lon="1.79827">
        <ele>186</ele>
        <time>2019-01-10T09:17:53Z</time>
      </trkpt>
      <trkpt lat="48.69312" lon="1.79822">
        <ele>186</ele>
        <time>2019-01-10T09:17:57Z</time>
      </trkpt>
      <trkpt lat="48.69308" lon="1.79817">
        <ele>186</ele>
        <time>2019-01-10T09:18:01Z</time>
      </trkpt>
      <trkpt lat="48.69305" lon="1.7981">
        <ele>187</ele>
        <time>2019-01-10T09:18:05Z</time>
      </trkpt>
      <trkpt lat="48.693" lon="1.79803">
        <ele>187</ele>
        <time>2019-01-10T09:18:09Z</time>
      </trkpt>
      <trkpt lat="48.69296" lon="1.79799">
        <ele>187</ele>
        <time>2019-01-10T09:18:13Z</time>
      </trkpt>
      <trkpt lat="48.69292" lon="1.79791">
        <ele>187</ele>
        <time>2019-01-10T09:18:17Z</time>
      </trkpt>
      <trkpt lat="48.69288" lon="1.79783">
        <ele>187</ele>
        <time>2019-01-10T09:18:21Z</time>
      </trkpt>
      <trkpt lat="48.69285" lon="1.79775">
        <ele>187</ele>
        <time>2019-01-10T09:18:25Z</time>
      </trkpt>
      <trkpt lat="48.69282" lon="1.79767">
        <ele>187</ele>
        <time>2019-01-10T09:18:29Z</time>
      </trkpt>
      <trkpt lat="48.69279" lon="1.79758">
        <ele>187</ele>
        <time>2019-01-10T09:18:35Z</time>
      </trkpt>
      <trkpt lat="48.69276" lon="1.79753">
        <ele>187</ele>
        <time>2019-01-10T09:18:41Z</time>
      </trkpt>
      <trkpt lat="48.69271" lon="1.79746">
        <ele>188</ele>
        <time>2019-01-10T09:18:47Z</time>
      </trkpt>
      <trkpt lat="48.69267" lon="1.7974">
        <ele>188</ele>
        <time>2019-01-10T09:18:53Z</time>
      </trkpt>
      <trkpt lat="48.69264" lon="1.79734">
        <ele>188</ele>
        <time>2019-01-10T09:19:01Z</time>
      </trkpt>
      <trkpt lat="48.6926" lon="1.79727">
        <ele>188</ele>
        <time>2019-01-10T09:19:05Z</time>
      </trkpt>
      <trkpt lat="48.69255" lon="1.79723">
        <ele>188</ele>
        <time>2019-01-10T09:19:09Z</time>
      </trkpt>
      <trkpt lat="48.69248" lon="1.79719">
        <ele>188</ele>
        <time>2019-01-10T09:19:13Z</time>
      </trkpt>
      <trkpt lat="48.69242" lon="1.79711">
        <ele>188</ele>
        <time>2019-01-10T09:19:19Z</time>
      </trkpt>
      <trkpt lat="48.69239" lon="1.79705">
        <ele>188</ele>
        <time>2019-01-10T09:19:25Z</time>
      </trkpt>
      <trkpt lat="48.69235" lon="1.79699">
        <ele>188</ele>
        <time>2019-01-10T09:19:31Z</time>
      </trkpt>
      <trkpt lat="48.69231" lon="1.79694">
        <ele>188</ele>
        <time>2019-01-10T09:19:35Z</time>
      </trkpt>
      <trkpt lat="48.69227" lon="1.79688">
        <ele>188</ele>
        <time>2019-01-10T09:19:41Z</time>
      </trkpt>
      <trkpt lat="48.69222" lon="1.79681">
        <ele>188</ele>
        <time>2019-01-10T09:19:47Z</time>
      </trkpt>
      <trkpt lat="48.69218" lon="1.79677">
        <ele>188</ele>
        <time>2019-01-10T09:19:55Z</time>
      </trkpt>
      <trkpt lat="48.69216" lon="1.7967">
        <ele>188</ele>
        <time>2019-01-10T09:19:59Z</time>
      </trkpt>
      <trkpt lat="48.69211" lon="1.79664">
        <ele>188</ele>
        <time>2019-01-10T09:20:03Z</time>
      </trkpt>
      <trkpt lat="48.69208" lon="1.79654">
        <ele>188</ele>
        <time>2019-01-10T09:20:07Z</time>
      </trkpt>
      <trkpt lat="48.69203" lon="1.79644">
        <ele>188</ele>
        <time>2019-01-10T09:20:11Z</time>
      </trkpt>
      <trkpt lat="48.69199" lon="1.79638">
        <ele>188</ele>
        <time>2019-01-10T09:20:13Z</time>
      </trkpt>
      <trkpt lat="48.69194" lon="1.79632">
        <ele>188</ele>
        <time>2019-01-10T09:20:15Z</time>
      </trkpt>
      <trkpt lat="48.69188" lon="1.79627">
        <ele>189</ele>
        <time>2019-01-10T09:20:23Z</time>
      </trkpt>
      <trkpt lat="48.69186" lon="1.7962">
        <ele>189</ele>
        <time>2019-01-10T09:20:27Z</time>
      </trkpt>
      <trkpt lat="48.69182" lon="1.79616">
        <ele>189</ele>
        <time>2019-01-10T09:20:31Z</time>
      </trkpt>
      <trkpt lat="48.69178" lon="1.79608">
        <ele>189</ele>
        <time>2019-01-10T09:20:35Z</time>
      </trkpt>
      <trkpt lat="48.69175" lon="1.79601">
        <ele>189</ele>
        <time>2019-01-10T09:20:39Z</time>
      </trkpt>
      <trkpt lat="48.69171" lon="1.79595">
        <ele>189</ele>
        <time>2019-01-10T09:20:43Z</time>
      </trkpt>
      <trkpt lat="48.69165" lon="1.79589">
        <ele>190</ele>
        <time>2019-01-10T09:20:49Z</time>
      </trkpt>
      <trkpt lat="48.69161" lon="1.79583">
        <ele>190</ele>
        <time>2019-01-10T09:20:53Z</time>
      </trkpt>
      <trkpt lat="48.69157" lon="1.79577">
        <ele>190</ele>
        <time>2019-01-10T09:20:57Z</time>
      </trkpt>
      <trkpt lat="48.6915" lon="1.79568">
        <ele>190</ele>
        <time>2019-01-10T09:21:01Z</time>
      </trkpt>
      <trkpt lat="48.69145" lon="1.7956">
        <ele>190</ele>
        <time>2019-01-10T09:21:05Z</time>
      </trkpt>
      <trkpt lat="48.69142" lon="1.79554">
        <ele>190</ele>
        <time>2019-01-10T09:21:09Z</time>
      </trkpt>
      <trkpt lat="48.69139" lon="1.79547">
        <ele>190</ele>
        <time>2019-01-10T09:21:19Z</time>
      </trkpt>
      <trkpt lat="48.69137" lon="1.79539">
        <ele>190</ele>
        <time>2019-01-10T09:21:23Z</time>
      </trkpt>
      <trkpt lat="48.69133" lon="1.79534">
        <ele>190</ele>
        <time>2019-01-10T09:21:27Z</time>
      </trkpt>
      <trkpt lat="48.69129" lon="1.79528">
        <ele>190</ele>
        <time>2019-01-10T09:21:31Z</time>
      </trkpt>
      <trkpt lat="48.69125" lon="1.79523">
        <ele>190</ele>
        <time>2019-01-10T09:21:35Z</time>
      </trkpt>
      <trkpt lat="48.69118" lon="1.79514">
        <ele>190</ele>
        <time>2019-01-10T09:21:39Z</time>
      </trkpt>
      <trkpt lat="48.69114" lon="1.79509">
        <ele>190</ele>
        <time>2019-01-10T09:21:41Z</time>
      </trkpt>
      <trkpt lat="48.69111" lon="1.79503">
        <ele>190</ele>
        <time>2019-01-10T09:21:45Z</time>
      </trkpt>
      <trkpt lat="48.69106" lon="1.79497">
        <ele>190</ele>
        <time>2019-01-10T09:21:49Z</time>
      </trkpt>
      <trkpt lat="48.69103" lon="1.79492">
        <ele>190</ele>
        <time>2019-01-10T09:21:53Z</time>
      </trkpt>
      <trkpt lat="48.69098" lon="1.79485">
        <ele>190</ele>
        <time>2019-01-10T09:21:59Z</time>
      </trkpt>
      <trkpt lat="48.69095" lon="1.79479">
        <ele>190</ele>
        <time>2019-01-10T09:22:03Z</time>
      </trkpt>
      <trkpt lat="48.6909" lon="1.79472">
        <ele>190</ele>
        <time>2019-01-10T09:22:09Z</time>
      </trkpt>
      <trkpt lat="48.69087" lon="1.79467">
        <ele>190</ele>
        <time>2019-01-10T09:22:11Z</time>
      </trkpt>
      <trkpt lat="48.69082" lon="1.7946">
        <ele>191</ele>
        <time>2019-01-10T09:22:15Z</time>
      </trkpt>
      <trkpt lat="48.69077" lon="1.79452">
        <ele>191</ele>
        <time>2019-01-10T09:22:19Z</time>
      </trkpt>
      <trkpt lat="48.69071" lon="1.79442">
        <ele>191</ele>
        <time>2019-01-10T09:22:23Z</time>
      </trkpt>
      <trkpt lat="48.69065" lon="1.79435">
        <ele>191</ele>
        <time>2019-01-10T09:22:27Z</time>
      </trkpt>
      <trkpt lat="48.69061" lon="1.79428">
        <ele>191</ele>
        <time>2019-01-10T09:22:33Z</time>
      </trkpt>
      <trkpt lat="48.69057" lon="1.79423">
        <ele>191</ele>
        <time>2019-01-10T09:22:37Z</time>
      </trkpt>
      <trkpt lat="48.69053" lon="1.79416">
        <ele>190</ele>
        <time>2019-01-10T09:22:45Z</time>
      </trkpt>
      <trkpt lat="48.6905" lon="1.79409">
        <ele>190</ele>
        <time>2019-01-10T09:22:51Z</time>
      </trkpt>
      <trkpt lat="48.69046" lon="1.79402">
        <ele>190</ele>
        <time>2019-01-10T09:22:55Z</time>
      </trkpt>
      <trkpt lat="48.69042" lon="1.79394">
        <ele>190</ele>
        <time>2019-01-10T09:22:59Z</time>
      </trkpt>
      <trkpt lat="48.69037" lon="1.79388">
        <ele>190</ele>
        <time>2019-01-10T09:23:05Z</time>
      </trkpt>
      <trkpt lat="48.69032" lon="1.79379">
        <ele>190</ele>
        <time>2019-01-10T09:23:09Z</time>
      </trkpt>
      <trkpt lat="48.69029" lon="1.79371">
        <ele>190</ele>
        <time>2019-01-10T09:23:13Z</time>
      </trkpt>
      <trkpt lat="48.69025" lon="1.79366">
        <ele>190</ele>
        <time>2019-01-10T09:23:17Z</time>
      </trkpt>
      <trkpt lat="48.69019" lon="1.79358">
        <ele>190</ele>
        <time>2019-01-10T09:23:21Z</time>
      </trkpt>
      <trkpt lat="48.69016" lon="1.79351">
        <ele>190</ele>
        <time>2019-01-10T09:23:25Z</time>
      </trkpt>
      <trkpt lat="48.69011" lon="1.79344">
        <ele>189</ele>
        <time>2019-01-10T09:23:31Z</time>
      </trkpt>
      <trkpt lat="48.69007" lon="1.79339">
        <ele>189</ele>
        <time>2019-01-10T09:23:35Z</time>
      </trkpt>
      <trkpt lat="48.69" lon="1.79331">
        <ele>189</ele>
        <time>2019-01-10T09:23:39Z</time>
      </trkpt>
      <trkpt lat="48.68997" lon="1.79327">
        <ele>189</ele>
        <time>2019-01-10T09:23:45Z</time>
      </trkpt>
      <trkpt lat="48.68992" lon="1.79317">
        <ele>190</ele>
        <time>2019-01-10T09:23:49Z</time>
      </trkpt>
      <trkpt lat="48.68987" lon="1.7931">
        <ele>190</ele>
        <time>2019-01-10T09:23:53Z</time>
      </trkpt>
      <trkpt lat="48.68984" lon="1.79303">
        <ele>190</ele>
        <time>2019-01-10T09:23:57Z</time>
      </trkpt>
      <trkpt lat="48.68979" lon="1.79299">
        <ele>190</ele>
        <time>2019-01-10T09:24:01Z</time>
      </trkpt>
      <trkpt lat="48.68976" lon="1.79293">
        <ele>190</ele>
        <time>2019-01-10T09:24:03Z</time>
      </trkpt>
      <trkpt lat="48.68973" lon="1.79285">
        <ele>190</ele>
        <time>2019-01-10T09:24:07Z</time>
      </trkpt>
      <trkpt lat="48.68969" lon="1.79278">
        <ele>190</ele>
        <time>2019-01-10T09:24:11Z</time>
      </trkpt>
      <trkpt lat="48.68966" lon="1.79272">
        <ele>190</ele>
        <time>2019-01-10T09:24:17Z</time>
      </trkpt>
      <trkpt lat="48.68963" lon="1.79264">
        <ele>190</ele>
        <time>2019-01-10T09:24:23Z</time>
      </trkpt>
      <trkpt lat="48.68958" lon="1.79259">
        <ele>190</ele>
        <time>2019-01-10T09:24:31Z</time>
      </trkpt>
      <trkpt lat="48.68954" lon="1.79253">
        <ele>190</ele>
        <time>2019-01-10T09:24:37Z</time>
      </trkpt>
      <trkpt lat="48.68949" lon="1.79247">
        <ele>189</ele>
        <time>2019-01-10T09:24:41Z</time>
      </trkpt>
      <trkpt lat="48.68947" lon="1.79241">
        <ele>189</ele>
        <time>2019-01-10T09:24:45Z</time>
      </trkpt>
      <trkpt lat="48.68943" lon="1.79233">
        <ele>189</ele>
        <time>2019-01-10T09:24:49Z</time>
      </trkpt>
      <trkpt lat="48.68937" lon="1.79226">
        <ele>189</ele>
        <time>2019-01-10T09:24:53Z</time>
      </trkpt>
      <trkpt lat="48.68932" lon="1.79218">
        <ele>189</ele>
        <time>2019-01-10T09:24:57Z</time>
      </trkpt>
      <trkpt lat="48.68928" lon="1.79211">
        <ele>189</ele>
        <time>2019-01-10T09:25:01Z</time>
      </trkpt>
      <trkpt lat="48.68924" lon="1.79203">
        <ele>189</ele>
        <time>2019-01-10T09:25:09Z</time>
      </trkpt>
      <trkpt lat="48.68919" lon="1.79195">
        <ele>189</ele>
        <time>2019-01-10T09:25:15Z</time>
      </trkpt>
      <trkpt lat="48.68915" lon="1.79188">
        <ele>189</ele>
        <time>2019-01-10T09:25:21Z</time>
      </trkpt>
      <trkpt lat="48.6891" lon="1.79183">
        <ele>189</ele>
        <time>2019-01-10T09:25:25Z</time>
      </trkpt>
      <trkpt lat="48.68903" lon="1.79177">
        <ele>189</ele>
        <time>2019-01-10T09:25:29Z</time>
      </trkpt>
      <trkpt lat="48.68898" lon="1.7917">
        <ele>189</ele>
        <time>2019-01-10T09:25:33Z</time>
      </trkpt>
      <trkpt lat="48.68893" lon="1.79167">
        <ele>189</ele>
        <time>2019-01-10T09:25:37Z</time>
      </trkpt>
      <trkpt lat="48.68888" lon="1.79159">
        <ele>189</ele>
        <time>2019-01-10T09:25:41Z</time>
      </trkpt>
      <trkpt lat="48.68885" lon="1.79153">
        <ele>190</ele>
        <time>2019-01-10T09:25:45Z</time>
      </trkpt>
      <trkpt lat="48.68882" lon="1.79145">
        <ele>190</ele>
        <time>2019-01-10T09:25:49Z</time>
      </trkpt>
      <trkpt lat="48.68878" lon="1.79139">
        <ele>190</ele>
        <time>2019-01-10T09:25:53Z</time>
      </trkpt>
      <trkpt lat="48.68874" lon="1.79135">
        <ele>190</ele>
        <time>2019-01-10T09:26:01Z</time>
      </trkpt>
      <trkpt lat="48.68871" lon="1.79128">
        <ele>190</ele>
        <time>2019-01-10T09:26:09Z</time>
      </trkpt>
      <trkpt lat="48.68868" lon="1.7912">
        <ele>190</ele>
        <time>2019-01-10T09:26:13Z</time>
      </trkpt>
      <trkpt lat="48.68863" lon="1.79114">
        <ele>190</ele>
        <time>2019-01-10T09:26:17Z</time>
      </trkpt>
      <trkpt lat="48.68859" lon="1.7911">
        <ele>190</ele>
        <time>2019-01-10T09:26:19Z</time>
      </trkpt>
      <trkpt lat="48.68855" lon="1.79103">
        <ele>190</ele>
        <time>2019-01-10T09:26:25Z</time>
      </trkpt>
      <trkpt lat="48.68852" lon="1.79097">
        <ele>190</ele>
        <time>2019-01-10T09:26:29Z</time>
      </trkpt>
      <trkpt lat="48.68848" lon="1.79091">
        <ele>190</ele>
        <time>2019-01-10T09:26:33Z</time>
      </trkpt>
      <trkpt lat="48.68842" lon="1.79086">
        <ele>190</ele>
        <time>2019-01-10T09:26:37Z</time>
      </trkpt>
      <trkpt lat="48.68838" lon="1.79081">
        <ele>190</ele>
        <time>2019-01-10T09:26:41Z</time>
      </trkpt>
      <trkpt lat="48.68836" lon="1.79075">
        <ele>190</ele>
        <time>2019-01-10T09:26:45Z</time>
      </trkpt>
      <trkpt lat="48.68832" lon="1.79069">
        <ele>190</ele>
        <time>2019-01-10T09:26:49Z</time>
      </trkpt>
      <trkpt lat="48.68826" lon="1.79063">
        <ele>189</ele>
        <time>2019-01-10T09:26:53Z</time>
      </trkpt>
      <trkpt lat="48.68821" lon="1.79055">
        <ele>189</ele>
        <time>2019-01-10T09:26:57Z</time>
      </trkpt>
      <trkpt lat="48.68818" lon="1.7905">
        <ele>189</ele>
        <time>2019-01-10T09:27:01Z</time>
      </trkpt>
      <trkpt lat="48.68812" lon="1.79043">
        <ele>189</ele>
        <time>2019-01-10T09:27:07Z</time>
      </trkpt>
      <trkpt lat="48.68808" lon="1.79038">
        <ele>189</ele>
        <time>2019-01-10T09:27:09Z</time>
      </trkpt>
      <trkpt lat="48.68805" lon="1.79031">
        <ele>189</ele>
        <time>2019-01-10T09:27:13Z</time>
      </trkpt>
      <trkpt lat="48.688" lon="1.79027">
        <ele>189</ele>
        <time>2019-01-10T09:27:17Z</time>
      </trkpt>
      <trkpt lat="48.68796" lon="1.79021">
        <ele>189</ele>
        <time>2019-01-10T09:27:21Z</time>
      </trkpt>
      <trkpt lat="48.68792" lon="1.79014">
        <ele>189</ele>
        <time>2019-01-10T09:27:25Z</time>
      </trkpt>
      <trkpt lat="48.68787" lon="1.7901">
        <ele>188</ele>
        <time>2019-01-10T09:27:29Z</time>
      </trkpt>
      <trkpt lat="48.68783" lon="1.79004">
        <ele>188</ele>
        <time>2019-01-10T09:27:33Z</time>
      </trkpt>
      <trkpt lat="48.68778" lon="1.78998">
        <ele>187</ele>
        <time>2019-01-10T09:27:37Z</time>
      </trkpt>
      <trkpt lat="48.68775" lon="1.78991">
        <ele>187</ele>
        <time>2019-01-10T09:27:43Z</time>
      </trkpt>
      <trkpt lat="48.68771" lon="1.78986">
        <ele>187</ele>
        <time>2019-01-10T09:27:47Z</time>
      </trkpt>
      <trkpt lat="48.68766" lon="1.78979">
        <ele>187</ele>
        <time>2019-01-10T09:27:51Z</time>
      </trkpt>
      <trkpt lat="48.68762" lon="1.78972">
        <ele>187</ele>
        <time>2019-01-10T09:27:55Z</time>
      </trkpt>
      <trkpt lat="48.68756" lon="1.78962">
        <ele>187</ele>
        <time>2019-01-10T09:27:59Z</time>
      </trkpt>
      <trkpt lat="48.68751" lon="1.78954">
        <ele>187</ele>
        <time>2019-01-10T09:28:01Z</time>
      </trkpt>
      <trkpt lat="48.68747" lon="1.78946">
        <ele>186</ele>
        <time>2019-01-10T09:28:07Z</time>
      </trkpt>
      <trkpt lat="48.68744" lon="1.78939">
        <ele>186</ele>
        <time>2019-01-10T09:28:11Z</time>
      </trkpt>
      <trkpt lat="48.68739" lon="1.78929">
        <ele>186</ele>
        <time>2019-01-10T09:28:15Z</time>
      </trkpt>
      <trkpt lat="48.68736" lon="1.78922">
        <ele>186</ele>
        <time>2019-01-10T09:28:19Z</time>
      </trkpt>
      <trkpt lat="48.68734" lon="1.78913">
        <ele>185</ele>
        <time>2019-01-10T09:28:23Z</time>
      </trkpt>
      <trkpt lat="48.68732" lon="1.78905">
        <ele>185</ele>
        <time>2019-01-10T09:28:27Z</time>
      </trkpt>
      <trkpt lat="48.68731" lon="1.78898">
        <ele>185</ele>
        <time>2019-01-10T09:28:31Z</time>
      </trkpt>
      <trkpt lat="48.68733" lon="1.78891">
        <ele>185</ele>
        <time>2019-01-10T09:28:35Z</time>
      </trkpt>
      <trkpt lat="48.68733" lon="1.78883">
        <ele>185</ele>
        <time>2019-01-10T09:28:39Z</time>
      </trkpt>
      <trkpt lat="48.68732" lon="1.78874">
        <ele>185</ele>
        <time>2019-01-10T09:28:43Z</time>
      </trkpt>
      <trkpt lat="48.68732" lon="1.78864">
        <ele>185</ele>
        <time>2019-01-10T09:28:49Z</time>
      </trkpt>
      <trkpt lat="48.68734" lon="1.78857">
        <ele>185</ele>
        <time>2019-01-10T09:28:53Z</time>
      </trkpt>
      <trkpt lat="48.68737" lon="1.78848">
        <ele>185</ele>
        <time>2019-01-10T09:28:59Z</time>
      </trkpt>
      <trkpt lat="48.68738" lon="1.78838">
        <ele>185</ele>
        <time>2019-01-10T09:29:03Z</time>
      </trkpt>
      <trkpt lat="48.68741" lon="1.78828">
        <ele>184</ele>
        <time>2019-01-10T09:29:07Z</time>
      </trkpt>
      <trkpt lat="48.68742" lon="1.78821">
        <ele>184</ele>
        <time>2019-01-10T09:29:11Z</time>
      </trkpt>
      <trkpt lat="48.68744" lon="1.78813">
        <ele>184</ele>
        <time>2019-01-10T09:29:15Z</time>
      </trkpt>
      <trkpt lat="48.68746" lon="1.78807">
        <ele>184</ele>
        <time>2019-01-10T09:29:19Z</time>
      </trkpt>
      <trkpt lat="48.68746" lon="1.78796">
        <ele>184</ele>
        <time>2019-01-10T09:29:23Z</time>
      </trkpt>
      <trkpt lat="48.68746" lon="1.78783">
        <ele>184</ele>
        <time>2019-01-10T09:29:27Z</time>
      </trkpt>
      <trkpt lat="48.68747" lon="1.78773">
        <ele>184</ele>
        <time>2019-01-10T09:29:31Z</time>
      </trkpt>
      <trkpt lat="48.68748" lon="1.78765">
        <ele>183</ele>
        <time>2019-01-10T09:29:35Z</time>
      </trkpt>
      <trkpt lat="48.68749" lon="1.78756">
        <ele>183</ele>
        <time>2019-01-10T09:29:39Z</time>
      </trkpt>
      <trkpt lat="48.6875" lon="1.78749">
        <ele>183</ele>
        <time>2019-01-10T09:29:43Z</time>
      </trkpt>
      <trkpt lat="48.68749" lon="1.78741">
        <ele>183</ele>
        <time>2019-01-10T09:29:47Z</time>
      </trkpt>
      <trkpt lat="48.68749" lon="1.78732">
        <ele>183</ele>
        <time>2019-01-10T09:29:51Z</time>
      </trkpt>
      <trkpt lat="48.6875" lon="1.78721">
        <ele>183</ele>
        <time>2019-01-10T09:29:57Z</time>
      </trkpt>
      <trkpt lat="48.68749" lon="1.78708">
        <ele>183</ele>
        <time>2019-01-10T09:30:01Z</time>
      </trkpt>
      <trkpt lat="48.68749" lon="1.78694">
        <ele>183</ele>
        <time>2019-01-10T09:30:05Z</time>
      </trkpt>
      <trkpt lat="48.68751" lon="1.78688">
        <ele>184</ele>
        <time>2019-01-10T09:30:07Z</time>
      </trkpt>
      <trkpt lat="48.68753" lon="1.78681">
        <ele>184</ele>
        <time>2019-01-10T09:30:11Z</time>
      </trkpt>
      <trkpt lat="48.68755" lon="1.78673">
        <ele>183</ele>
        <time>2019-01-10T09:30:15Z</time>
      </trkpt>
      <trkpt lat="48.68756" lon="1.78664">
        <ele>183</ele>
        <time>2019-01-10T09:30:19Z</time>
      </trkpt>
      <trkpt lat="48.68757" lon="1.78656">
        <ele>183</ele>
        <time>2019-01-10T09:30:23Z</time>
      </trkpt>
      <trkpt lat="48.68756" lon="1.78645">
        <ele>183</ele>
        <time>2019-01-10T09:30:27Z</time>
      </trkpt>
      <trkpt lat="48.68756" lon="1.78636">
        <ele>183</ele>
        <time>2019-01-10T09:30:31Z</time>
      </trkpt>
      <trkpt lat="48.68757" lon="1.78626">
        <ele>183</ele>
        <time>2019-01-10T09:30:37Z</time>
      </trkpt>
      <trkpt lat="48.68758" lon="1.78617">
        <ele>183</ele>
        <time>2019-01-10T09:30:41Z</time>
      </trkpt>
      <trkpt lat="48.68758" lon="1.7861">
        <ele>183</ele>
        <time>2019-01-10T09:30:45Z</time>
      </trkpt>
      <trkpt lat="48.68757" lon="1.786">
        <ele>183</ele>
        <time>2019-01-10T09:30:49Z</time>
      </trkpt>
      <trkpt lat="48.68758" lon="1.7859">
        <ele>183</ele>
        <time>2019-01-10T09:30:55Z</time>
      </trkpt>
      <trkpt lat="48.68761" lon="1.78585">
        <ele>183</ele>
        <time>2019-01-10T09:30:59Z</time>
      </trkpt>
      <trkpt lat="48.6876" lon="1.78576">
        <ele>183</ele>
        <time>2019-01-10T09:31:03Z</time>
      </trkpt>
      <trkpt lat="48.68762" lon="1.7857">
        <ele>183</ele>
        <time>2019-01-10T09:31:07Z</time>
      </trkpt>
      <trkpt lat="48.68764" lon="1.78564">
        <ele>183</ele>
        <time>2019-01-10T09:31:11Z</time>
      </trkpt>
      <trkpt lat="48.68767" lon="1.78555">
        <ele>183</ele>
        <time>2019-01-10T09:31:17Z</time>
      </trkpt>
      <trkpt lat="48.68769" lon="1.78547">
        <ele>183</ele>
        <time>2019-01-10T09:31:21Z</time>
      </trkpt>
      <trkpt lat="48.68769" lon="1.78538">
        <ele>183</ele>
        <time>2019-01-10T09:31:25Z</time>
      </trkpt>
      <trkpt lat="48.6877" lon="1.78529">
        <ele>183</ele>
        <time>2019-01-10T09:31:29Z</time>
      </trkpt>
      <trkpt lat="48.68771" lon="1.78519">
        <ele>183</ele>
        <time>2019-01-10T09:31:33Z</time>
      </trkpt>
      <trkpt lat="48.68773" lon="1.78512">
        <ele>183</ele>
        <time>2019-01-10T09:31:37Z</time>
      </trkpt>
      <trkpt lat="48.68774" lon="1.78504">
        <ele>183</ele>
        <time>2019-01-10T09:31:41Z</time>
      </trkpt>
      <trkpt lat="48.68773" lon="1.78495">
        <ele>183</ele>
        <time>2019-01-10T09:31:45Z</time>
      </trkpt>
      <trkpt lat="48.68773" lon="1.78487">
        <ele>183</ele>
        <time>2019-01-10T09:31:49Z</time>
      </trkpt>
      <trkpt lat="48.68773" lon="1.78479">
        <ele>184</ele>
        <time>2019-01-10T09:31:51Z</time>
      </trkpt>
      <trkpt lat="48.68774" lon="1.78469">
        <ele>184</ele>
        <time>2019-01-10T09:31:55Z</time>
      </trkpt>
      <trkpt lat="48.68773" lon="1.78458">
        <ele>184</ele>
        <time>2019-01-10T09:31:59Z</time>
      </trkpt>
      <trkpt lat="48.68773" lon="1.78451">
        <ele>184</ele>
        <time>2019-01-10T09:32:01Z</time>
      </trkpt>
      <trkpt lat="48.68772" lon="1.78442">
        <ele>184</ele>
        <time>2019-01-10T09:32:05Z</time>
      </trkpt>
      <trkpt lat="48.68768" lon="1.78434">
        <ele>184</ele>
        <time>2019-01-10T09:32:09Z</time>
      </trkpt>
      <trkpt lat="48.68768" lon="1.78424">
        <ele>184</ele>
        <time>2019-01-10T09:32:13Z</time>
      </trkpt>
      <trkpt lat="48.68768" lon="1.78414">
        <ele>184</ele>
        <time>2019-01-10T09:32:17Z</time>
      </trkpt>
      <trkpt lat="48.6877" lon="1.78405">
        <ele>184</ele>
        <time>2019-01-10T09:32:23Z</time>
      </trkpt>
      <trkpt lat="48.68773" lon="1.78395">
        <ele>184</ele>
        <time>2019-01-10T09:32:29Z</time>
      </trkpt>
      <trkpt lat="48.68774" lon="1.78387">
        <ele>184</ele>
        <time>2019-01-10T09:32:33Z</time>
      </trkpt>
      <trkpt lat="48.68775" lon="1.78378">
        <ele>184</ele>
        <time>2019-01-10T09:32:37Z</time>
      </trkpt>
      <trkpt lat="48.68777" lon="1.7837">
        <ele>184</ele>
        <time>2019-01-10T09:32:41Z</time>
      </trkpt>
      <trkpt lat="48.68779" lon="1.78362">
        <ele>184</ele>
        <time>2019-01-10T09:32:45Z</time>
      </trkpt>
      <trkpt lat="48.68781" lon="1.7835">
        <ele>184</ele>
        <time>2019-01-10T09:32:51Z</time>
      </trkpt>
      <trkpt lat="48.6878" lon="1.78342">
        <ele>184</ele>
        <time>2019-01-10T09:32:53Z</time>
      </trkpt>
      <trkpt lat="48.6878" lon="1.78334">
        <ele>184</ele>
        <time>2019-01-10T09:32:55Z</time>
      </trkpt>
      <trkpt lat="48.68782" lon="1.78324">
        <ele>184</ele>
        <time>2019-01-10T09:32:59Z</time>
      </trkpt>
      <trkpt lat="48.68783" lon="1.78317">
        <ele>184</ele>
        <time>2019-01-10T09:33:03Z</time>
      </trkpt>
      <trkpt lat="48.68784" lon="1.7831">
        <ele>184</ele>
        <time>2019-01-10T09:33:07Z</time>
      </trkpt>
      <trkpt lat="48.68787" lon="1.78303">
        <ele>184</ele>
        <time>2019-01-10T09:33:11Z</time>
      </trkpt>
      <trkpt lat="48.68789" lon="1.78296">
        <ele>184</ele>
        <time>2019-01-10T09:33:15Z</time>
      </trkpt>
      <trkpt lat="48.68793" lon="1.78288">
        <ele>184</ele>
        <time>2019-01-10T09:33:21Z</time>
      </trkpt>
      <trkpt lat="48.68793" lon="1.78279">
        <ele>184</ele>
        <time>2019-01-10T09:33:25Z</time>
      </trkpt>
      <trkpt lat="48.68793" lon="1.78271">
        <ele>184</ele>
        <time>2019-01-10T09:33:29Z</time>
      </trkpt>
      <trkpt lat="48.68794" lon="1.78263">
        <ele>184</ele>
        <time>2019-01-10T09:33:33Z</time>
      </trkpt>
      <trkpt lat="48.68796" lon="1.78254">
        <ele>184</ele>
        <time>2019-01-10T09:33:37Z</time>
      </trkpt>
      <trkpt lat="48.68799" lon="1.78244">
        <ele>183</ele>
        <time>2019-01-10T09:33:41Z</time>
      </trkpt>
      <trkpt lat="48.68802" lon="1.78234">
        <ele>183</ele>
        <time>2019-01-10T09:33:45Z</time>
      </trkpt>
      <trkpt lat="48.68804" lon="1.78226">
        <ele>183</ele>
        <time>2019-01-10T09:33:49Z</time>
      </trkpt>
      <trkpt lat="48.68805" lon="1.78215">
        <ele>183</ele>
        <time>2019-01-10T09:33:53Z</time>
      </trkpt>
      <trkpt lat="48.68806" lon="1.78204">
        <ele>183</ele>
        <time>2019-01-10T09:33:57Z</time>
      </trkpt>
      <trkpt lat="48.68809" lon="1.78195">
        <ele>183</ele>
        <time>2019-01-10T09:34:01Z</time>
      </trkpt>
      <trkpt lat="48.6881" lon="1.78187">
        <ele>183</ele>
        <time>2019-01-10T09:34:05Z</time>
      </trkpt>
      <trkpt lat="48.68812" lon="1.78175">
        <ele>183</ele>
        <time>2019-01-10T09:34:09Z</time>
      </trkpt>
      <trkpt lat="48.68814" lon="1.78165">
        <ele>182</ele>
        <time>2019-01-10T09:34:15Z</time>
      </trkpt>
      <trkpt lat="48.68815" lon="1.78157">
        <ele>182</ele>
        <time>2019-01-10T09:34:19Z</time>
      </trkpt>
      <trkpt lat="48.6882" lon="1.78155">
        <ele>182</ele>
        <time>2019-01-10T09:34:23Z</time>
      </trkpt>
      <trkpt lat="48.68825" lon="1.78156">
        <ele>183</ele>
        <time>2019-01-10T09:34:29Z</time>
      </trkpt>
      <trkpt lat="48.68829" lon="1.78159">
        <ele>183</ele>
        <time>2019-01-10T09:34:35Z</time>
      </trkpt>
      <trkpt lat="48.68834" lon="1.78163">
        <ele>183</ele>
        <time>2019-01-10T09:34:41Z</time>
      </trkpt>
      <trkpt lat="48.68839" lon="1.78168">
        <ele>183</ele>
        <time>2019-01-10T09:34:45Z</time>
      </trkpt>
      <trkpt lat="48.68843" lon="1.78171">
        <ele>183</ele>
        <time>2019-01-10T09:34:49Z</time>
      </trkpt>
      <trkpt lat="48.68847" lon="1.78175">
        <ele>183</ele>
        <time>2019-01-10T09:34:53Z</time>
      </trkpt>
      <trkpt lat="48.6885" lon="1.78181">
        <ele>183</ele>
        <time>2019-01-10T09:34:57Z</time>
      </trkpt>
      <trkpt lat="48.68856" lon="1.78187">
        <ele>183</ele>
        <time>2019-01-10T09:35:01Z</time>
      </trkpt>
      <trkpt lat="48.6886" lon="1.78194">
        <ele>184</ele>
        <time>2019-01-10T09:35:05Z</time>
      </trkpt>
      <trkpt lat="48.68865" lon="1.78197">
        <ele>184</ele>
        <time>2019-01-10T09:35:07Z</time>
      </trkpt>
      <trkpt lat="48.6887" lon="1.78201">
        <ele>184</ele>
        <time>2019-01-10T09:35:11Z</time>
      </trkpt>
      <trkpt lat="48.68875" lon="1.78203">
        <ele>184</ele>
        <time>2019-01-10T09:35:15Z</time>
      </trkpt>
      <trkpt lat="48.68881" lon="1.78205">
        <ele>184</ele>
        <time>2019-01-10T09:35:19Z</time>
      </trkpt>
      <trkpt lat="48.68889" lon="1.78204">
        <ele>184</ele>
        <time>2019-01-10T09:35:23Z</time>
      </trkpt>
      <trkpt lat="48.68894" lon="1.78199">
        <ele>183</ele>
        <time>2019-01-10T09:35:27Z</time>
      </trkpt>
      <trkpt lat="48.68899" lon="1.78196">
        <ele>183</ele>
        <time>2019-01-10T09:35:31Z</time>
      </trkpt>
      <trkpt lat="48.68905" lon="1.78193">
        <ele>183</ele>
        <time>2019-01-10T09:35:35Z</time>
      </trkpt>
      <trkpt lat="48.68912" lon="1.7819">
        <ele>183</ele>
        <time>2019-01-10T09:35:39Z</time>
      </trkpt>
      <trkpt lat="48.68917" lon="1.78186">
        <ele>183</ele>
        <time>2019-01-10T09:35:43Z</time>
      </trkpt>
      <trkpt lat="48.68922" lon="1.78181">
        <ele>182</ele>
        <time>2019-01-10T09:35:47Z</time>
      </trkpt>
      <trkpt lat="48.68928" lon="1.78178">
        <ele>182</ele>
        <time>2019-01-10T09:35:51Z</time>
      </trkpt>
      <trkpt lat="48.68932" lon="1.78173">
        <ele>182</ele>
        <time>2019-01-10T09:35:55Z</time>
      </trkpt>
      <trkpt lat="48.68938" lon="1.78168">
        <ele>182</ele>
        <time>2019-01-10T09:35:59Z</time>
      </trkpt>
      <trkpt lat="48.68944" lon="1.7816">
        <ele>182</ele>
        <time>2019-01-10T09:36:03Z</time>
      </trkpt>
      <trkpt lat="48.68951" lon="1.78156">
        <ele>182</ele>
        <time>2019-01-10T09:36:09Z</time>
      </trkpt>
      <trkpt lat="48.68957" lon="1.78152">
        <ele>182</ele>
        <time>2019-01-10T09:36:13Z</time>
      </trkpt>
      <trkpt lat="48.68962" lon="1.78148">
        <ele>182</ele>
        <time>2019-01-10T09:36:19Z</time>
      </trkpt>
      <trkpt lat="48.68968" lon="1.78144">
        <ele>182</ele>
        <time>2019-01-10T09:36:23Z</time>
      </trkpt>
      <trkpt lat="48.68973" lon="1.78138">
        <ele>182</ele>
        <time>2019-01-10T09:36:27Z</time>
      </trkpt>
      <trkpt lat="48.68976" lon="1.78135">
        <ele>182</ele>
        <time>2019-01-10T09:36:31Z</time>
      </trkpt>
      <trkpt lat="48.6898" lon="1.78131">
        <ele>182</ele>
        <time>2019-01-10T09:36:35Z</time>
      </trkpt>
      <trkpt lat="48.68986" lon="1.78125">
        <ele>181</ele>
        <time>2019-01-10T09:36:41Z</time>
      </trkpt>
      <trkpt lat="48.6899" lon="1.7812">
        <ele>181</ele>
        <time>2019-01-10T09:36:45Z</time>
      </trkpt>
      <trkpt lat="48.68995" lon="1.78114">
        <ele>181</ele>
        <time>2019-01-10T09:36:49Z</time>
      </trkpt>
      <trkpt lat="48.69001" lon="1.78108">
        <ele>181</ele>
        <time>2019-01-10T09:36:55Z</time>
      </trkpt>
      <trkpt lat="48.69007" lon="1.78103">
        <ele>181</ele>
        <time>2019-01-10T09:37:01Z</time>
      </trkpt>
      <trkpt lat="48.69011" lon="1.78097">
        <ele>181</ele>
        <time>2019-01-10T09:37:07Z</time>
      </trkpt>
      <trkpt lat="48.69016" lon="1.78093">
        <ele>181</ele>
        <time>2019-01-10T09:37:15Z</time>
      </trkpt>
      <trkpt lat="48.6902" lon="1.78089">
        <ele>181</ele>
        <time>2019-01-10T09:37:21Z</time>
      </trkpt>
      <trkpt lat="48.69024" lon="1.78083">
        <ele>180</ele>
        <time>2019-01-10T09:37:41Z</time>
      </trkpt>
      <trkpt lat="48.69028" lon="1.78079">
        <ele>180</ele>
        <time>2019-01-10T09:37:45Z</time>
      </trkpt>
      <trkpt lat="48.69032" lon="1.78073">
        <ele>180</ele>
        <time>2019-01-10T09:37:49Z</time>
      </trkpt>
      <trkpt lat="48.69037" lon="1.7807">
        <ele>180</ele>
        <time>2019-01-10T09:37:51Z</time>
      </trkpt>
      <trkpt lat="48.69043" lon="1.78068">
        <ele>180</ele>
        <time>2019-01-10T09:37:55Z</time>
      </trkpt>
      <trkpt lat="48.69048" lon="1.78064">
        <ele>180</ele>
        <time>2019-01-10T09:37:59Z</time>
      </trkpt>
      <trkpt lat="48.69053" lon="1.78062">
        <ele>180</ele>
        <time>2019-01-10T09:38:03Z</time>
      </trkpt>
      <trkpt lat="48.6906" lon="1.78065">
        <ele>180</ele>
        <time>2019-01-10T09:38:13Z</time>
      </trkpt>
      <trkpt lat="48.69066" lon="1.78069">
        <ele>180</ele>
        <time>2019-01-10T09:38:17Z</time>
      </trkpt>
      <trkpt lat="48.69071" lon="1.78075">
        <ele>180</ele>
        <time>2019-01-10T09:38:21Z</time>
      </trkpt>
      <trkpt lat="48.69076" lon="1.78077">
        <ele>180</ele>
        <time>2019-01-10T09:38:25Z</time>
      </trkpt>
      <trkpt lat="48.69081" lon="1.78082">
        <ele>180</ele>
        <time>2019-01-10T09:38:31Z</time>
      </trkpt>
      <trkpt lat="48.69085" lon="1.78085">
        <ele>180</ele>
        <time>2019-01-10T09:38:35Z</time>
      </trkpt>
      <trkpt lat="48.69092" lon="1.78087">
        <ele>180</ele>
        <time>2019-01-10T09:38:39Z</time>
      </trkpt>
      <trkpt lat="48.69097" lon="1.78092">
        <ele>180</ele>
        <time>2019-01-10T09:38:43Z</time>
      </trkpt>
      <trkpt lat="48.69102" lon="1.78099">
        <ele>180</ele>
        <time>2019-01-10T09:38:51Z</time>
      </trkpt>
      <trkpt lat="48.69108" lon="1.78105">
        <ele>180</ele>
        <time>2019-01-10T09:38:55Z</time>
      </trkpt>
      <trkpt lat="48.69112" lon="1.78112">
        <ele>180</ele>
        <time>2019-01-10T09:39:01Z</time>
      </trkpt>
      <trkpt lat="48.69115" lon="1.78119">
        <ele>180</ele>
        <time>2019-01-10T09:39:05Z</time>
      </trkpt>
      <trkpt lat="48.69117" lon="1.78125">
        <ele>180</ele>
        <time>2019-01-10T09:39:09Z</time>
      </trkpt>
      <trkpt lat="48.69122" lon="1.78131">
        <ele>180</ele>
        <time>2019-01-10T09:39:13Z</time>
      </trkpt>
      <trkpt lat="48.69126" lon="1.78135">
        <ele>180</ele>
        <time>2019-01-10T09:39:17Z</time>
      </trkpt>
      <trkpt lat="48.69131" lon="1.78139">
        <ele>180</ele>
        <time>2019-01-10T09:39:23Z</time>
      </trkpt>
      <trkpt lat="48.69137" lon="1.78147">
        <ele>179</ele>
        <time>2019-01-10T09:39:27Z</time>
      </trkpt>
      <trkpt lat="48.69142" lon="1.78148">
        <ele>179</ele>
        <time>2019-01-10T09:39:31Z</time>
      </trkpt>
      <trkpt lat="48.69146" lon="1.78152">
        <ele>179</ele>
        <time>2019-01-10T09:39:33Z</time>
      </trkpt>
      <trkpt lat="48.69151" lon="1.78153">
        <ele>179</ele>
        <time>2019-01-10T09:39:35Z</time>
      </trkpt>
      <trkpt lat="48.69156" lon="1.78154">
        <ele>179</ele>
        <time>2019-01-10T09:39:37Z</time>
      </trkpt>
      <trkpt lat="48.69161" lon="1.78157">
        <ele>179</ele>
        <time>2019-01-10T09:39:41Z</time>
      </trkpt>
      <trkpt lat="48.69168" lon="1.78161">
        <ele>178</ele>
        <time>2019-01-10T09:39:45Z</time>
      </trkpt>
      <trkpt lat="48.69172" lon="1.78165">
        <ele>178</ele>
        <time>2019-01-10T09:39:51Z</time>
      </trkpt>
      <trkpt lat="48.6918" lon="1.78167">
        <ele>177</ele>
        <time>2019-01-10T09:39:55Z</time>
      </trkpt>
      <trkpt lat="48.69185" lon="1.7817">
        <ele>177</ele>
        <time>2019-01-10T09:39:57Z</time>
      </trkpt>
      <trkpt lat="48.69191" lon="1.78179">
        <ele>177</ele>
        <time>2019-01-10T09:40:01Z</time>
      </trkpt>
      <trkpt lat="48.692" lon="1.78181">
        <ele>177</ele>
        <time>2019-01-10T09:40:05Z</time>
      </trkpt>
      <trkpt lat="48.69205" lon="1.78182">
        <ele>177</ele>
        <time>2019-01-10T09:40:07Z</time>
      </trkpt>
      <trkpt lat="48.69209" lon="1.78185">
        <ele>177</ele>
        <time>2019-01-10T09:40:09Z</time>
      </trkpt>
      <trkpt lat="48.69217" lon="1.7819">
        <ele>177</ele>
        <time>2019-01-10T09:40:13Z</time>
      </trkpt>
      <trkpt lat="48.69221" lon="1.78195">
        <ele>177</ele>
        <time>2019-01-10T09:40:15Z</time>
      </trkpt>
      <trkpt lat="48.69228" lon="1.78198">
        <ele>177</ele>
        <time>2019-01-10T09:40:19Z</time>
      </trkpt>
      <trkpt lat="48.69234" lon="1.78202">
        <ele>177</ele>
        <time>2019-01-10T09:40:23Z</time>
      </trkpt>
      <trkpt lat="48.6924" lon="1.78207">
        <ele>177</ele>
        <time>2019-01-10T09:40:27Z</time>
      </trkpt>
      <trkpt lat="48.69246" lon="1.78211">
        <ele>177</ele>
        <time>2019-01-10T09:40:33Z</time>
      </trkpt>
      <trkpt lat="48.69251" lon="1.78214">
        <ele>178</ele>
        <time>2019-01-10T09:40:37Z</time>
      </trkpt>
      <trkpt lat="48.69257" lon="1.78218">
        <ele>178</ele>
        <time>2019-01-10T09:40:41Z</time>
      </trkpt>
      <trkpt lat="48.69262" lon="1.78221">
        <ele>178</ele>
        <time>2019-01-10T09:40:45Z</time>
      </trkpt>
      <trkpt lat="48.69267" lon="1.78225">
        <ele>178</ele>
        <time>2019-01-10T09:40:49Z</time>
      </trkpt>
      <trkpt lat="48.69271" lon="1.78228">
        <ele>178</ele>
        <time>2019-01-10T09:40:53Z</time>
      </trkpt>
      <trkpt lat="48.69277" lon="1.78229">
        <ele>178</ele>
        <time>2019-01-10T09:40:57Z</time>
      </trkpt>
      <trkpt lat="48.69283" lon="1.78226">
        <ele>178</ele>
        <time>2019-01-10T09:41:01Z</time>
      </trkpt>
      <trkpt lat="48.69287" lon="1.78221">
        <ele>178</ele>
        <time>2019-01-10T09:41:05Z</time>
      </trkpt>
      <trkpt lat="48.6929" lon="1.78217">
        <ele>178</ele>
        <time>2019-01-10T09:41:09Z</time>
      </trkpt>
      <trkpt lat="48.69294" lon="1.7821">
        <ele>178</ele>
        <time>2019-01-10T09:41:15Z</time>
      </trkpt>
      <trkpt lat="48.69299" lon="1.78206">
        <ele>178</ele>
        <time>2019-01-10T09:41:19Z</time>
      </trkpt>
      <trkpt lat="48.69303" lon="1.782">
        <ele>178</ele>
        <time>2019-01-10T09:41:23Z</time>
      </trkpt>
      <trkpt lat="48.69308" lon="1.78194">
        <ele>178</ele>
        <time>2019-01-10T09:41:27Z</time>
      </trkpt>
      <trkpt lat="48.69312" lon="1.78189">
        <ele>179</ele>
        <time>2019-01-10T09:41:31Z</time>
      </trkpt>
      <trkpt lat="48.69316" lon="1.78185">
        <ele>179</ele>
        <time>2019-01-10T09:41:35Z</time>
      </trkpt>
      <trkpt lat="48.69318" lon="1.78178">
        <ele>179</ele>
        <time>2019-01-10T09:41:39Z</time>
      </trkpt>
      <trkpt lat="48.69321" lon="1.78171">
        <ele>179</ele>
        <time>2019-01-10T09:41:43Z</time>
      </trkpt>
      <trkpt lat="48.69324" lon="1.78162">
        <ele>180</ele>
        <time>2019-01-10T09:41:49Z</time>
      </trkpt>
      <trkpt lat="48.6933" lon="1.78157">
        <ele>180</ele>
        <time>2019-01-10T09:41:53Z</time>
      </trkpt>
      <trkpt lat="48.69334" lon="1.78151">
        <ele>180</ele>
        <time>2019-01-10T09:41:57Z</time>
      </trkpt>
      <trkpt lat="48.69337" lon="1.78144">
        <ele>180</ele>
        <time>2019-01-10T09:42:01Z</time>
      </trkpt>
      <trkpt lat="48.69341" lon="1.78138">
        <ele>180</ele>
        <time>2019-01-10T09:42:05Z</time>
      </trkpt>
      <trkpt lat="48.69346" lon="1.78134">
        <ele>180</ele>
        <time>2019-01-10T09:42:09Z</time>
      </trkpt>
      <trkpt lat="48.6935" lon="1.78122">
        <ele>180</ele>
        <time>2019-01-10T09:42:13Z</time>
      </trkpt>
      <trkpt lat="48.69354" lon="1.78113">
        <ele>180</ele>
        <time>2019-01-10T09:42:17Z</time>
      </trkpt>
      <trkpt lat="48.69358" lon="1.78108">
        <ele>180</ele>
        <time>2019-01-10T09:42:21Z</time>
      </trkpt>
      <trkpt lat="48.69365" lon="1.78102">
        <ele>180</ele>
        <time>2019-01-10T09:42:25Z</time>
      </trkpt>
      <trkpt lat="48.69369" lon="1.78092">
        <ele>180</ele>
        <time>2019-01-10T09:42:29Z</time>
      </trkpt>
      <trkpt lat="48.69374" lon="1.78084">
        <ele>180</ele>
        <time>2019-01-10T09:42:33Z</time>
      </trkpt>
      <trkpt lat="48.69379" lon="1.78077">
        <ele>181</ele>
        <time>2019-01-10T09:42:37Z</time>
      </trkpt>
      <trkpt lat="48.69385" lon="1.78069">
        <ele>181</ele>
        <time>2019-01-10T09:42:41Z</time>
      </trkpt>
      <trkpt lat="48.69389" lon="1.78062">
        <ele>181</ele>
        <time>2019-01-10T09:42:45Z</time>
      </trkpt>
      <trkpt lat="48.69394" lon="1.78054">
        <ele>181</ele>
        <time>2019-01-10T09:42:49Z</time>
      </trkpt>
      <trkpt lat="48.69398" lon="1.78048">
        <ele>181</ele>
        <time>2019-01-10T09:42:53Z</time>
      </trkpt>
      <trkpt lat="48.69403" lon="1.78043">
        <ele>181</ele>
        <time>2019-01-10T09:42:57Z</time>
      </trkpt>
      <trkpt lat="48.69409" lon="1.7804">
        <ele>181</ele>
        <time>2019-01-10T09:43:01Z</time>
      </trkpt>
      <trkpt lat="48.69414" lon="1.78033">
        <ele>181</ele>
        <time>2019-01-10T09:43:05Z</time>
      </trkpt>
      <trkpt lat="48.69419" lon="1.78027">
        <ele>182</ele>
        <time>2019-01-10T09:43:09Z</time>
      </trkpt>
      <trkpt lat="48.69422" lon="1.78022">
        <ele>182</ele>
        <time>2019-01-10T09:43:13Z</time>
      </trkpt>
      <trkpt lat="48.69424" lon="1.7801">
        <ele>181</ele>
        <time>2019-01-10T09:43:17Z</time>
      </trkpt>
      <trkpt lat="48.69428" lon="1.78">
        <ele>181</ele>
        <time>2019-01-10T09:43:23Z</time>
      </trkpt>
      <trkpt lat="48.69432" lon="1.77995">
        <ele>181</ele>
        <time>2019-01-10T09:43:27Z</time>
      </trkpt>
      <trkpt lat="48.69435" lon="1.77985">
        <ele>181</ele>
        <time>2019-01-10T09:43:33Z</time>
      </trkpt>
      <trkpt lat="48.69439" lon="1.77978">
        <ele>181</ele>
        <time>2019-01-10T09:43:37Z</time>
      </trkpt>
      <trkpt lat="48.69444" lon="1.77972">
        <ele>181</ele>
        <time>2019-01-10T09:43:41Z</time>
      </trkpt>
      <trkpt lat="48.69449" lon="1.77967">
        <ele>181</ele>
        <time>2019-01-10T09:43:45Z</time>
      </trkpt>
      <trkpt lat="48.69451" lon="1.7796">
        <ele>181</ele>
        <time>2019-01-10T09:43:49Z</time>
      </trkpt>
      <trkpt lat="48.69456" lon="1.7795">
        <ele>181</ele>
        <time>2019-01-10T09:43:55Z</time>
      </trkpt>
      <trkpt lat="48.69464" lon="1.77949">
        <ele>182</ele>
        <time>2019-01-10T09:44:03Z</time>
      </trkpt>
      <trkpt lat="48.6947" lon="1.77946">
        <ele>182</ele>
        <time>2019-01-10T09:44:09Z</time>
      </trkpt>
      <trkpt lat="48.69476" lon="1.77944">
        <ele>182</ele>
        <time>2019-01-10T09:44:13Z</time>
      </trkpt>
      <trkpt lat="48.69481" lon="1.77942">
        <ele>182</ele>
        <time>2019-01-10T09:44:17Z</time>
      </trkpt>
      <trkpt lat="48.69486" lon="1.7794">
        <ele>182</ele>
        <time>2019-01-10T09:44:21Z</time>
      </trkpt>
      <trkpt lat="48.69489" lon="1.77935">
        <ele>182</ele>
        <time>2019-01-10T09:44:27Z</time>
      </trkpt>
      <trkpt lat="48.69493" lon="1.77931">
        <ele>182</ele>
        <time>2019-01-10T09:44:31Z</time>
      </trkpt>
      <trkpt lat="48.69497" lon="1.77924">
        <ele>182</ele>
        <time>2019-01-10T09:44:37Z</time>
      </trkpt>
      <trkpt lat="48.69501" lon="1.7792">
        <ele>182</ele>
        <time>2019-01-10T09:44:41Z</time>
      </trkpt>
      <trkpt lat="48.69505" lon="1.77915">
        <ele>182</ele>
        <time>2019-01-10T09:44:47Z</time>
      </trkpt>
      <trkpt lat="48.69509" lon="1.77908">
        <ele>182</ele>
        <time>2019-01-10T09:44:53Z</time>
      </trkpt>
      <trkpt lat="48.69514" lon="1.77902">
        <ele>182</ele>
        <time>2019-01-10T09:44:59Z</time>
      </trkpt>
      <trkpt lat="48.69519" lon="1.77897">
        <ele>182</ele>
        <time>2019-01-10T09:45:05Z</time>
      </trkpt>
      <trkpt lat="48.69525" lon="1.77891">
        <ele>181</ele>
        <time>2019-01-10T09:45:09Z</time>
      </trkpt>
      <trkpt lat="48.69529" lon="1.77888">
        <ele>181</ele>
        <time>2019-01-10T09:45:13Z</time>
      </trkpt>
      <trkpt lat="48.69534" lon="1.77885">
        <ele>181</ele>
        <time>2019-01-10T09:45:17Z</time>
      </trkpt>
      <trkpt lat="48.69539" lon="1.77885">
        <ele>181</ele>
        <time>2019-01-10T09:45:21Z</time>
      </trkpt>
      <trkpt lat="48.69544" lon="1.77887">
        <ele>181</ele>
        <time>2019-01-10T09:45:25Z</time>
      </trkpt>
      <trkpt lat="48.6955" lon="1.77889">
        <ele>182</ele>
        <time>2019-01-10T09:45:29Z</time>
      </trkpt>
      <trkpt lat="48.69555" lon="1.77893">
        <ele>182</ele>
        <time>2019-01-10T09:45:33Z</time>
      </trkpt>
      <trkpt lat="48.69563" lon="1.77895">
        <ele>182</ele>
        <time>2019-01-10T09:45:37Z</time>
      </trkpt>
      <trkpt lat="48.69569" lon="1.779">
        <ele>182</ele>
        <time>2019-01-10T09:45:41Z</time>
      </trkpt>
      <trkpt lat="48.69575" lon="1.77905">
        <ele>182</ele>
        <time>2019-01-10T09:45:45Z</time>
      </trkpt>
      <trkpt lat="48.69579" lon="1.7791">
        <ele>183</ele>
        <time>2019-01-10T09:45:51Z</time>
      </trkpt>
      <trkpt lat="48.69583" lon="1.77913">
        <ele>183</ele>
        <time>2019-01-10T09:45:55Z</time>
      </trkpt>
      <trkpt lat="48.6959" lon="1.77916">
        <ele>183</ele>
        <time>2019-01-10T09:45:59Z</time>
      </trkpt>
      <trkpt lat="48.69594" lon="1.7792">
        <ele>183</ele>
        <time>2019-01-10T09:46:03Z</time>
      </trkpt>
      <trkpt lat="48.69598" lon="1.77925">
        <ele>183</ele>
        <time>2019-01-10T09:46:09Z</time>
      </trkpt>
      <trkpt lat="48.69601" lon="1.77931">
        <ele>183</ele>
        <time>2019-01-10T09:46:13Z</time>
      </trkpt>
      <trkpt lat="48.69604" lon="1.77939">
        <ele>182</ele>
        <time>2019-01-10T09:46:17Z</time>
      </trkpt>
      <trkpt lat="48.69612" lon="1.77945">
        <ele>182</ele>
        <time>2019-01-10T09:46:21Z</time>
      </trkpt>
      <trkpt lat="48.69617" lon="1.77952">
        <ele>182</ele>
        <time>2019-01-10T09:46:27Z</time>
      </trkpt>
      <trkpt lat="48.69621" lon="1.77956">
        <ele>182</ele>
        <time>2019-01-10T09:46:31Z</time>
      </trkpt>
      <trkpt lat="48.69626" lon="1.77959">
        <ele>182</ele>
        <time>2019-01-10T09:46:35Z</time>
      </trkpt>
      <trkpt lat="48.69629" lon="1.77964">
        <ele>182</ele>
        <time>2019-01-10T09:46:37Z</time>
      </trkpt>
      <trkpt lat="48.69635" lon="1.7797">
        <ele>182</ele>
        <time>2019-01-10T09:46:41Z</time>
      </trkpt>
      <trkpt lat="48.6964" lon="1.77975">
        <ele>182</ele>
        <time>2019-01-10T09:46:45Z</time>
      </trkpt>
      <trkpt lat="48.69644" lon="1.77981">
        <ele>182</ele>
        <time>2019-01-10T09:46:49Z</time>
      </trkpt>
      <trkpt lat="48.69649" lon="1.77989">
        <ele>182</ele>
        <time>2019-01-10T09:46:53Z</time>
      </trkpt>
      <trkpt lat="48.69651" lon="1.77996">
        <ele>182</ele>
        <time>2019-01-10T09:46:57Z</time>
      </trkpt>
      <trkpt lat="48.69654" lon="1.78002">
        <ele>182</ele>
        <time>2019-01-10T09:47:01Z</time>
      </trkpt>
      <trkpt lat="48.69658" lon="1.78007">
        <ele>182</ele>
        <time>2019-01-10T09:47:07Z</time>
      </trkpt>
      <trkpt lat="48.69665" lon="1.78006">
        <ele>182</ele>
        <time>2019-01-10T09:47:09Z</time>
      </trkpt>
      <trkpt lat="48.69672" lon="1.78005">
        <ele>182</ele>
        <time>2019-01-10T09:47:13Z</time>
      </trkpt>
      <trkpt lat="48.69678" lon="1.78001">
        <ele>181</ele>
        <time>2019-01-10T09:47:17Z</time>
      </trkpt>
      <trkpt lat="48.69682" lon="1.77997">
        <ele>182</ele>
        <time>2019-01-10T09:47:19Z</time>
      </trkpt>
      <trkpt lat="48.69687" lon="1.77991">
        <ele>182</ele>
        <time>2019-01-10T09:47:23Z</time>
      </trkpt>
      <trkpt lat="48.69692" lon="1.77985">
        <ele>181</ele>
        <time>2019-01-10T09:47:27Z</time>
      </trkpt>
      <trkpt lat="48.69696" lon="1.77978">
        <ele>181</ele>
        <time>2019-01-10T09:47:31Z</time>
      </trkpt>
      <trkpt lat="48.697" lon="1.77974">
        <ele>181</ele>
        <time>2019-01-10T09:47:35Z</time>
      </trkpt>
      <trkpt lat="48.69701" lon="1.77965">
        <ele>181</ele>
        <time>2019-01-10T09:47:43Z</time>
      </trkpt>
      <trkpt lat="48.69708" lon="1.77957">
        <ele>181</ele>
        <time>2019-01-10T09:47:49Z</time>
      </trkpt>
      <trkpt lat="48.69712" lon="1.77955">
        <ele>181</ele>
        <time>2019-01-10T09:47:57Z</time>
      </trkpt>
      <trkpt lat="48.69716" lon="1.7795">
        <ele>181</ele>
        <time>2019-01-10T09:48:01Z</time>
      </trkpt>
      <trkpt lat="48.69721" lon="1.77947">
        <ele>181</ele>
        <time>2019-01-10T09:48:07Z</time>
      </trkpt>
      <trkpt lat="48.69725" lon="1.77944">
        <ele>181</ele>
        <time>2019-01-10T09:48:13Z</time>
      </trkpt>
      <trkpt lat="48.6973" lon="1.77941">
        <ele>181</ele>
        <time>2019-01-10T09:48:19Z</time>
      </trkpt>
      <trkpt lat="48.69735" lon="1.7794">
        <ele>181</ele>
        <time>2019-01-10T09:48:25Z</time>
      </trkpt>
      <trkpt lat="48.6974" lon="1.77935">
        <ele>181</ele>
        <time>2019-01-10T09:48:31Z</time>
      </trkpt>
      <trkpt lat="48.69745" lon="1.77931">
        <ele>181</ele>
        <time>2019-01-10T09:48:35Z</time>
      </trkpt>
      <trkpt lat="48.69749" lon="1.77927">
        <ele>181</ele>
        <time>2019-01-10T09:48:41Z</time>
      </trkpt>
      <trkpt lat="48.69757" lon="1.77924">
        <ele>180</ele>
        <time>2019-01-10T09:48:47Z</time>
      </trkpt>
      <trkpt lat="48.69762" lon="1.77922">
        <ele>180</ele>
        <time>2019-01-10T09:48:51Z</time>
      </trkpt>
      <trkpt lat="48.69767" lon="1.77921">
        <ele>180</ele>
        <time>2019-01-10T09:48:55Z</time>
      </trkpt>
      <trkpt lat="48.69773" lon="1.77919">
        <ele>179</ele>
        <time>2019-01-10T09:48:59Z</time>
      </trkpt>
      <trkpt lat="48.69777" lon="1.77912">
        <ele>178</ele>
        <time>2019-01-10T09:49:09Z</time>
      </trkpt>
      <trkpt lat="48.69781" lon="1.77906">
        <ele>178</ele>
        <time>2019-01-10T09:49:13Z</time>
      </trkpt>
      <trkpt lat="48.69788" lon="1.77906">
        <ele>178</ele>
        <time>2019-01-10T09:49:31Z</time>
      </trkpt>
      <trkpt lat="48.69791" lon="1.77911">
        <ele>178</ele>
        <time>2019-01-10T09:49:35Z</time>
      </trkpt>
      <trkpt lat="48.69795" lon="1.77916">
        <ele>178</ele>
        <time>2019-01-10T09:49:39Z</time>
      </trkpt>
      <trkpt lat="48.69789" lon="1.77919">
        <ele>178</ele>
        <time>2019-01-10T09:50:43Z</time>
      </trkpt>
      <trkpt lat="48.6978" lon="1.77923">
        <ele>179</ele>
        <time>2019-01-10T09:50:47Z</time>
      </trkpt>
      <trkpt lat="48.69774" lon="1.77925">
        <ele>179</ele>
        <time>2019-01-10T09:50:49Z</time>
      </trkpt>
      <trkpt lat="48.6977" lon="1.77928">
        <ele>179</ele>
        <time>2019-01-10T09:50:51Z</time>
      </trkpt>
      <trkpt lat="48.69764" lon="1.77927">
        <ele>180</ele>
        <time>2019-01-10T09:50:53Z</time>
      </trkpt>
      <trkpt lat="48.69758" lon="1.77928">
        <ele>180</ele>
        <time>2019-01-10T09:50:57Z</time>
      </trkpt>
      <trkpt lat="48.69752" lon="1.77931">
        <ele>180</ele>
        <time>2019-01-10T09:50:59Z</time>
      </trkpt>
      <trkpt lat="48.69747" lon="1.77933">
        <ele>181</ele>
        <time>2019-01-10T09:51:01Z</time>
      </trkpt>
      <trkpt lat="48.69741" lon="1.77934">
        <ele>181</ele>
        <time>2019-01-10T09:51:03Z</time>
      </trkpt>
      <trkpt lat="48.69736" lon="1.77937">
        <ele>181</ele>
        <time>2019-01-10T09:51:05Z</time>
      </trkpt>
      <trkpt lat="48.6973" lon="1.7794">
        <ele>181</ele>
        <time>2019-01-10T09:51:09Z</time>
      </trkpt>
      <trkpt lat="48.69722" lon="1.77942">
        <ele>181</ele>
        <time>2019-01-10T09:51:13Z</time>
      </trkpt>
      <trkpt lat="48.69716" lon="1.77945">
        <ele>181</ele>
        <time>2019-01-10T09:51:17Z</time>
      </trkpt>
      <trkpt lat="48.69709" lon="1.77945">
        <ele>181</ele>
        <time>2019-01-10T09:51:21Z</time>
      </trkpt>
      <trkpt lat="48.69702" lon="1.77942">
        <ele>181</ele>
        <time>2019-01-10T09:51:27Z</time>
      </trkpt>
      <trkpt lat="48.69698" lon="1.77939">
        <ele>181</ele>
        <time>2019-01-10T09:51:31Z</time>
      </trkpt>
      <trkpt lat="48.69692" lon="1.77938">
        <ele>181</ele>
        <time>2019-01-10T09:51:35Z</time>
      </trkpt>
      <trkpt lat="48.69687" lon="1.77933">
        <ele>182</ele>
        <time>2019-01-10T09:51:39Z</time>
      </trkpt>
      <trkpt lat="48.69682" lon="1.77931">
        <ele>182</ele>
        <time>2019-01-10T09:51:45Z</time>
      </trkpt>
      <trkpt lat="48.69677" lon="1.77927">
        <ele>182</ele>
        <time>2019-01-10T09:51:51Z</time>
      </trkpt>
      <trkpt lat="48.69672" lon="1.77924">
        <ele>182</ele>
        <time>2019-01-10T09:51:57Z</time>
      </trkpt>
      <trkpt lat="48.69667" lon="1.77919">
        <ele>182</ele>
        <time>2019-01-10T09:52:01Z</time>
      </trkpt>
      <trkpt lat="48.69663" lon="1.77913">
        <ele>182</ele>
        <time>2019-01-10T09:52:05Z</time>
      </trkpt>
      <trkpt lat="48.69657" lon="1.77907">
        <ele>182</ele>
        <time>2019-01-10T09:52:09Z</time>
      </trkpt>
      <trkpt lat="48.69653" lon="1.77903">
        <ele>182</ele>
        <time>2019-01-10T09:52:11Z</time>
      </trkpt>
      <trkpt lat="48.69649" lon="1.77898">
        <ele>182</ele>
        <time>2019-01-10T09:52:15Z</time>
      </trkpt>
      <trkpt lat="48.69645" lon="1.77892">
        <ele>181</ele>
        <time>2019-01-10T09:52:19Z</time>
      </trkpt>
      <trkpt lat="48.69641" lon="1.77887">
        <ele>181</ele>
        <time>2019-01-10T09:52:23Z</time>
      </trkpt>
      <trkpt lat="48.69636" lon="1.77886">
        <ele>181</ele>
        <time>2019-01-10T09:52:27Z</time>
      </trkpt>
      <trkpt lat="48.69629" lon="1.77881">
        <ele>181</ele>
        <time>2019-01-10T09:52:31Z</time>
      </trkpt>
      <trkpt lat="48.69624" lon="1.77875">
        <ele>181</ele>
        <time>2019-01-10T09:52:35Z</time>
      </trkpt>
      <trkpt lat="48.69621" lon="1.77869">
        <ele>181</ele>
        <time>2019-01-10T09:52:39Z</time>
      </trkpt>
      <trkpt lat="48.69617" lon="1.77865">
        <ele>181</ele>
        <time>2019-01-10T09:52:43Z</time>
      </trkpt>
      <trkpt lat="48.69613" lon="1.77864">
        <ele>181</ele>
        <time>2019-01-10T09:52:47Z</time>
      </trkpt>
      <trkpt lat="48.69607" lon="1.77862">
        <ele>181</ele>
        <time>2019-01-10T09:52:51Z</time>
      </trkpt>
      <trkpt lat="48.69601" lon="1.7786">
        <ele>181</ele>
        <time>2019-01-10T09:52:55Z</time>
      </trkpt>
      <trkpt lat="48.69596" lon="1.7786">
        <ele>181</ele>
        <time>2019-01-10T09:52:59Z</time>
      </trkpt>
      <trkpt lat="48.69589" lon="1.77855">
        <ele>181</ele>
        <time>2019-01-10T09:53:05Z</time>
      </trkpt>
      <trkpt lat="48.69582" lon="1.77856">
        <ele>181</ele>
        <time>2019-01-10T09:53:09Z</time>
      </trkpt>
      <trkpt lat="48.69578" lon="1.77858">
        <ele>181</ele>
        <time>2019-01-10T09:53:11Z</time>
      </trkpt>
      <trkpt lat="48.69573" lon="1.77861">
        <ele>181</ele>
        <time>2019-01-10T09:53:15Z</time>
      </trkpt>
      <trkpt lat="48.69569" lon="1.77866">
        <ele>181</ele>
        <time>2019-01-10T09:53:19Z</time>
      </trkpt>
      <trkpt lat="48.69563" lon="1.7787">
        <ele>181</ele>
        <time>2019-01-10T09:53:29Z</time>
      </trkpt>
      <trkpt lat="48.69558" lon="1.77873">
        <ele>181</ele>
        <time>2019-01-10T09:53:33Z</time>
      </trkpt>
      <trkpt lat="48.69553" lon="1.77878">
        <ele>181</ele>
        <time>2019-01-10T09:53:37Z</time>
      </trkpt>
      <trkpt lat="48.69548" lon="1.77882">
        <ele>181</ele>
        <time>2019-01-10T09:53:41Z</time>
      </trkpt>
      <trkpt lat="48.69544" lon="1.77887">
        <ele>181</ele>
        <time>2019-01-10T09:53:45Z</time>
      </trkpt>
      <trkpt lat="48.6954" lon="1.77893">
        <ele>181</ele>
        <time>2019-01-10T09:53:49Z</time>
      </trkpt>
      <trkpt lat="48.69535" lon="1.77897">
        <ele>182</ele>
        <time>2019-01-10T09:53:53Z</time>
      </trkpt>
      <trkpt lat="48.6953" lon="1.77902">
        <ele>182</ele>
        <time>2019-01-10T09:53:57Z</time>
      </trkpt>
      <trkpt lat="48.69526" lon="1.77907">
        <ele>182</ele>
        <time>2019-01-10T09:54:01Z</time>
      </trkpt>
      <trkpt lat="48.6952" lon="1.77913">
        <ele>182</ele>
        <time>2019-01-10T09:54:07Z</time>
      </trkpt>
      <trkpt lat="48.69515" lon="1.77919">
        <ele>182</ele>
        <time>2019-01-10T09:54:13Z</time>
      </trkpt>
      <trkpt lat="48.69509" lon="1.77924">
        <ele>182</ele>
        <time>2019-01-10T09:54:17Z</time>
      </trkpt>
      <trkpt lat="48.69504" lon="1.77928">
        <ele>182</ele>
        <time>2019-01-10T09:54:21Z</time>
      </trkpt>
      <trkpt lat="48.695" lon="1.77931">
        <ele>182</ele>
        <time>2019-01-10T09:54:25Z</time>
      </trkpt>
      <trkpt lat="48.69493" lon="1.77935">
        <ele>182</ele>
        <time>2019-01-10T09:54:29Z</time>
      </trkpt>
      <trkpt lat="48.69488" lon="1.77938">
        <ele>182</ele>
        <time>2019-01-10T09:54:33Z</time>
      </trkpt>
      <trkpt lat="48.69481" lon="1.77938">
        <ele>182</ele>
        <time>2019-01-10T09:54:37Z</time>
      </trkpt>
      <trkpt lat="48.69475" lon="1.77936">
        <ele>182</ele>
        <time>2019-01-10T09:54:43Z</time>
      </trkpt>
      <trkpt lat="48.69472" lon="1.7793">
        <ele>182</ele>
        <time>2019-01-10T09:54:47Z</time>
      </trkpt>
      <trkpt lat="48.69468" lon="1.77924">
        <ele>181</ele>
        <time>2019-01-10T09:54:53Z</time>
      </trkpt>
      <trkpt lat="48.69463" lon="1.77921">
        <ele>181</ele>
        <time>2019-01-10T09:54:59Z</time>
      </trkpt>
      <trkpt lat="48.69457" lon="1.77917">
        <ele>181</ele>
        <time>2019-01-10T09:55:03Z</time>
      </trkpt>
      <trkpt lat="48.69455" lon="1.77907">
        <ele>181</ele>
        <time>2019-01-10T09:55:07Z</time>
      </trkpt>
      <trkpt lat="48.69447" lon="1.77905">
        <ele>181</ele>
        <time>2019-01-10T09:55:11Z</time>
      </trkpt>
      <trkpt lat="48.69441" lon="1.77901">
        <ele>181</ele>
        <time>2019-01-10T09:55:15Z</time>
      </trkpt>
      <trkpt lat="48.69437" lon="1.77897">
        <ele>181</ele>
        <time>2019-01-10T09:55:19Z</time>
      </trkpt>
      <trkpt lat="48.69431" lon="1.77891">
        <ele>181</ele>
        <time>2019-01-10T09:55:23Z</time>
      </trkpt>
      <trkpt lat="48.69425" lon="1.77883">
        <ele>181</ele>
        <time>2019-01-10T09:55:27Z</time>
      </trkpt>
      <trkpt lat="48.69421" lon="1.77879">
        <ele>181</ele>
        <time>2019-01-10T09:55:29Z</time>
      </trkpt>
      <trkpt lat="48.69416" lon="1.77874">
        <ele>181</ele>
        <time>2019-01-10T09:55:33Z</time>
      </trkpt>
      <trkpt lat="48.69413" lon="1.77867">
        <ele>181</ele>
        <time>2019-01-10T09:55:37Z</time>
      </trkpt>
      <trkpt lat="48.69408" lon="1.7786">
        <ele>181</ele>
        <time>2019-01-10T09:55:41Z</time>
      </trkpt>
      <trkpt lat="48.69404" lon="1.77856">
        <ele>181</ele>
        <time>2019-01-10T09:55:43Z</time>
      </trkpt>
      <trkpt lat="48.69401" lon="1.77849">
        <ele>181</ele>
        <time>2019-01-10T09:55:47Z</time>
      </trkpt>
      <trkpt lat="48.69395" lon="1.77842">
        <ele>181</ele>
        <time>2019-01-10T09:55:51Z</time>
      </trkpt>
      <trkpt lat="48.6939" lon="1.77835">
        <ele>181</ele>
        <time>2019-01-10T09:55:55Z</time>
      </trkpt>
      <trkpt lat="48.69386" lon="1.77832">
        <ele>181</ele>
        <time>2019-01-10T09:55:59Z</time>
      </trkpt>
      <trkpt lat="48.69382" lon="1.7783">
        <ele>181</ele>
        <time>2019-01-10T09:56:03Z</time>
      </trkpt>
      <trkpt lat="48.69376" lon="1.77826">
        <ele>181</ele>
        <time>2019-01-10T09:56:09Z</time>
      </trkpt>
      <trkpt lat="48.69371" lon="1.77819">
        <ele>181</ele>
        <time>2019-01-10T09:56:13Z</time>
      </trkpt>
      <trkpt lat="48.69366" lon="1.77813">
        <ele>181</ele>
        <time>2019-01-10T09:56:17Z</time>
      </trkpt>
      <trkpt lat="48.69362" lon="1.77807">
        <ele>181</ele>
        <time>2019-01-10T09:56:21Z</time>
      </trkpt>
      <trkpt lat="48.69358" lon="1.77802">
        <ele>181</ele>
        <time>2019-01-10T09:56:27Z</time>
      </trkpt>
      <trkpt lat="48.69354" lon="1.77794">
        <ele>181</ele>
        <time>2019-01-10T09:56:31Z</time>
      </trkpt>
      <trkpt lat="48.69349" lon="1.77789">
        <ele>181</ele>
        <time>2019-01-10T09:56:35Z</time>
      </trkpt>
      <trkpt lat="48.69344" lon="1.77782">
        <ele>181</ele>
        <time>2019-01-10T09:56:39Z</time>
      </trkpt>
      <trkpt lat="48.69339" lon="1.77776">
        <ele>181</ele>
        <time>2019-01-10T09:56:43Z</time>
      </trkpt>
      <trkpt lat="48.69335" lon="1.7777">
        <ele>180</ele>
        <time>2019-01-10T09:56:47Z</time>
      </trkpt>
      <trkpt lat="48.69332" lon="1.77764">
        <ele>180</ele>
        <time>2019-01-10T09:56:51Z</time>
      </trkpt>
      <trkpt lat="48.69327" lon="1.77757">
        <ele>180</ele>
        <time>2019-01-10T09:56:55Z</time>
      </trkpt>
      <trkpt lat="48.69323" lon="1.77753">
        <ele>180</ele>
        <time>2019-01-10T09:56:57Z</time>
      </trkpt>
      <trkpt lat="48.69318" lon="1.77745">
        <ele>180</ele>
        <time>2019-01-10T09:57:01Z</time>
      </trkpt>
      <trkpt lat="48.69314" lon="1.77736">
        <ele>180</ele>
        <time>2019-01-10T09:57:05Z</time>
      </trkpt>
      <trkpt lat="48.69309" lon="1.77729">
        <ele>180</ele>
        <time>2019-01-10T09:57:09Z</time>
      </trkpt>
      <trkpt lat="48.69306" lon="1.77724">
        <ele>180</ele>
        <time>2019-01-10T09:57:13Z</time>
      </trkpt>
      <trkpt lat="48.69301" lon="1.77718">
        <ele>180</ele>
        <time>2019-01-10T09:57:17Z</time>
      </trkpt>
      <trkpt lat="48.69296" lon="1.77714">
        <ele>180</ele>
        <time>2019-01-10T09:57:21Z</time>
      </trkpt>
      <trkpt lat="48.69291" lon="1.77708">
        <ele>180</ele>
        <time>2019-01-10T09:57:25Z</time>
      </trkpt>
      <trkpt lat="48.69288" lon="1.77701">
        <ele>179</ele>
        <time>2019-01-10T09:57:29Z</time>
      </trkpt>
      <trkpt lat="48.69284" lon="1.77694">
        <ele>179</ele>
        <time>2019-01-10T09:57:33Z</time>
      </trkpt>
      <trkpt lat="48.69279" lon="1.7769">
        <ele>180</ele>
        <time>2019-01-10T09:57:37Z</time>
      </trkpt>
      <trkpt lat="48.69273" lon="1.77685">
        <ele>180</ele>
        <time>2019-01-10T09:57:41Z</time>
      </trkpt>
      <trkpt lat="48.6927" lon="1.77678">
        <ele>180</ele>
        <time>2019-01-10T09:57:45Z</time>
      </trkpt>
      <trkpt lat="48.69264" lon="1.77674">
        <ele>180</ele>
        <time>2019-01-10T09:57:49Z</time>
      </trkpt>
      <trkpt lat="48.69262" lon="1.77668">
        <ele>180</ele>
        <time>2019-01-10T09:57:53Z</time>
      </trkpt>
      <trkpt lat="48.69256" lon="1.77665">
        <ele>180</ele>
        <time>2019-01-10T09:57:59Z</time>
      </trkpt>
      <trkpt lat="48.69251" lon="1.7766">
        <ele>180</ele>
        <time>2019-01-10T09:58:03Z</time>
      </trkpt>
      <trkpt lat="48.69246" lon="1.77653">
        <ele>180</ele>
        <time>2019-01-10T09:58:07Z</time>
      </trkpt>
      <trkpt lat="48.69242" lon="1.77647">
        <ele>179</ele>
        <time>2019-01-10T09:58:11Z</time>
      </trkpt>
      <trkpt lat="48.69237" lon="1.77642">
        <ele>179</ele>
        <time>2019-01-10T09:58:13Z</time>
      </trkpt>
      <trkpt lat="48.69231" lon="1.77637">
        <ele>179</ele>
        <time>2019-01-10T09:58:19Z</time>
      </trkpt>
      <trkpt lat="48.69228" lon="1.77631">
        <ele>179</ele>
        <time>2019-01-10T09:58:23Z</time>
      </trkpt>
      <trkpt lat="48.69224" lon="1.77626">
        <ele>179</ele>
        <time>2019-01-10T09:58:27Z</time>
      </trkpt>
      <trkpt lat="48.6922" lon="1.77619">
        <ele>179</ele>
        <time>2019-01-10T09:58:31Z</time>
      </trkpt>
      <trkpt lat="48.69216" lon="1.77614">
        <ele>179</ele>
        <time>2019-01-10T09:58:35Z</time>
      </trkpt>
      <trkpt lat="48.69211" lon="1.77609">
        <ele>179</ele>
        <time>2019-01-10T09:58:39Z</time>
      </trkpt>
      <trkpt lat="48.69207" lon="1.77601">
        <ele>179</ele>
        <time>2019-01-10T09:58:43Z</time>
      </trkpt>
      <trkpt lat="48.69201" lon="1.77595">
        <ele>179</ele>
        <time>2019-01-10T09:58:47Z</time>
      </trkpt>
      <trkpt lat="48.69197" lon="1.77589">
        <ele>179</ele>
        <time>2019-01-10T09:58:51Z</time>
      </trkpt>
      <trkpt lat="48.69192" lon="1.77584">
        <ele>179</ele>
        <time>2019-01-10T09:58:55Z</time>
      </trkpt>
      <trkpt lat="48.69188" lon="1.77578">
        <ele>179</ele>
        <time>2019-01-10T09:58:59Z</time>
      </trkpt>
      <trkpt lat="48.69185" lon="1.77572">
        <ele>179</ele>
        <time>2019-01-10T09:59:03Z</time>
      </trkpt>
      <trkpt lat="48.69182" lon="1.77566">
        <ele>179</ele>
        <time>2019-01-10T09:59:07Z</time>
      </trkpt>
      <trkpt lat="48.69177" lon="1.7756">
        <ele>179</ele>
        <time>2019-01-10T09:59:11Z</time>
      </trkpt>
      <trkpt lat="48.69171" lon="1.77554">
        <ele>179</ele>
        <time>2019-01-10T09:59:15Z</time>
      </trkpt>
      <trkpt lat="48.69164" lon="1.77546">
        <ele>179</ele>
        <time>2019-01-10T09:59:19Z</time>
      </trkpt>
      <trkpt lat="48.69159" lon="1.77538">
        <ele>179</ele>
        <time>2019-01-10T09:59:23Z</time>
      </trkpt>
      <trkpt lat="48.69153" lon="1.77533">
        <ele>179</ele>
        <time>2019-01-10T09:59:27Z</time>
      </trkpt>
      <trkpt lat="48.69149" lon="1.77523">
        <ele>179</ele>
        <time>2019-01-10T09:59:31Z</time>
      </trkpt>
      <trkpt lat="48.69143" lon="1.77515">
        <ele>179</ele>
        <time>2019-01-10T09:59:35Z</time>
      </trkpt>
      <trkpt lat="48.69138" lon="1.77508">
        <ele>179</ele>
        <time>2019-01-10T09:59:39Z</time>
      </trkpt>
      <trkpt lat="48.69134" lon="1.77501">
        <ele>179</ele>
        <time>2019-01-10T09:59:43Z</time>
      </trkpt>
      <trkpt lat="48.69129" lon="1.77496">
        <ele>178</ele>
        <time>2019-01-10T09:59:47Z</time>
      </trkpt>
      <trkpt lat="48.69123" lon="1.77494">
        <ele>178</ele>
        <time>2019-01-10T09:59:51Z</time>
      </trkpt>
      <trkpt lat="48.69119" lon="1.7749">
        <ele>178</ele>
        <time>2019-01-10T09:59:55Z</time>
      </trkpt>
      <trkpt lat="48.69113" lon="1.77486">
        <ele>178</ele>
        <time>2019-01-10T10:00:01Z</time>
      </trkpt>
      <trkpt lat="48.69108" lon="1.77479">
        <ele>178</ele>
        <time>2019-01-10T10:00:07Z</time>
      </trkpt>
      <trkpt lat="48.69103" lon="1.77473">
        <ele>178</ele>
        <time>2019-01-10T10:00:13Z</time>
      </trkpt>
      <trkpt lat="48.69099" lon="1.77467">
        <ele>178</ele>
        <time>2019-01-10T10:00:19Z</time>
      </trkpt>
      <trkpt lat="48.69093" lon="1.77459">
        <ele>178</ele>
        <time>2019-01-10T10:00:23Z</time>
      </trkpt>
      <trkpt lat="48.69088" lon="1.77451">
        <ele>178</ele>
        <time>2019-01-10T10:00:27Z</time>
      </trkpt>
      <trkpt lat="48.69084" lon="1.77447">
        <ele>178</ele>
        <time>2019-01-10T10:00:31Z</time>
      </trkpt>
      <trkpt lat="48.69079" lon="1.77439">
        <ele>177</ele>
        <time>2019-01-10T10:00:37Z</time>
      </trkpt>
      <trkpt lat="48.69076" lon="1.77432">
        <ele>177</ele>
        <time>2019-01-10T10:00:41Z</time>
      </trkpt>
      <trkpt lat="48.69072" lon="1.77429">
        <ele>177</ele>
        <time>2019-01-10T10:00:45Z</time>
      </trkpt>
      <trkpt lat="48.69068" lon="1.77425">
        <ele>177</ele>
        <time>2019-01-10T10:00:49Z</time>
      </trkpt>
      <trkpt lat="48.69064" lon="1.77421">
        <ele>177</ele>
        <time>2019-01-10T10:00:53Z</time>
      </trkpt>
      <trkpt lat="48.69061" lon="1.77416">
        <ele>176</ele>
        <time>2019-01-10T10:00:57Z</time>
      </trkpt>
      <trkpt lat="48.69057" lon="1.77411">
        <ele>176</ele>
        <time>2019-01-10T10:01:03Z</time>
      </trkpt>
      <trkpt lat="48.69056" lon="1.77404">
        <ele>176</ele>
        <time>2019-01-10T10:01:09Z</time>
      </trkpt>
      <trkpt lat="48.69051" lon="1.77398">
        <ele>176</ele>
        <time>2019-01-10T10:01:19Z</time>
      </trkpt>
      <trkpt lat="48.69047" lon="1.77393">
        <ele>175</ele>
        <time>2019-01-10T10:01:27Z</time>
      </trkpt>
      <trkpt lat="48.69041" lon="1.77387">
        <ele>175</ele>
        <time>2019-01-10T10:01:33Z</time>
      </trkpt>
      <trkpt lat="48.69037" lon="1.77383">
        <ele>175</ele>
        <time>2019-01-10T10:01:37Z</time>
      </trkpt>
      <trkpt lat="48.6903" lon="1.77377">
        <ele>175</ele>
        <time>2019-01-10T10:01:41Z</time>
      </trkpt>
      <trkpt lat="48.69023" lon="1.77372">
        <ele>174</ele>
        <time>2019-01-10T10:01:45Z</time>
      </trkpt>
      <trkpt lat="48.69017" lon="1.77365">
        <ele>174</ele>
        <time>2019-01-10T10:01:49Z</time>
      </trkpt>
      <trkpt lat="48.69013" lon="1.77361">
        <ele>174</ele>
        <time>2019-01-10T10:01:53Z</time>
      </trkpt>
      <trkpt lat="48.69007" lon="1.77357">
        <ele>173</ele>
        <time>2019-01-10T10:01:59Z</time>
      </trkpt>
      <trkpt lat="48.69001" lon="1.77356">
        <ele>173</ele>
        <time>2019-01-10T10:02:03Z</time>
      </trkpt>
      <trkpt lat="48.68996" lon="1.77358">
        <ele>169</ele>
        <time>2019-01-10T10:02:09Z</time>
      </trkpt>
      <trkpt lat="48.68991" lon="1.77355">
        <ele>169</ele>
        <time>2019-01-10T10:02:13Z</time>
      </trkpt>
      <trkpt lat="48.68987" lon="1.77362">
        <ele>169</ele>
        <time>2019-01-10T10:02:19Z</time>
      </trkpt>
      <trkpt lat="48.68984" lon="1.77368">
        <ele>169</ele>
        <time>2019-01-10T10:02:25Z</time>
      </trkpt>
      <trkpt lat="48.68981" lon="1.77377">
        <ele>169</ele>
        <time>2019-01-10T10:02:31Z</time>
      </trkpt>
      <trkpt lat="48.6898" lon="1.77385">
        <ele>169</ele>
        <time>2019-01-10T10:02:37Z</time>
      </trkpt>
      <trkpt lat="48.68975" lon="1.77396">
        <ele>169</ele>
        <time>2019-01-10T10:02:41Z</time>
      </trkpt>
      <trkpt lat="48.68972" lon="1.77408">
        <ele>169</ele>
        <time>2019-01-10T10:02:45Z</time>
      </trkpt>
      <trkpt lat="48.68969" lon="1.77416">
        <ele>169</ele>
        <time>2019-01-10T10:02:49Z</time>
      </trkpt>
      <trkpt lat="48.68966" lon="1.77424">
        <ele>171</ele>
        <time>2019-01-10T10:02:53Z</time>
      </trkpt>
      <trkpt lat="48.68964" lon="1.77431">
        <ele>170</ele>
        <time>2019-01-10T10:02:57Z</time>
      </trkpt>
      <trkpt lat="48.6896" lon="1.77439">
        <ele>170</ele>
        <time>2019-01-10T10:03:01Z</time>
      </trkpt>
      <trkpt lat="48.68958" lon="1.77447">
        <ele>170</ele>
        <time>2019-01-10T10:03:05Z</time>
      </trkpt>
      <trkpt lat="48.68958" lon="1.77457">
        <ele>170</ele>
        <time>2019-01-10T10:03:09Z</time>
      </trkpt>
      <trkpt lat="48.68958" lon="1.77464">
        <ele>171</ele>
        <time>2019-01-10T10:03:13Z</time>
      </trkpt>
      <trkpt lat="48.68959" lon="1.77475">
        <ele>171</ele>
        <time>2019-01-10T10:03:17Z</time>
      </trkpt>
      <trkpt lat="48.68959" lon="1.77486">
        <ele>171</ele>
        <time>2019-01-10T10:03:21Z</time>
      </trkpt>
      <trkpt lat="48.6896" lon="1.77493">
        <ele>171</ele>
        <time>2019-01-10T10:03:25Z</time>
      </trkpt>
      <trkpt lat="48.68962" lon="1.77499">
        <ele>171</ele>
        <time>2019-01-10T10:03:29Z</time>
      </trkpt>
      <trkpt lat="48.68964" lon="1.77506">
        <ele>172</ele>
        <time>2019-01-10T10:03:35Z</time>
      </trkpt>
      <trkpt lat="48.68966" lon="1.77512">
        <ele>172</ele>
        <time>2019-01-10T10:03:39Z</time>
      </trkpt>
      <trkpt lat="48.68969" lon="1.7752">
        <ele>173</ele>
        <time>2019-01-10T10:03:45Z</time>
      </trkpt>
      <trkpt lat="48.6897" lon="1.77527">
        <ele>173</ele>
        <time>2019-01-10T10:03:49Z</time>
      </trkpt>
      <trkpt lat="48.68972" lon="1.77535">
        <ele>173</ele>
        <time>2019-01-10T10:03:53Z</time>
      </trkpt>
      <trkpt lat="48.68973" lon="1.77544">
        <ele>173</ele>
        <time>2019-01-10T10:03:57Z</time>
      </trkpt>
      <trkpt lat="48.68973" lon="1.77553">
        <ele>173</ele>
        <time>2019-01-10T10:04:01Z</time>
      </trkpt>
      <trkpt lat="48.68974" lon="1.77562">
        <ele>173</ele>
        <time>2019-01-10T10:04:05Z</time>
      </trkpt>
      <trkpt lat="48.68974" lon="1.77572">
        <ele>173</ele>
        <time>2019-01-10T10:04:11Z</time>
      </trkpt>
      <trkpt lat="48.68974" lon="1.77579">
        <ele>173</ele>
        <time>2019-01-10T10:04:13Z</time>
      </trkpt>
      <trkpt lat="48.68972" lon="1.7759">
        <ele>173</ele>
        <time>2019-01-10T10:04:17Z</time>
      </trkpt>
      <trkpt lat="48.68973" lon="1.77599">
        <ele>173</ele>
        <time>2019-01-10T10:04:23Z</time>
      </trkpt>
      <trkpt lat="48.68976" lon="1.77607">
        <ele>173</ele>
        <time>2019-01-10T10:04:29Z</time>
      </trkpt>
      <trkpt lat="48.68977" lon="1.77615">
        <ele>173</ele>
        <time>2019-01-10T10:04:35Z</time>
      </trkpt>
      <trkpt lat="48.68976" lon="1.77623">
        <ele>172</ele>
        <time>2019-01-10T10:04:39Z</time>
      </trkpt>
      <trkpt lat="48.68978" lon="1.77633">
        <ele>172</ele>
        <time>2019-01-10T10:04:43Z</time>
      </trkpt>
      <trkpt lat="48.6898" lon="1.7764">
        <ele>173</ele>
        <time>2019-01-10T10:04:47Z</time>
      </trkpt>
      <trkpt lat="48.6898" lon="1.77649">
        <ele>173</ele>
        <time>2019-01-10T10:04:51Z</time>
      </trkpt>
      <trkpt lat="48.68981" lon="1.77659">
        <ele>173</ele>
        <time>2019-01-10T10:04:55Z</time>
      </trkpt>
      <trkpt lat="48.68983" lon="1.77668">
        <ele>173</ele>
        <time>2019-01-10T10:04:59Z</time>
      </trkpt>
      <trkpt lat="48.68987" lon="1.77674">
        <ele>173</ele>
        <time>2019-01-10T10:05:03Z</time>
      </trkpt>
      <trkpt lat="48.68987" lon="1.77684">
        <ele>173</ele>
        <time>2019-01-10T10:05:05Z</time>
      </trkpt>
      <trkpt lat="48.68988" lon="1.77693">
        <ele>173</ele>
        <time>2019-01-10T10:05:09Z</time>
      </trkpt>
      <trkpt lat="48.68989" lon="1.777">
        <ele>173</ele>
        <time>2019-01-10T10:05:13Z</time>
      </trkpt>
      <trkpt lat="48.68991" lon="1.77709">
        <ele>174</ele>
        <time>2019-01-10T10:05:17Z</time>
      </trkpt>
      <trkpt lat="48.68992" lon="1.77716">
        <ele>174</ele>
        <time>2019-01-10T10:05:21Z</time>
      </trkpt>
      <trkpt lat="48.68996" lon="1.77725">
        <ele>174</ele>
        <time>2019-01-10T10:05:27Z</time>
      </trkpt>
      <trkpt lat="48.68996" lon="1.77736">
        <ele>174</ele>
        <time>2019-01-10T10:05:31Z</time>
      </trkpt>
      <trkpt lat="48.68998" lon="1.77745">
        <ele>175</ele>
        <time>2019-01-10T10:05:37Z</time>
      </trkpt>
      <trkpt lat="48.69" lon="1.77752">
        <ele>175</ele>
        <time>2019-01-10T10:05:41Z</time>
      </trkpt>
      <trkpt lat="48.69001" lon="1.77762">
        <ele>176</ele>
        <time>2019-01-10T10:05:45Z</time>
      </trkpt>
      <trkpt lat="48.69002" lon="1.77771">
        <ele>176</ele>
        <time>2019-01-10T10:05:49Z</time>
      </trkpt>
      <trkpt lat="48.69003" lon="1.77777">
        <ele>177</ele>
        <time>2019-01-10T10:05:53Z</time>
      </trkpt>
      <trkpt lat="48.69004" lon="1.77787">
        <ele>177</ele>
        <time>2019-01-10T10:05:57Z</time>
      </trkpt>
      <trkpt lat="48.69005" lon="1.77794">
        <ele>177</ele>
        <time>2019-01-10T10:06:01Z</time>
      </trkpt>
      <trkpt lat="48.6901" lon="1.77799">
        <ele>177</ele>
        <time>2019-01-10T10:06:07Z</time>
      </trkpt>
      <trkpt lat="48.69011" lon="1.77806">
        <ele>177</ele>
        <time>2019-01-10T10:06:11Z</time>
      </trkpt>
      <trkpt lat="48.69014" lon="1.77815">
        <ele>177</ele>
        <time>2019-01-10T10:06:17Z</time>
      </trkpt>
      <trkpt lat="48.69018" lon="1.7782">
        <ele>177</ele>
        <time>2019-01-10T10:06:21Z</time>
      </trkpt>
      <trkpt lat="48.69021" lon="1.77829">
        <ele>177</ele>
        <time>2019-01-10T10:06:27Z</time>
      </trkpt>
      <trkpt lat="48.69024" lon="1.77837">
        <ele>178</ele>
        <time>2019-01-10T10:06:33Z</time>
      </trkpt>
      <trkpt lat="48.69028" lon="1.77842">
        <ele>178</ele>
        <time>2019-01-10T10:06:37Z</time>
      </trkpt>
      <trkpt lat="48.69034" lon="1.77848">
        <ele>178</ele>
        <time>2019-01-10T10:06:43Z</time>
      </trkpt>
      <trkpt lat="48.69041" lon="1.77853">
        <ele>178</ele>
        <time>2019-01-10T10:06:47Z</time>
      </trkpt>
      <trkpt lat="48.69046" lon="1.77858">
        <ele>178</ele>
        <time>2019-01-10T10:06:51Z</time>
      </trkpt>
      <trkpt lat="48.69051" lon="1.77856">
        <ele>178</ele>
        <time>2019-01-10T10:06:59Z</time>
      </trkpt>
      <trkpt lat="48.69057" lon="1.77851">
        <ele>179</ele>
        <time>2019-01-10T10:07:07Z</time>
      </trkpt>
      <trkpt lat="48.69062" lon="1.77853">
        <ele>179</ele>
        <time>2019-01-10T10:07:13Z</time>
      </trkpt>
      <trkpt lat="48.69066" lon="1.77858">
        <ele>179</ele>
        <time>2019-01-10T10:07:19Z</time>
      </trkpt>
      <trkpt lat="48.69067" lon="1.77867">
        <ele>179</ele>
        <time>2019-01-10T10:07:25Z</time>
      </trkpt>
      <trkpt lat="48.69072" lon="1.77873">
        <ele>179</ele>
        <time>2019-01-10T10:07:29Z</time>
      </trkpt>
      <trkpt lat="48.69074" lon="1.77879">
        <ele>179</ele>
        <time>2019-01-10T10:07:35Z</time>
      </trkpt>
      <trkpt lat="48.69079" lon="1.77884">
        <ele>179</ele>
        <time>2019-01-10T10:07:41Z</time>
      </trkpt>
      <trkpt lat="48.69083" lon="1.77891">
        <ele>179</ele>
        <time>2019-01-10T10:07:49Z</time>
      </trkpt>
      <trkpt lat="48.69089" lon="1.77897">
        <ele>180</ele>
        <time>2019-01-10T10:07:55Z</time>
      </trkpt>
      <trkpt lat="48.69091" lon="1.77903">
        <ele>180</ele>
        <time>2019-01-10T10:08:01Z</time>
      </trkpt>
      <trkpt lat="48.69095" lon="1.77912">
        <ele>180</ele>
        <time>2019-01-10T10:08:07Z</time>
      </trkpt>
      <trkpt lat="48.69099" lon="1.77919">
        <ele>180</ele>
        <time>2019-01-10T10:08:13Z</time>
      </trkpt>
      <trkpt lat="48.691" lon="1.77926">
        <ele>180</ele>
        <time>2019-01-10T10:08:17Z</time>
      </trkpt>
      <trkpt lat="48.69105" lon="1.77933">
        <ele>180</ele>
        <time>2019-01-10T10:08:23Z</time>
      </trkpt>
      <trkpt lat="48.69108" lon="1.77938">
        <ele>180</ele>
        <time>2019-01-10T10:08:27Z</time>
      </trkpt>
      <trkpt lat="48.69111" lon="1.77943">
        <ele>180</ele>
        <time>2019-01-10T10:08:33Z</time>
      </trkpt>
      <trkpt lat="48.69115" lon="1.77948">
        <ele>180</ele>
        <time>2019-01-10T10:08:39Z</time>
      </trkpt>
      <trkpt lat="48.69117" lon="1.77955">
        <ele>180</ele>
        <time>2019-01-10T10:08:43Z</time>
      </trkpt>
      <trkpt lat="48.6912" lon="1.77961">
        <ele>180</ele>
        <time>2019-01-10T10:08:45Z</time>
      </trkpt>
      <trkpt lat="48.69122" lon="1.77969">
        <ele>180</ele>
        <time>2019-01-10T10:08:49Z</time>
      </trkpt>
      <trkpt lat="48.69125" lon="1.77976">
        <ele>180</ele>
        <time>2019-01-10T10:08:53Z</time>
      </trkpt>
      <trkpt lat="48.69129" lon="1.77984">
        <ele>180</ele>
        <time>2019-01-10T10:08:57Z</time>
      </trkpt>
      <trkpt lat="48.69132" lon="1.7799">
        <ele>180</ele>
        <time>2019-01-10T10:09:01Z</time>
      </trkpt>
      <trkpt lat="48.69136" lon="1.78">
        <ele>180</ele>
        <time>2019-01-10T10:09:05Z</time>
      </trkpt>
      <trkpt lat="48.69138" lon="1.78008">
        <ele>180</ele>
        <time>2019-01-10T10:09:11Z</time>
      </trkpt>
      <trkpt lat="48.69142" lon="1.78019">
        <ele>180</ele>
        <time>2019-01-10T10:09:15Z</time>
      </trkpt>
      <trkpt lat="48.69144" lon="1.78031">
        <ele>180</ele>
        <time>2019-01-10T10:09:19Z</time>
      </trkpt>
      <trkpt lat="48.69145" lon="1.78039">
        <ele>180</ele>
        <time>2019-01-10T10:09:25Z</time>
      </trkpt>
      <trkpt lat="48.69145" lon="1.78048">
        <ele>180</ele>
        <time>2019-01-10T10:09:31Z</time>
      </trkpt>
      <trkpt lat="48.69141" lon="1.78058">
        <ele>180</ele>
        <time>2019-01-10T10:09:37Z</time>
      </trkpt>
      <trkpt lat="48.69136" lon="1.78064">
        <ele>180</ele>
        <time>2019-01-10T10:09:47Z</time>
      </trkpt>
      <trkpt lat="48.69129" lon="1.7807">
        <ele>180</ele>
        <time>2019-01-10T10:09:53Z</time>
      </trkpt>
      <trkpt lat="48.69124" lon="1.78069">
        <ele>180</ele>
        <time>2019-01-10T10:09:57Z</time>
      </trkpt>
      <trkpt lat="48.69119" lon="1.78071">
        <ele>180</ele>
        <time>2019-01-10T10:10:01Z</time>
      </trkpt>
      <trkpt lat="48.69111" lon="1.7807">
        <ele>180</ele>
        <time>2019-01-10T10:10:07Z</time>
      </trkpt>
      <trkpt lat="48.69105" lon="1.78071">
        <ele>180</ele>
        <time>2019-01-10T10:10:11Z</time>
      </trkpt>
      <trkpt lat="48.69099" lon="1.78069">
        <ele>180</ele>
        <time>2019-01-10T10:10:15Z</time>
      </trkpt>
      <trkpt lat="48.69094" lon="1.78067">
        <ele>180</ele>
        <time>2019-01-10T10:10:19Z</time>
      </trkpt>
      <trkpt lat="48.69087" lon="1.78068">
        <ele>180</ele>
        <time>2019-01-10T10:10:23Z</time>
      </trkpt>
      <trkpt lat="48.69081" lon="1.78068">
        <ele>180</ele>
        <time>2019-01-10T10:10:27Z</time>
      </trkpt>
      <trkpt lat="48.69075" lon="1.78067">
        <ele>180</ele>
        <time>2019-01-10T10:10:31Z</time>
      </trkpt>
      <trkpt lat="48.69068" lon="1.78066">
        <ele>180</ele>
        <time>2019-01-10T10:10:35Z</time>
      </trkpt>
      <trkpt lat="48.69063" lon="1.78063">
        <ele>180</ele>
        <time>2019-01-10T10:10:39Z</time>
      </trkpt>
      <trkpt lat="48.69057" lon="1.78063">
        <ele>180</ele>
        <time>2019-01-10T10:10:47Z</time>
      </trkpt>
      <trkpt lat="48.69053" lon="1.78064">
        <ele>180</ele>
        <time>2019-01-10T10:10:53Z</time>
      </trkpt>
      <trkpt lat="48.69049" lon="1.78068">
        <ele>180</ele>
        <time>2019-01-10T10:10:59Z</time>
      </trkpt>
      <trkpt lat="48.69044" lon="1.78069">
        <ele>180</ele>
        <time>2019-01-10T10:11:05Z</time>
      </trkpt>
      <trkpt lat="48.6904" lon="1.78064">
        <ele>180</ele>
        <time>2019-01-10T10:11:11Z</time>
      </trkpt>
      <trkpt lat="48.69035" lon="1.7806">
        <ele>180</ele>
        <time>2019-01-10T10:11:15Z</time>
      </trkpt>
      <trkpt lat="48.69029" lon="1.78057">
        <ele>180</ele>
        <time>2019-01-10T10:11:21Z</time>
      </trkpt>
      <trkpt lat="48.69024" lon="1.78051">
        <ele>180</ele>
        <time>2019-01-10T10:11:27Z</time>
      </trkpt>
      <trkpt lat="48.69017" lon="1.78045">
        <ele>180</ele>
        <time>2019-01-10T10:11:37Z</time>
      </trkpt>
      <trkpt lat="48.69012" lon="1.78044">
        <ele>180</ele>
        <time>2019-01-10T10:11:41Z</time>
      </trkpt>
      <trkpt lat="48.69007" lon="1.7804">
        <ele>180</ele>
        <time>2019-01-10T10:11:47Z</time>
      </trkpt>
      <trkpt lat="48.69001" lon="1.78039">
        <ele>180</ele>
        <time>2019-01-10T10:11:55Z</time>
      </trkpt>
      <trkpt lat="48.68996" lon="1.7804">
        <ele>180</ele>
        <time>2019-01-10T10:12:01Z</time>
      </trkpt>
      <trkpt lat="48.6899" lon="1.78042">
        <ele>180</ele>
        <time>2019-01-10T10:12:07Z</time>
      </trkpt>
      <trkpt lat="48.68984" lon="1.78042">
        <ele>180</ele>
        <time>2019-01-10T10:12:15Z</time>
      </trkpt>
      <trkpt lat="48.68985" lon="1.78035">
        <ele>180</ele>
        <time>2019-01-10T10:12:37Z</time>
      </trkpt>
      <trkpt lat="48.6899" lon="1.78031">
        <ele>180</ele>
        <time>2019-01-10T10:12:43Z</time>
      </trkpt>
      <trkpt lat="48.68995" lon="1.78027">
        <ele>180</ele>
        <time>2019-01-10T10:12:49Z</time>
      </trkpt>
      <trkpt lat="48.68998" lon="1.78022">
        <ele>180</ele>
        <time>2019-01-10T10:12:55Z</time>
      </trkpt>
      <trkpt lat="48.69003" lon="1.78017">
        <ele>180</ele>
        <time>2019-01-10T10:12:59Z</time>
      </trkpt>
      <trkpt lat="48.69008" lon="1.78013">
        <ele>179</ele>
        <time>2019-01-10T10:13:05Z</time>
      </trkpt>
      <trkpt lat="48.69013" lon="1.7801">
        <ele>180</ele>
        <time>2019-01-10T10:13:15Z</time>
      </trkpt>
      <trkpt lat="48.69014" lon="1.78001">
        <ele>179</ele>
        <time>2019-01-10T10:13:27Z</time>
      </trkpt>
      <trkpt lat="48.69013" lon="1.77995">
        <ele>179</ele>
        <time>2019-01-10T10:13:31Z</time>
      </trkpt>
      <trkpt lat="48.69012" lon="1.77985">
        <ele>179</ele>
        <time>2019-01-10T10:13:37Z</time>
      </trkpt>
      <trkpt lat="48.69011" lon="1.77978">
        <ele>179</ele>
        <time>2019-01-10T10:13:41Z</time>
      </trkpt>
      <trkpt lat="48.6901" lon="1.77968">
        <ele>179</ele>
        <time>2019-01-10T10:13:47Z</time>
      </trkpt>
      <trkpt lat="48.69009" lon="1.77961">
        <ele>179</ele>
        <time>2019-01-10T10:13:51Z</time>
      </trkpt>
      <trkpt lat="48.69008" lon="1.77953">
        <ele>179</ele>
        <time>2019-01-10T10:13:57Z</time>
      </trkpt>
      <trkpt lat="48.6901" lon="1.77946">
        <ele>178</ele>
        <time>2019-01-10T10:14:03Z</time>
      </trkpt>
      <trkpt lat="48.69008" lon="1.77937">
        <ele>178</ele>
        <time>2019-01-10T10:14:07Z</time>
      </trkpt>
      <trkpt lat="48.69007" lon="1.77929">
        <ele>178</ele>
        <time>2019-01-10T10:14:11Z</time>
      </trkpt>
      <trkpt lat="48.69005" lon="1.77919">
        <ele>177</ele>
        <time>2019-01-10T10:14:15Z</time>
      </trkpt>
      <trkpt lat="48.69002" lon="1.77911">
        <ele>177</ele>
        <time>2019-01-10T10:14:21Z</time>
      </trkpt>
      <trkpt lat="48.68997" lon="1.77907">
        <ele>177</ele>
        <time>2019-01-10T10:14:25Z</time>
      </trkpt>
      <trkpt lat="48.68994" lon="1.77913">
        <ele>177</ele>
        <time>2019-01-10T10:14:35Z</time>
      </trkpt>
      <trkpt lat="48.68991" lon="1.77922">
        <ele>177</ele>
        <time>2019-01-10T10:14:41Z</time>
      </trkpt>
      <trkpt lat="48.68987" lon="1.77926">
        <ele>177</ele>
        <time>2019-01-10T10:14:49Z</time>
      </trkpt>
      <trkpt lat="48.68982" lon="1.77928">
        <ele>177</ele>
        <time>2019-01-10T10:14:53Z</time>
      </trkpt>
      <trkpt lat="48.68976" lon="1.77932">
        <ele>178</ele>
        <time>2019-01-10T10:14:59Z</time>
      </trkpt>
      <trkpt lat="48.68971" lon="1.77934">
        <ele>178</ele>
        <time>2019-01-10T10:15:05Z</time>
      </trkpt>
      <trkpt lat="48.68966" lon="1.77935">
        <ele>178</ele>
        <time>2019-01-10T10:15:07Z</time>
      </trkpt>
      <trkpt lat="48.68959" lon="1.77936">
        <ele>178</ele>
        <time>2019-01-10T10:15:11Z</time>
      </trkpt>
      <trkpt lat="48.68953" lon="1.77938">
        <ele>178</ele>
        <time>2019-01-10T10:15:15Z</time>
      </trkpt>
      <trkpt lat="48.68947" lon="1.77939">
        <ele>178</ele>
        <time>2019-01-10T10:15:19Z</time>
      </trkpt>
      <trkpt lat="48.68941" lon="1.77938">
        <ele>177</ele>
        <time>2019-01-10T10:15:23Z</time>
      </trkpt>
      <trkpt lat="48.68935" lon="1.77937">
        <ele>177</ele>
        <time>2019-01-10T10:15:27Z</time>
      </trkpt>
      <trkpt lat="48.68929" lon="1.77939">
        <ele>177</ele>
        <time>2019-01-10T10:15:31Z</time>
      </trkpt>
      <trkpt lat="48.68925" lon="1.77938">
        <ele>177</ele>
        <time>2019-01-10T10:15:35Z</time>
      </trkpt>
      <trkpt lat="48.68918" lon="1.7794">
        <ele>177</ele>
        <time>2019-01-10T10:15:39Z</time>
      </trkpt>
      <trkpt lat="48.6891" lon="1.77943">
        <ele>177</ele>
        <time>2019-01-10T10:15:43Z</time>
      </trkpt>
      <trkpt lat="48.68905" lon="1.77946">
        <ele>177</ele>
        <time>2019-01-10T10:15:47Z</time>
      </trkpt>
      <trkpt lat="48.689" lon="1.7795">
        <ele>177</ele>
        <time>2019-01-10T10:15:51Z</time>
      </trkpt>
      <trkpt lat="48.68895" lon="1.77956">
        <ele>177</ele>
        <time>2019-01-10T10:15:57Z</time>
      </trkpt>
      <trkpt lat="48.6889" lon="1.7796">
        <ele>177</ele>
        <time>2019-01-10T10:16:01Z</time>
      </trkpt>
      <trkpt lat="48.68881" lon="1.77965">
        <ele>177</ele>
        <time>2019-01-10T10:16:05Z</time>
      </trkpt>
      <trkpt lat="48.68874" lon="1.77968">
        <ele>177</ele>
        <time>2019-01-10T10:16:09Z</time>
      </trkpt>
      <trkpt lat="48.68868" lon="1.7797">
        <ele>178</ele>
        <time>2019-01-10T10:16:13Z</time>
      </trkpt>
      <trkpt lat="48.68862" lon="1.77972">
        <ele>178</ele>
        <time>2019-01-10T10:16:17Z</time>
      </trkpt>
      <trkpt lat="48.68856" lon="1.77975">
        <ele>178</ele>
        <time>2019-01-10T10:16:21Z</time>
      </trkpt>
      <trkpt lat="48.68851" lon="1.77977">
        <ele>178</ele>
        <time>2019-01-10T10:16:25Z</time>
      </trkpt>
      <trkpt lat="48.68843" lon="1.77977">
        <ele>178</ele>
        <time>2019-01-10T10:16:31Z</time>
      </trkpt>
      <trkpt lat="48.68838" lon="1.77976">
        <ele>178</ele>
        <time>2019-01-10T10:16:35Z</time>
      </trkpt>
      <trkpt lat="48.68833" lon="1.77975">
        <ele>178</ele>
        <time>2019-01-10T10:16:39Z</time>
      </trkpt>
      <trkpt lat="48.68828" lon="1.77975">
        <ele>178</ele>
        <time>2019-01-10T10:16:43Z</time>
      </trkpt>
      <trkpt lat="48.68822" lon="1.77976">
        <ele>178</ele>
        <time>2019-01-10T10:16:47Z</time>
      </trkpt>
      <trkpt lat="48.68816" lon="1.77976">
        <ele>178</ele>
        <time>2019-01-10T10:16:53Z</time>
      </trkpt>
      <trkpt lat="48.68813" lon="1.77971">
        <ele>178</ele>
        <time>2019-01-10T10:17:09Z</time>
      </trkpt>
      <trkpt lat="48.68817" lon="1.77966">
        <ele>178</ele>
        <time>2019-01-10T10:17:17Z</time>
      </trkpt>
      <trkpt lat="48.68818" lon="1.77958">
        <ele>178</ele>
        <time>2019-01-10T10:17:25Z</time>
      </trkpt>
      <trkpt lat="48.68821" lon="1.77944">
        <ele>177</ele>
        <time>2019-01-10T10:17:31Z</time>
      </trkpt>
      <trkpt lat="48.68822" lon="1.77937">
        <ele>177</ele>
        <time>2019-01-10T10:17:35Z</time>
      </trkpt>
      <trkpt lat="48.68822" lon="1.77929">
        <ele>176</ele>
        <time>2019-01-10T10:17:39Z</time>
      </trkpt>
      <trkpt lat="48.68821" lon="1.77921">
        <ele>176</ele>
        <time>2019-01-10T10:17:57Z</time>
      </trkpt>
      <trkpt lat="48.68819" lon="1.77913">
        <ele>175</ele>
        <time>2019-01-10T10:18:03Z</time>
      </trkpt>
      <trkpt lat="48.68818" lon="1.77903">
        <ele>175</ele>
        <time>2019-01-10T10:18:15Z</time>
      </trkpt>
      <trkpt lat="48.68817" lon="1.77896">
        <ele>175</ele>
        <time>2019-01-10T10:18:19Z</time>
      </trkpt>
      <trkpt lat="48.68813" lon="1.77891">
        <ele>175</ele>
        <time>2019-01-10T10:18:23Z</time>
      </trkpt>
      <trkpt lat="48.6881" lon="1.77885">
        <ele>175</ele>
        <time>2019-01-10T10:18:27Z</time>
      </trkpt>
      <trkpt lat="48.68806" lon="1.77879">
        <ele>175</ele>
        <time>2019-01-10T10:18:35Z</time>
      </trkpt>
      <trkpt lat="48.68802" lon="1.77874">
        <ele>175</ele>
        <time>2019-01-10T10:18:43Z</time>
      </trkpt>
      <trkpt lat="48.68799" lon="1.77866">
        <ele>175</ele>
        <time>2019-01-10T10:19:07Z</time>
      </trkpt>
      <trkpt lat="48.68794" lon="1.77864">
        <ele>175</ele>
        <time>2019-01-10T10:19:13Z</time>
      </trkpt>
      <trkpt lat="48.6879" lon="1.77859">
        <ele>174</ele>
        <time>2019-01-10T10:19:19Z</time>
      </trkpt>
      <trkpt lat="48.68785" lon="1.77852">
        <ele>174</ele>
        <time>2019-01-10T10:19:25Z</time>
      </trkpt>
      <trkpt lat="48.6878" lon="1.77847">
        <ele>174</ele>
        <time>2019-01-10T10:19:31Z</time>
      </trkpt>
      <trkpt lat="48.68775" lon="1.77843">
        <ele>174</ele>
        <time>2019-01-10T10:19:37Z</time>
      </trkpt>
      <trkpt lat="48.68769" lon="1.7784">
        <ele>173</ele>
        <time>2019-01-10T10:19:43Z</time>
      </trkpt>
      <trkpt lat="48.68764" lon="1.77839">
        <ele>173</ele>
        <time>2019-01-10T10:19:49Z</time>
      </trkpt>
      <trkpt lat="48.68759" lon="1.77838">
        <ele>172</ele>
        <time>2019-01-10T10:19:53Z</time>
      </trkpt>
      <trkpt lat="48.68755" lon="1.77835">
        <ele>172</ele>
        <time>2019-01-10T10:19:57Z</time>
      </trkpt>
      <trkpt lat="48.6875" lon="1.77831">
        <ele>171</ele>
        <time>2019-01-10T10:20:01Z</time>
      </trkpt>
      <trkpt lat="48.68744" lon="1.77828">
        <ele>171</ele>
        <time>2019-01-10T10:20:07Z</time>
      </trkpt>
      <trkpt lat="48.68739" lon="1.77826">
        <ele>171</ele>
        <time>2019-01-10T10:20:11Z</time>
      </trkpt>
      <trkpt lat="48.68734" lon="1.77822">
        <ele>171</ele>
        <time>2019-01-10T10:20:15Z</time>
      </trkpt>
      <trkpt lat="48.68729" lon="1.77817">
        <ele>171</ele>
        <time>2019-01-10T10:20:19Z</time>
      </trkpt>
      <trkpt lat="48.68725" lon="1.77814">
        <ele>171</ele>
        <time>2019-01-10T10:20:23Z</time>
      </trkpt>
      <trkpt lat="48.6872" lon="1.77813">
        <ele>171</ele>
        <time>2019-01-10T10:20:27Z</time>
      </trkpt>
      <trkpt lat="48.68715" lon="1.77809">
        <ele>171</ele>
        <time>2019-01-10T10:20:33Z</time>
      </trkpt>
      <trkpt lat="48.68709" lon="1.77805">
        <ele>171</ele>
        <time>2019-01-10T10:20:39Z</time>
      </trkpt>
      <trkpt lat="48.68706" lon="1.77798">
        <ele>171</ele>
        <time>2019-01-10T10:20:47Z</time>
      </trkpt>
      <trkpt lat="48.68706" lon="1.7779">
        <ele>170</ele>
        <time>2019-01-10T10:20:53Z</time>
      </trkpt>
      <trkpt lat="48.68704" lon="1.77783">
        <ele>170</ele>
        <time>2019-01-10T10:20:57Z</time>
      </trkpt>
      <trkpt lat="48.68704" lon="1.77777">
        <ele>170</ele>
        <time>2019-01-10T10:21:05Z</time>
      </trkpt>
      <trkpt lat="48.68703" lon="1.77769">
        <ele>170</ele>
        <time>2019-01-10T10:21:09Z</time>
      </trkpt>
      <trkpt lat="48.68701" lon="1.7776">
        <ele>170</ele>
        <time>2019-01-10T10:21:17Z</time>
      </trkpt>
      <trkpt lat="48.68702" lon="1.77751">
        <ele>170</ele>
        <time>2019-01-10T10:21:25Z</time>
      </trkpt>
      <trkpt lat="48.68702" lon="1.77743">
        <ele>169</ele>
        <time>2019-01-10T10:21:31Z</time>
      </trkpt>
      <trkpt lat="48.68702" lon="1.77736">
        <ele>169</ele>
        <time>2019-01-10T10:21:43Z</time>
      </trkpt>
      <trkpt lat="48.68703" lon="1.77729">
        <ele>169</ele>
        <time>2019-01-10T10:22:35Z</time>
      </trkpt>
      <trkpt lat="48.68701" lon="1.77722">
        <ele>168</ele>
        <time>2019-01-10T10:23:39Z</time>
      </trkpt>
      <trkpt lat="48.68699" lon="1.77715">
        <ele>168</ele>
        <time>2019-01-10T10:24:07Z</time>
      </trkpt>
      <trkpt lat="48.687" lon="1.77708">
        <ele>168</ele>
        <time>2019-01-10T10:24:19Z</time>
      </trkpt>
      <trkpt lat="48.687" lon="1.77701">
        <ele>168</ele>
        <time>2019-01-10T10:24:25Z</time>
      </trkpt>
      <trkpt lat="48.68699" lon="1.77692">
        <ele>168</ele>
        <time>2019-01-10T10:24:29Z</time>
      </trkpt>
      <trkpt lat="48.68699" lon="1.77684">
        <ele>168</ele>
        <time>2019-01-10T10:24:35Z</time>
      </trkpt>
      <trkpt lat="48.68697" lon="1.77675">
        <ele>168</ele>
        <time>2019-01-10T10:24:41Z</time>
      </trkpt>
      <trkpt lat="48.68696" lon="1.77667">
        <ele>168</ele>
        <time>2019-01-10T10:24:47Z</time>
      </trkpt>
      <trkpt lat="48.68695" lon="1.77659">
        <ele>166</ele>
        <time>2019-01-10T10:24:53Z</time>
      </trkpt>
      <trkpt lat="48.68693" lon="1.77652">
        <ele>166</ele>
        <time>2019-01-10T10:24:59Z</time>
      </trkpt>
      <trkpt lat="48.68691" lon="1.77643">
        <ele>166</ele>
        <time>2019-01-10T10:25:03Z</time>
      </trkpt>
      <trkpt lat="48.68692" lon="1.77635">
        <ele>166</ele>
        <time>2019-01-10T10:25:09Z</time>
      </trkpt>
      <trkpt lat="48.6869" lon="1.77624">
        <ele>166</ele>
        <time>2019-01-10T10:25:13Z</time>
      </trkpt>
      <trkpt lat="48.68691" lon="1.77616">
        <ele>166</ele>
        <time>2019-01-10T10:25:17Z</time>
      </trkpt>
      <trkpt lat="48.68692" lon="1.7761">
        <ele>166</ele>
        <time>2019-01-10T10:25:21Z</time>
      </trkpt>
      <trkpt lat="48.68693" lon="1.77601">
        <ele>166</ele>
        <time>2019-01-10T10:25:27Z</time>
      </trkpt>
      <trkpt lat="48.68693" lon="1.77592">
        <ele>166</ele>
        <time>2019-01-10T10:25:31Z</time>
      </trkpt>
      <trkpt lat="48.68692" lon="1.77583">
        <ele>164</ele>
        <time>2019-01-10T10:25:35Z</time>
      </trkpt>
      <trkpt lat="48.6869" lon="1.77574">
        <ele>164</ele>
        <time>2019-01-10T10:25:39Z</time>
      </trkpt>
      <trkpt lat="48.68688" lon="1.77562">
        <ele>164</ele>
        <time>2019-01-10T10:25:43Z</time>
      </trkpt>
      <trkpt lat="48.68685" lon="1.77555">
        <ele>164</ele>
        <time>2019-01-10T10:25:47Z</time>
      </trkpt>
      <trkpt lat="48.6868" lon="1.77548">
        <ele>164</ele>
        <time>2019-01-10T10:25:51Z</time>
      </trkpt>
      <trkpt lat="48.68675" lon="1.77542">
        <ele>164</ele>
        <time>2019-01-10T10:25:55Z</time>
      </trkpt>
      <trkpt lat="48.68673" lon="1.77535">
        <ele>164</ele>
        <time>2019-01-10T10:26:07Z</time>
      </trkpt>
      <trkpt lat="48.68675" lon="1.77543">
        <ele>164</ele>
        <time>2019-01-10T10:26:15Z</time>
      </trkpt>
      <trkpt lat="48.68675" lon="1.7755">
        <ele>164</ele>
        <time>2019-01-10T10:26:19Z</time>
      </trkpt>
      <trkpt lat="48.68674" lon="1.77556">
        <ele>164</ele>
        <time>2019-01-10T10:26:23Z</time>
      </trkpt>
      <trkpt lat="48.68673" lon="1.77563">
        <ele>164</ele>
        <time>2019-01-10T10:26:29Z</time>
      </trkpt>
      <trkpt lat="48.68674" lon="1.7757">
        <ele>165</ele>
        <time>2019-01-10T10:26:33Z</time>
      </trkpt>
      <trkpt lat="48.68675" lon="1.7758">
        <ele>165</ele>
        <time>2019-01-10T10:26:39Z</time>
      </trkpt>
      <trkpt lat="48.68675" lon="1.77587">
        <ele>165</ele>
        <time>2019-01-10T10:26:45Z</time>
      </trkpt>
      <trkpt lat="48.68675" lon="1.77596">
        <ele>165</ele>
        <time>2019-01-10T10:26:51Z</time>
      </trkpt>
      <trkpt lat="48.68673" lon="1.77604">
        <ele>166</ele>
        <time>2019-01-10T10:26:55Z</time>
      </trkpt>
      <trkpt lat="48.68673" lon="1.77611">
        <ele>166</ele>
        <time>2019-01-10T10:26:59Z</time>
      </trkpt>
      <trkpt lat="48.68673" lon="1.77618">
        <ele>166</ele>
        <time>2019-01-10T10:27:03Z</time>
      </trkpt>
      <trkpt lat="48.68673" lon="1.77627">
        <ele>166</ele>
        <time>2019-01-10T10:27:09Z</time>
      </trkpt>
      <trkpt lat="48.68673" lon="1.77635">
        <ele>166</ele>
        <time>2019-01-10T10:27:13Z</time>
      </trkpt>
      <trkpt lat="48.68672" lon="1.77642">
        <ele>166</ele>
        <time>2019-01-10T10:27:19Z</time>
      </trkpt>
      <trkpt lat="48.68669" lon="1.77648">
        <ele>166</ele>
        <time>2019-01-10T10:27:25Z</time>
      </trkpt>
      <trkpt lat="48.68667" lon="1.77656">
        <ele>167</ele>
        <time>2019-01-10T10:27:33Z</time>
      </trkpt>
      <trkpt lat="48.68665" lon="1.77663">
        <ele>167</ele>
        <time>2019-01-10T10:27:37Z</time>
      </trkpt>
      <trkpt lat="48.68663" lon="1.77669">
        <ele>167</ele>
        <time>2019-01-10T10:27:43Z</time>
      </trkpt>
      <trkpt lat="48.68661" lon="1.77676">
        <ele>167</ele>
        <time>2019-01-10T10:27:51Z</time>
      </trkpt>
      <trkpt lat="48.68659" lon="1.77683">
        <ele>167</ele>
        <time>2019-01-10T10:27:57Z</time>
      </trkpt>
      <trkpt lat="48.68657" lon="1.77693">
        <ele>167</ele>
        <time>2019-01-10T10:28:03Z</time>
      </trkpt>
      <trkpt lat="48.68656" lon="1.777">
        <ele>167</ele>
        <time>2019-01-10T10:28:07Z</time>
      </trkpt>
      <trkpt lat="48.68651" lon="1.77707">
        <ele>167</ele>
        <time>2019-01-10T10:28:13Z</time>
      </trkpt>
      <trkpt lat="48.68648" lon="1.77712">
        <ele>168</ele>
        <time>2019-01-10T10:28:27Z</time>
      </trkpt>
      <trkpt lat="48.68648" lon="1.7772">
        <ele>168</ele>
        <time>2019-01-10T10:28:33Z</time>
      </trkpt>
      <trkpt lat="48.68648" lon="1.77728">
        <ele>168</ele>
        <time>2019-01-10T10:28:37Z</time>
      </trkpt>
      <trkpt lat="48.68647" lon="1.77736">
        <ele>168</ele>
        <time>2019-01-10T10:28:41Z</time>
      </trkpt>
      <trkpt lat="48.68646" lon="1.77747">
        <ele>168</ele>
        <time>2019-01-10T10:28:47Z</time>
      </trkpt>
      <trkpt lat="48.68649" lon="1.77755">
        <ele>169</ele>
        <time>2019-01-10T10:28:53Z</time>
      </trkpt>
      <trkpt lat="48.68651" lon="1.77762">
        <ele>169</ele>
        <time>2019-01-10T10:29:01Z</time>
      </trkpt>
      <trkpt lat="48.68655" lon="1.77765">
        <ele>169</ele>
        <time>2019-01-10T10:29:13Z</time>
      </trkpt>
      <trkpt lat="48.68658" lon="1.77772">
        <ele>170</ele>
        <time>2019-01-10T10:29:23Z</time>
      </trkpt>
      <trkpt lat="48.68662" lon="1.77776">
        <ele>170</ele>
        <time>2019-01-10T10:29:29Z</time>
      </trkpt>
      <trkpt lat="48.68662" lon="1.77784">
        <ele>170</ele>
        <time>2019-01-10T10:29:41Z</time>
      </trkpt>
      <trkpt lat="48.68665" lon="1.7779">
        <ele>170</ele>
        <time>2019-01-10T10:29:49Z</time>
      </trkpt>
      <trkpt lat="48.6867" lon="1.77797">
        <ele>171</ele>
        <time>2019-01-10T10:29:55Z</time>
      </trkpt>
      <trkpt lat="48.68674" lon="1.778">
        <ele>171</ele>
        <time>2019-01-10T10:29:59Z</time>
      </trkpt>
      <trkpt lat="48.68678" lon="1.77801">
        <ele>171</ele>
        <time>2019-01-10T10:30:07Z</time>
      </trkpt>
      <trkpt lat="48.68683" lon="1.77807">
        <ele>171</ele>
        <time>2019-01-10T10:30:13Z</time>
      </trkpt>
      <trkpt lat="48.68688" lon="1.77808">
        <ele>171</ele>
        <time>2019-01-10T10:30:19Z</time>
      </trkpt>
      <trkpt lat="48.68691" lon="1.77813">
        <ele>171</ele>
        <time>2019-01-10T10:30:25Z</time>
      </trkpt>
      <trkpt lat="48.68695" lon="1.77822">
        <ele>171</ele>
        <time>2019-01-10T10:30:31Z</time>
      </trkpt>
      <trkpt lat="48.68698" lon="1.77828">
        <ele>171</ele>
        <time>2019-01-10T10:30:35Z</time>
      </trkpt>
      <trkpt lat="48.68702" lon="1.77836">
        <ele>174</ele>
        <time>2019-01-10T10:30:39Z</time>
      </trkpt>
      <trkpt lat="48.68706" lon="1.77843">
        <ele>174</ele>
        <time>2019-01-10T10:30:43Z</time>
      </trkpt>
      <trkpt lat="48.68709" lon="1.7785">
        <ele>174</ele>
        <time>2019-01-10T10:30:47Z</time>
      </trkpt>
      <trkpt lat="48.68711" lon="1.77858">
        <ele>174</ele>
        <time>2019-01-10T10:30:51Z</time>
      </trkpt>
      <trkpt lat="48.68714" lon="1.77867">
        <ele>175</ele>
        <time>2019-01-10T10:30:55Z</time>
      </trkpt>
      <trkpt lat="48.68715" lon="1.77874">
        <ele>175</ele>
        <time>2019-01-10T10:30:59Z</time>
      </trkpt>
      <trkpt lat="48.68715" lon="1.77883">
        <ele>175</ele>
        <time>2019-01-10T10:31:03Z</time>
      </trkpt>
      <trkpt lat="48.68715" lon="1.77891">
        <ele>176</ele>
        <time>2019-01-10T10:31:07Z</time>
      </trkpt>
      <trkpt lat="48.68717" lon="1.779">
        <ele>176</ele>
        <time>2019-01-10T10:31:13Z</time>
      </trkpt>
      <trkpt lat="48.68718" lon="1.77907">
        <ele>176</ele>
        <time>2019-01-10T10:31:17Z</time>
      </trkpt>
      <trkpt lat="48.6872" lon="1.77914">
        <ele>176</ele>
        <time>2019-01-10T10:31:21Z</time>
      </trkpt>
      <trkpt lat="48.68722" lon="1.77922">
        <ele>179</ele>
        <time>2019-01-10T10:31:27Z</time>
      </trkpt>
      <trkpt lat="48.68723" lon="1.77933">
        <ele>180</ele>
        <time>2019-01-10T10:31:31Z</time>
      </trkpt>
      <trkpt lat="48.68724" lon="1.77941">
        <ele>180</ele>
        <time>2019-01-10T10:31:37Z</time>
      </trkpt>
      <trkpt lat="48.68726" lon="1.77949">
        <ele>180</ele>
        <time>2019-01-10T10:31:41Z</time>
      </trkpt>
      <trkpt lat="48.68727" lon="1.77958">
        <ele>180</ele>
        <time>2019-01-10T10:31:45Z</time>
      </trkpt>
      <trkpt lat="48.68727" lon="1.77966">
        <ele>180</ele>
        <time>2019-01-10T10:31:49Z</time>
      </trkpt>
      <trkpt lat="48.6873" lon="1.77975">
        <ele>181</ele>
        <time>2019-01-10T10:31:55Z</time>
      </trkpt>
      <trkpt lat="48.68731" lon="1.77985">
        <ele>181</ele>
        <time>2019-01-10T10:32:01Z</time>
      </trkpt>
      <trkpt lat="48.68733" lon="1.77994">
        <ele>181</ele>
        <time>2019-01-10T10:32:05Z</time>
      </trkpt>
      <trkpt lat="48.68735" lon="1.78">
        <ele>181</ele>
        <time>2019-01-10T10:32:09Z</time>
      </trkpt>
      <trkpt lat="48.68736" lon="1.78008">
        <ele>182</ele>
        <time>2019-01-10T10:32:17Z</time>
      </trkpt>
      <trkpt lat="48.6873" lon="1.78014">
        <ele>182</ele>
        <time>2019-01-10T10:32:23Z</time>
      </trkpt>
      <trkpt lat="48.68725" lon="1.78014">
        <ele>182</ele>
        <time>2019-01-10T10:32:27Z</time>
      </trkpt>
      <trkpt lat="48.68721" lon="1.78016">
        <ele>182</ele>
        <time>2019-01-10T10:32:31Z</time>
      </trkpt>
      <trkpt lat="48.68714" lon="1.78014">
        <ele>182</ele>
        <time>2019-01-10T10:32:35Z</time>
      </trkpt>
      <trkpt lat="48.68708" lon="1.78013">
        <ele>182</ele>
        <time>2019-01-10T10:32:39Z</time>
      </trkpt>
      <trkpt lat="48.68702" lon="1.78013">
        <ele>182</ele>
        <time>2019-01-10T10:32:43Z</time>
      </trkpt>
      <trkpt lat="48.68697" lon="1.78011">
        <ele>182</ele>
        <time>2019-01-10T10:32:47Z</time>
      </trkpt>
      <trkpt lat="48.6869" lon="1.78008">
        <ele>182</ele>
        <time>2019-01-10T10:32:51Z</time>
      </trkpt>
      <trkpt lat="48.68686" lon="1.78008">
        <ele>182</ele>
        <time>2019-01-10T10:32:53Z</time>
      </trkpt>
      <trkpt lat="48.68678" lon="1.78009">
        <ele>182</ele>
        <time>2019-01-10T10:32:57Z</time>
      </trkpt>
      <trkpt lat="48.68672" lon="1.7801">
        <ele>182</ele>
        <time>2019-01-10T10:33:01Z</time>
      </trkpt>
      <trkpt lat="48.68667" lon="1.7801">
        <ele>182</ele>
        <time>2019-01-10T10:33:07Z</time>
      </trkpt>
      <trkpt lat="48.68661" lon="1.78013">
        <ele>181</ele>
        <time>2019-01-10T10:33:11Z</time>
      </trkpt>
      <trkpt lat="48.68656" lon="1.78013">
        <ele>180</ele>
        <time>2019-01-10T10:33:15Z</time>
      </trkpt>
      <trkpt lat="48.68651" lon="1.78015">
        <ele>180</ele>
        <time>2019-01-10T10:33:19Z</time>
      </trkpt>
      <trkpt lat="48.68646" lon="1.78018">
        <ele>180</ele>
        <time>2019-01-10T10:33:23Z</time>
      </trkpt>
      <trkpt lat="48.68637" lon="1.78026">
        <ele>179</ele>
        <time>2019-01-10T10:33:29Z</time>
      </trkpt>
      <trkpt lat="48.68633" lon="1.78033">
        <ele>179</ele>
        <time>2019-01-10T10:33:33Z</time>
      </trkpt>
      <trkpt lat="48.68628" lon="1.78037">
        <ele>179</ele>
        <time>2019-01-10T10:33:39Z</time>
      </trkpt>
      <trkpt lat="48.68623" lon="1.78041">
        <ele>179</ele>
        <time>2019-01-10T10:33:43Z</time>
      </trkpt>
      <trkpt lat="48.6862" lon="1.78046">
        <ele>179</ele>
        <time>2019-01-10T10:33:49Z</time>
      </trkpt>
      <trkpt lat="48.68615" lon="1.78051">
        <ele>179</ele>
        <time>2019-01-10T10:33:53Z</time>
      </trkpt>
      <trkpt lat="48.68611" lon="1.78055">
        <ele>179</ele>
        <time>2019-01-10T10:33:57Z</time>
      </trkpt>
      <trkpt lat="48.68607" lon="1.78061">
        <ele>178</ele>
        <time>2019-01-10T10:34:03Z</time>
      </trkpt>
      <trkpt lat="48.68601" lon="1.78068">
        <ele>178</ele>
        <time>2019-01-10T10:34:07Z</time>
      </trkpt>
      <trkpt lat="48.68597" lon="1.78072">
        <ele>178</ele>
        <time>2019-01-10T10:34:11Z</time>
      </trkpt>
      <trkpt lat="48.68591" lon="1.78074">
        <ele>178</ele>
        <time>2019-01-10T10:34:15Z</time>
      </trkpt>
      <trkpt lat="48.68585" lon="1.78076">
        <ele>177</ele>
        <time>2019-01-10T10:34:19Z</time>
      </trkpt>
      <trkpt lat="48.68579" lon="1.7808">
        <ele>176</ele>
        <time>2019-01-10T10:34:23Z</time>
      </trkpt>
      <trkpt lat="48.68576" lon="1.78085">
        <ele>175</ele>
        <time>2019-01-10T10:34:25Z</time>
      </trkpt>
      <trkpt lat="48.68572" lon="1.78093">
        <ele>174</ele>
        <time>2019-01-10T10:34:29Z</time>
      </trkpt>
      <trkpt lat="48.6857" lon="1.78101">
        <ele>174</ele>
        <time>2019-01-10T10:34:33Z</time>
      </trkpt>
      <trkpt lat="48.68566" lon="1.78113">
        <ele>173</ele>
        <time>2019-01-10T10:34:37Z</time>
      </trkpt>
      <trkpt lat="48.68564" lon="1.7812">
        <ele>172</ele>
        <time>2019-01-10T10:34:41Z</time>
      </trkpt>
      <trkpt lat="48.68559" lon="1.78126">
        <ele>172</ele>
        <time>2019-01-10T10:34:45Z</time>
      </trkpt>
      <trkpt lat="48.68555" lon="1.78133">
        <ele>172</ele>
        <time>2019-01-10T10:34:49Z</time>
      </trkpt>
      <trkpt lat="48.68551" lon="1.78138">
        <ele>172</ele>
        <time>2019-01-10T10:34:55Z</time>
      </trkpt>
      <trkpt lat="48.68545" lon="1.78148">
        <ele>171</ele>
        <time>2019-01-10T10:34:59Z</time>
      </trkpt>
      <trkpt lat="48.68541" lon="1.78154">
        <ele>171</ele>
        <time>2019-01-10T10:35:05Z</time>
      </trkpt>
      <trkpt lat="48.68535" lon="1.78161">
        <ele>171</ele>
        <time>2019-01-10T10:35:11Z</time>
      </trkpt>
      <trkpt lat="48.6853" lon="1.78167">
        <ele>170</ele>
        <time>2019-01-10T10:35:15Z</time>
      </trkpt>
      <trkpt lat="48.68526" lon="1.78171">
        <ele>170</ele>
        <time>2019-01-10T10:35:19Z</time>
      </trkpt>
      <trkpt lat="48.68521" lon="1.78178">
        <ele>170</ele>
        <time>2019-01-10T10:35:23Z</time>
      </trkpt>
      <trkpt lat="48.68517" lon="1.78186">
        <ele>170</ele>
        <time>2019-01-10T10:35:27Z</time>
      </trkpt>
      <trkpt lat="48.68513" lon="1.78192">
        <ele>170</ele>
        <time>2019-01-10T10:35:29Z</time>
      </trkpt>
      <trkpt lat="48.68507" lon="1.78198">
        <ele>170</ele>
        <time>2019-01-10T10:35:33Z</time>
      </trkpt>
      <trkpt lat="48.68503" lon="1.78205">
        <ele>170</ele>
        <time>2019-01-10T10:35:37Z</time>
      </trkpt>
      <trkpt lat="48.68498" lon="1.78214">
        <ele>170</ele>
        <time>2019-01-10T10:35:39Z</time>
      </trkpt>
      <trkpt lat="48.68495" lon="1.7822">
        <ele>170</ele>
        <time>2019-01-10T10:35:41Z</time>
      </trkpt>
      <trkpt lat="48.68488" lon="1.78227">
        <ele>170</ele>
        <time>2019-01-10T10:35:45Z</time>
      </trkpt>
      <trkpt lat="48.68484" lon="1.78231">
        <ele>170</ele>
        <time>2019-01-10T10:35:49Z</time>
      </trkpt>
      <trkpt lat="48.68478" lon="1.78238">
        <ele>170</ele>
        <time>2019-01-10T10:35:53Z</time>
      </trkpt>
      <trkpt lat="48.68474" lon="1.78242">
        <ele>170</ele>
        <time>2019-01-10T10:35:55Z</time>
      </trkpt>
      <trkpt lat="48.68468" lon="1.78253">
        <ele>174</ele>
        <time>2019-01-10T10:35:59Z</time>
      </trkpt>
      <trkpt lat="48.68461" lon="1.78263">
        <ele>174</ele>
        <time>2019-01-10T10:36:03Z</time>
      </trkpt>
      <trkpt lat="48.68456" lon="1.78268">
        <ele>175</ele>
        <time>2019-01-10T10:36:05Z</time>
      </trkpt>
      <trkpt lat="48.68451" lon="1.78272">
        <ele>175</ele>
        <time>2019-01-10T10:36:07Z</time>
      </trkpt>
      <trkpt lat="48.68448" lon="1.78277">
        <ele>175</ele>
        <time>2019-01-10T10:36:09Z</time>
      </trkpt>
      <trkpt lat="48.68443" lon="1.78284">
        <ele>175</ele>
        <time>2019-01-10T10:36:13Z</time>
      </trkpt>
      <trkpt lat="48.68439" lon="1.78288">
        <ele>175</ele>
        <time>2019-01-10T10:36:15Z</time>
      </trkpt>
      <trkpt lat="48.68433" lon="1.78294">
        <ele>176</ele>
        <time>2019-01-10T10:36:19Z</time>
      </trkpt>
      <trkpt lat="48.68429" lon="1.783">
        <ele>176</ele>
        <time>2019-01-10T10:36:25Z</time>
      </trkpt>
      <trkpt lat="48.68423" lon="1.78308">
        <ele>177</ele>
        <time>2019-01-10T10:36:29Z</time>
      </trkpt>
      <trkpt lat="48.68419" lon="1.78315">
        <ele>177</ele>
        <time>2019-01-10T10:36:33Z</time>
      </trkpt>
      <trkpt lat="48.68412" lon="1.78325">
        <ele>177</ele>
        <time>2019-01-10T10:36:37Z</time>
      </trkpt>
      <trkpt lat="48.68408" lon="1.7833">
        <ele>178</ele>
        <time>2019-01-10T10:36:43Z</time>
      </trkpt>
      <trkpt lat="48.68405" lon="1.78336">
        <ele>179</ele>
        <time>2019-01-10T10:36:47Z</time>
      </trkpt>
      <trkpt lat="48.68402" lon="1.78343">
        <ele>179</ele>
        <time>2019-01-10T10:36:51Z</time>
      </trkpt>
      <trkpt lat="48.68399" lon="1.78348">
        <ele>179</ele>
        <time>2019-01-10T10:36:57Z</time>
      </trkpt>
      <trkpt lat="48.68395" lon="1.78353">
        <ele>179</ele>
        <time>2019-01-10T10:37:01Z</time>
      </trkpt>
      <trkpt lat="48.6839" lon="1.78358">
        <ele>178</ele>
        <time>2019-01-10T10:37:05Z</time>
      </trkpt>
      <trkpt lat="48.68385" lon="1.78361">
        <ele>178</ele>
        <time>2019-01-10T10:37:11Z</time>
      </trkpt>
      <trkpt lat="48.68381" lon="1.78365">
        <ele>178</ele>
        <time>2019-01-10T10:37:15Z</time>
      </trkpt>
      <trkpt lat="48.68374" lon="1.78369">
        <ele>178</ele>
        <time>2019-01-10T10:37:21Z</time>
      </trkpt>
      <trkpt lat="48.6837" lon="1.78372">
        <ele>178</ele>
        <time>2019-01-10T10:37:25Z</time>
      </trkpt>
      <trkpt lat="48.68364" lon="1.78373">
        <ele>178</ele>
        <time>2019-01-10T10:37:33Z</time>
      </trkpt>
      <trkpt lat="48.6836" lon="1.78377">
        <ele>178</ele>
        <time>2019-01-10T10:37:37Z</time>
      </trkpt>
      <trkpt lat="48.68356" lon="1.78382">
        <ele>178</ele>
        <time>2019-01-10T10:37:41Z</time>
      </trkpt>
      <trkpt lat="48.6835" lon="1.78389">
        <ele>178</ele>
        <time>2019-01-10T10:37:45Z</time>
      </trkpt>
      <trkpt lat="48.68344" lon="1.78394">
        <ele>177</ele>
        <time>2019-01-10T10:37:49Z</time>
      </trkpt>
      <trkpt lat="48.68339" lon="1.78396">
        <ele>177</ele>
        <time>2019-01-10T10:37:53Z</time>
      </trkpt>
      <trkpt lat="48.68335" lon="1.784">
        <ele>177</ele>
        <time>2019-01-10T10:37:55Z</time>
      </trkpt>
      <trkpt lat="48.68331" lon="1.78404">
        <ele>175</ele>
        <time>2019-01-10T10:37:59Z</time>
      </trkpt>
      <trkpt lat="48.68324" lon="1.78412">
        <ele>175</ele>
        <time>2019-01-10T10:38:05Z</time>
      </trkpt>
      <trkpt lat="48.6832" lon="1.78417">
        <ele>175</ele>
        <time>2019-01-10T10:38:07Z</time>
      </trkpt>
      <trkpt lat="48.68316" lon="1.78422">
        <ele>175</ele>
        <time>2019-01-10T10:38:09Z</time>
      </trkpt>
      <trkpt lat="48.68312" lon="1.78424">
        <ele>174</ele>
        <time>2019-01-10T10:38:13Z</time>
      </trkpt>
      <trkpt lat="48.68303" lon="1.78431">
        <ele>174</ele>
        <time>2019-01-10T10:38:17Z</time>
      </trkpt>
      <trkpt lat="48.68299" lon="1.78436">
        <ele>174</ele>
        <time>2019-01-10T10:38:19Z</time>
      </trkpt>
      <trkpt lat="48.68294" lon="1.78441">
        <ele>173</ele>
        <time>2019-01-10T10:38:23Z</time>
      </trkpt>
      <trkpt lat="48.68287" lon="1.78447">
        <ele>173</ele>
        <time>2019-01-10T10:38:27Z</time>
      </trkpt>
      <trkpt lat="48.68282" lon="1.7845">
        <ele>173</ele>
        <time>2019-01-10T10:38:31Z</time>
      </trkpt>
      <trkpt lat="48.68276" lon="1.78455">
        <ele>172</ele>
        <time>2019-01-10T10:38:35Z</time>
      </trkpt>
      <trkpt lat="48.6827" lon="1.78458">
        <ele>172</ele>
        <time>2019-01-10T10:38:39Z</time>
      </trkpt>
      <trkpt lat="48.68264" lon="1.78463">
        <ele>172</ele>
        <time>2019-01-10T10:38:43Z</time>
      </trkpt>
      <trkpt lat="48.6826" lon="1.78468">
        <ele>172</ele>
        <time>2019-01-10T10:38:47Z</time>
      </trkpt>
      <trkpt lat="48.68255" lon="1.78473">
        <ele>171</ele>
        <time>2019-01-10T10:38:49Z</time>
      </trkpt>
      <trkpt lat="48.68251" lon="1.78477">
        <ele>171</ele>
        <time>2019-01-10T10:38:53Z</time>
      </trkpt>
      <trkpt lat="48.68245" lon="1.78482">
        <ele>167</ele>
        <time>2019-01-10T10:38:59Z</time>
      </trkpt>
      <trkpt lat="48.68239" lon="1.78489">
        <ele>167</ele>
        <time>2019-01-10T10:39:03Z</time>
      </trkpt>
      <trkpt lat="48.68234" lon="1.78491">
        <ele>167</ele>
        <time>2019-01-10T10:39:07Z</time>
      </trkpt>
      <trkpt lat="48.68228" lon="1.78494">
        <ele>167</ele>
        <time>2019-01-10T10:39:11Z</time>
      </trkpt>
      <trkpt lat="48.68221" lon="1.785">
        <ele>166</ele>
        <time>2019-01-10T10:39:17Z</time>
      </trkpt>
      <trkpt lat="48.68215" lon="1.78504">
        <ele>166</ele>
        <time>2019-01-10T10:39:21Z</time>
      </trkpt>
      <trkpt lat="48.6821" lon="1.78509">
        <ele>166</ele>
        <time>2019-01-10T10:39:25Z</time>
      </trkpt>
      <trkpt lat="48.68205" lon="1.78516">
        <ele>166</ele>
        <time>2019-01-10T10:39:29Z</time>
      </trkpt>
      <trkpt lat="48.68197" lon="1.78523">
        <ele>165</ele>
        <time>2019-01-10T10:39:33Z</time>
      </trkpt>
      <trkpt lat="48.68192" lon="1.78526">
        <ele>165</ele>
        <time>2019-01-10T10:39:37Z</time>
      </trkpt>
      <trkpt lat="48.68187" lon="1.78532">
        <ele>165</ele>
        <time>2019-01-10T10:39:41Z</time>
      </trkpt>
      <trkpt lat="48.68181" lon="1.78537">
        <ele>165</ele>
        <time>2019-01-10T10:39:45Z</time>
      </trkpt>
      <trkpt lat="48.68175" lon="1.78542">
        <ele>165</ele>
        <time>2019-01-10T10:39:49Z</time>
      </trkpt>
      <trkpt lat="48.68171" lon="1.78547">
        <ele>165</ele>
        <time>2019-01-10T10:39:51Z</time>
      </trkpt>
      <trkpt lat="48.68165" lon="1.78553">
        <ele>166</ele>
        <time>2019-01-10T10:39:55Z</time>
      </trkpt>
      <trkpt lat="48.68159" lon="1.78558">
        <ele>166</ele>
        <time>2019-01-10T10:39:59Z</time>
      </trkpt>
      <trkpt lat="48.68152" lon="1.78562">
        <ele>166</ele>
        <time>2019-01-10T10:40:03Z</time>
      </trkpt>
      <trkpt lat="48.68144" lon="1.78565">
        <ele>166</ele>
        <time>2019-01-10T10:40:07Z</time>
      </trkpt>
      <trkpt lat="48.68139" lon="1.78568">
        <ele>166</ele>
        <time>2019-01-10T10:40:09Z</time>
      </trkpt>
      <trkpt lat="48.68136" lon="1.78573">
        <ele>167</ele>
        <time>2019-01-10T10:40:13Z</time>
      </trkpt>
      <trkpt lat="48.68131" lon="1.7858">
        <ele>167</ele>
        <time>2019-01-10T10:40:17Z</time>
      </trkpt>
      <trkpt lat="48.68127" lon="1.78586">
        <ele>170</ele>
        <time>2019-01-10T10:40:21Z</time>
      </trkpt>
      <trkpt lat="48.68122" lon="1.78592">
        <ele>170</ele>
        <time>2019-01-10T10:40:25Z</time>
      </trkpt>
      <trkpt lat="48.68115" lon="1.78596">
        <ele>170</ele>
        <time>2019-01-10T10:40:29Z</time>
      </trkpt>
      <trkpt lat="48.6811" lon="1.78603">
        <ele>170</ele>
        <time>2019-01-10T10:40:33Z</time>
      </trkpt>
      <trkpt lat="48.68106" lon="1.78608">
        <ele>170</ele>
        <time>2019-01-10T10:40:37Z</time>
      </trkpt>
      <trkpt lat="48.68098" lon="1.78618">
        <ele>171</ele>
        <time>2019-01-10T10:40:41Z</time>
      </trkpt>
      <trkpt lat="48.68094" lon="1.78622">
        <ele>171</ele>
        <time>2019-01-10T10:40:45Z</time>
      </trkpt>
      <trkpt lat="48.68087" lon="1.78626">
        <ele>171</ele>
        <time>2019-01-10T10:40:49Z</time>
      </trkpt>
      <trkpt lat="48.68081" lon="1.78631">
        <ele>171</ele>
        <time>2019-01-10T10:40:53Z</time>
      </trkpt>
      <trkpt lat="48.68075" lon="1.78637">
        <ele>171</ele>
        <time>2019-01-10T10:40:57Z</time>
      </trkpt>
      <trkpt lat="48.68069" lon="1.78641">
        <ele>171</ele>
        <time>2019-01-10T10:41:01Z</time>
      </trkpt>
      <trkpt lat="48.68062" lon="1.78646">
        <ele>171</ele>
        <time>2019-01-10T10:41:07Z</time>
      </trkpt>
      <trkpt lat="48.68055" lon="1.78651">
        <ele>171</ele>
        <time>2019-01-10T10:41:13Z</time>
      </trkpt>
      <trkpt lat="48.6805" lon="1.78656">
        <ele>171</ele>
        <time>2019-01-10T10:41:17Z</time>
      </trkpt>
      <trkpt lat="48.68045" lon="1.78659">
        <ele>171</ele>
        <time>2019-01-10T10:41:21Z</time>
      </trkpt>
      <trkpt lat="48.68038" lon="1.78662">
        <ele>171</ele>
        <time>2019-01-10T10:41:25Z</time>
      </trkpt>
      <trkpt lat="48.68032" lon="1.78667">
        <ele>173</ele>
        <time>2019-01-10T10:41:29Z</time>
      </trkpt>
      <trkpt lat="48.68027" lon="1.78674">
        <ele>173</ele>
        <time>2019-01-10T10:41:33Z</time>
      </trkpt>
      <trkpt lat="48.68024" lon="1.7868">
        <ele>173</ele>
        <time>2019-01-10T10:41:37Z</time>
      </trkpt>
      <trkpt lat="48.6802" lon="1.78686">
        <ele>173</ele>
        <time>2019-01-10T10:41:41Z</time>
      </trkpt>
      <trkpt lat="48.68016" lon="1.78692">
        <ele>173</ele>
        <time>2019-01-10T10:41:45Z</time>
      </trkpt>
      <trkpt lat="48.68012" lon="1.78696">
        <ele>173</ele>
        <time>2019-01-10T10:41:49Z</time>
      </trkpt>
      <trkpt lat="48.68007" lon="1.787">
        <ele>173</ele>
        <time>2019-01-10T10:41:59Z</time>
      </trkpt>
      <trkpt lat="48.67999" lon="1.787">
        <ele>171</ele>
        <time>2019-01-10T10:42:23Z</time>
      </trkpt>
      <trkpt lat="48.67993" lon="1.787">
        <ele>171</ele>
        <time>2019-01-10T10:42:27Z</time>
      </trkpt>
      <trkpt lat="48.67988" lon="1.78699">
        <ele>171</ele>
        <time>2019-01-10T10:42:31Z</time>
      </trkpt>
      <trkpt lat="48.67983" lon="1.78699">
        <ele>171</ele>
        <time>2019-01-10T10:42:35Z</time>
      </trkpt>
      <trkpt lat="48.67978" lon="1.78695">
        <ele>170</ele>
        <time>2019-01-10T10:42:41Z</time>
      </trkpt>
      <trkpt lat="48.67973" lon="1.78695">
        <ele>170</ele>
        <time>2019-01-10T10:42:45Z</time>
      </trkpt>
      <trkpt lat="48.67967" lon="1.78692">
        <ele>170</ele>
        <time>2019-01-10T10:42:51Z</time>
      </trkpt>
      <trkpt lat="48.67963" lon="1.78688">
        <ele>170</ele>
        <time>2019-01-10T10:42:55Z</time>
      </trkpt>
      <trkpt lat="48.67959" lon="1.78684">
        <ele>169</ele>
        <time>2019-01-10T10:42:59Z</time>
      </trkpt>
      <trkpt lat="48.67953" lon="1.78682">
        <ele>169</ele>
        <time>2019-01-10T10:43:03Z</time>
      </trkpt>
      <trkpt lat="48.67945" lon="1.78677">
        <ele>169</ele>
        <time>2019-01-10T10:43:09Z</time>
      </trkpt>
      <trkpt lat="48.67939" lon="1.7867">
        <ele>168</ele>
        <time>2019-01-10T10:43:13Z</time>
      </trkpt>
      <trkpt lat="48.67935" lon="1.78667">
        <ele>168</ele>
        <time>2019-01-10T10:43:17Z</time>
      </trkpt>
      <trkpt lat="48.67929" lon="1.78663">
        <ele>165</ele>
        <time>2019-01-10T10:43:21Z</time>
      </trkpt>
      <trkpt lat="48.67922" lon="1.78657">
        <ele>165</ele>
        <time>2019-01-10T10:43:25Z</time>
      </trkpt>
      <trkpt lat="48.67919" lon="1.78647">
        <ele>165</ele>
        <time>2019-01-10T10:43:31Z</time>
      </trkpt>
      <trkpt lat="48.67914" lon="1.78638">
        <ele>162</ele>
        <time>2019-01-10T10:43:37Z</time>
      </trkpt>
      <trkpt lat="48.67911" lon="1.78632">
        <ele>161</ele>
        <time>2019-01-10T10:43:39Z</time>
      </trkpt>
      <trkpt lat="48.67906" lon="1.78626">
        <ele>161</ele>
        <time>2019-01-10T10:43:43Z</time>
      </trkpt>
      <trkpt lat="48.679" lon="1.78624">
        <ele>161</ele>
        <time>2019-01-10T10:43:47Z</time>
      </trkpt>
      <trkpt lat="48.67894" lon="1.78617">
        <ele>161</ele>
        <time>2019-01-10T10:43:53Z</time>
      </trkpt>
      <trkpt lat="48.6789" lon="1.78614">
        <ele>160</ele>
        <time>2019-01-10T10:43:55Z</time>
      </trkpt>
      <trkpt lat="48.67883" lon="1.78606">
        <ele>160</ele>
        <time>2019-01-10T10:43:59Z</time>
      </trkpt>
      <trkpt lat="48.67878" lon="1.78603">
        <ele>160</ele>
        <time>2019-01-10T10:44:03Z</time>
      </trkpt>
      <trkpt lat="48.67873" lon="1.78597">
        <ele>160</ele>
        <time>2019-01-10T10:44:07Z</time>
      </trkpt>
      <trkpt lat="48.67866" lon="1.78589">
        <ele>159</ele>
        <time>2019-01-10T10:44:13Z</time>
      </trkpt>
      <trkpt lat="48.6786" lon="1.78583">
        <ele>157</ele>
        <time>2019-01-10T10:44:17Z</time>
      </trkpt>
      <trkpt lat="48.67855" lon="1.78576">
        <ele>157</ele>
        <time>2019-01-10T10:44:21Z</time>
      </trkpt>
      <trkpt lat="48.6785" lon="1.78569">
        <ele>157</ele>
        <time>2019-01-10T10:44:25Z</time>
      </trkpt>
      <trkpt lat="48.67847" lon="1.78562">
        <ele>157</ele>
        <time>2019-01-10T10:44:29Z</time>
      </trkpt>
      <trkpt lat="48.67841" lon="1.78559">
        <ele>157</ele>
        <time>2019-01-10T10:44:35Z</time>
      </trkpt>
      <trkpt lat="48.6784" lon="1.78552">
        <ele>156</ele>
        <time>2019-01-10T10:44:39Z</time>
      </trkpt>
      <trkpt lat="48.67839" lon="1.78544">
        <ele>156</ele>
        <time>2019-01-10T10:44:43Z</time>
      </trkpt>
      <trkpt lat="48.67839" lon="1.78536">
        <ele>156</ele>
        <time>2019-01-10T10:44:49Z</time>
      </trkpt>
      <trkpt lat="48.67836" lon="1.78527">
        <ele>156</ele>
        <time>2019-01-10T10:44:53Z</time>
      </trkpt>
      <trkpt lat="48.67834" lon="1.78519">
        <ele>155</ele>
        <time>2019-01-10T10:44:57Z</time>
      </trkpt>
      <trkpt lat="48.67831" lon="1.78512">
        <ele>154</ele>
        <time>2019-01-10T10:45:03Z</time>
      </trkpt>
      <trkpt lat="48.67828" lon="1.78503">
        <ele>154</ele>
        <time>2019-01-10T10:45:09Z</time>
      </trkpt>
      <trkpt lat="48.67826" lon="1.78497">
        <ele>154</ele>
        <time>2019-01-10T10:45:13Z</time>
      </trkpt>
      <trkpt lat="48.67824" lon="1.78487">
        <ele>154</ele>
        <time>2019-01-10T10:45:17Z</time>
      </trkpt>
      <trkpt lat="48.67823" lon="1.7848">
        <ele>154</ele>
        <time>2019-01-10T10:45:21Z</time>
      </trkpt>
      <trkpt lat="48.67825" lon="1.7847">
        <ele>154</ele>
        <time>2019-01-10T10:45:27Z</time>
      </trkpt>
      <trkpt lat="48.67823" lon="1.78459">
        <ele>154</ele>
        <time>2019-01-10T10:45:33Z</time>
      </trkpt>
      <trkpt lat="48.67822" lon="1.7845">
        <ele>154</ele>
        <time>2019-01-10T10:45:37Z</time>
      </trkpt>
      <trkpt lat="48.6782" lon="1.78443">
        <ele>154</ele>
        <time>2019-01-10T10:45:41Z</time>
      </trkpt>
      <trkpt lat="48.67817" lon="1.78437">
        <ele>154</ele>
        <time>2019-01-10T10:45:45Z</time>
      </trkpt>
      <trkpt lat="48.67811" lon="1.78433">
        <ele>154</ele>
        <time>2019-01-10T10:45:51Z</time>
      </trkpt>
      <trkpt lat="48.67805" lon="1.78433">
        <ele>154</ele>
        <time>2019-01-10T10:45:57Z</time>
      </trkpt>
      <trkpt lat="48.67802" lon="1.78439">
        <ele>154</ele>
        <time>2019-01-10T10:46:05Z</time>
      </trkpt>
      <trkpt lat="48.67804" lon="1.78446">
        <ele>154</ele>
        <time>2019-01-10T10:46:11Z</time>
      </trkpt>
      <trkpt lat="48.67801" lon="1.78452">
        <ele>154</ele>
        <time>2019-01-10T10:46:51Z</time>
      </trkpt>
    </trkseg>
  </trk>
</gpx>